GFSSE_prec_cloud_003.txt.gz
Cloud_Cover
7 26 23 0 8 7 85 51 100 1 0 0 0 0 0 24 15 0 0 6 36 1 2 45 80 99 100 32 69 21 26 25 4 0 0 0 0 0 3 36 0 3 0
5 3 2 28 100 12 27 75 93 0 0 0 0 0 0 54 4 0 0 0 0 1 0 2 74 100 83 23 9 8 100 80 2 0 2 0 0 0 0 5 0 0 33
5 15 56 100 100 79 9 20 9 0 0 0 0 0 0 56 30 0 0 0 0 0 0 0 0 0 0 0 0 0 65 27 0 16 98 30 0 0 9 0 0 0 0
100 78 100 100 100 94 5 0 0 0 0 0 0 89 81 39 67 100 97 39 8 0 0 0 0 0 0 0 0 0 1 18 4 100 100 100 1 43 71 9 0 0 0
100 100 100 100 100 100 34 5 0 0 0 0 0 0 0 30 44 100 100 100 10 0 0 0 0 0 0 0 0 0 77 22 27 100 100 99 2 44 6 7 3 0 0
100 100 100 100 100 25 5 5 1 0 0 0 0 0 0 0 20 64 100 100 18 0 0 0 0 0 0 0 0 0 5 33 100 100 100 20 18 90 99 7 9 0 0
100 100 100 100 100 100 96 22 0 0 0 0 0 0 0 0 0 13 88 100 0 0 0 0 0 0 0 6 14 2 0 7 100 100 99 71 100 100 96 4 0 2 2
99 67 100 100 100 86 24 10 0 16 17 82 0 0 0 0 0 0 72 33 0 0 2 0 0 0 0 1 9 12 7 99 100 77 36 61 100 100 100 56 5 5 0
71 49 94 97 100 24 24 4 0 37 0 34 0 0 0 0 0 0 0 0 0 0 1 0 0 5 0 0 0 0 21 100 89 87 100 100 100 100 15 5 10 40 0
100 100 100 100 95 93 85 3 0 0 0 0 0 0 4 0 0 0 0 0 0 0 0 0 0 0 0 0 0 0 41 100 100 100 100 100 100 98 23 83 7 1 3
99 100 45 78 88 20 32 6 0 0 0 5 4 0 0 0 0 0 0 0 0 0 0 0 0 0 0 4 0 0 65 100 96 74 100 100 100 100 18 5 8 38 1
89 82 43 5 6 57 68 21 2 0 0 0 0 1 3 0 0 0 0 0 0 0 0 0 0 0 0 4 5 10 30 72 56 100 100 100 100 94 36 39 98 18 3
74 36 33 9 5 5 5 4 4 0 0 0 0 0 0 1 5 1 0 0 5 5 5 3 0 3 12 43 90 100 97 90 100 100 89 100 100 100 100 100 90 4 0
97 100 72 30 5 5 5 4 0 0 0 4 8 5 0 0 5 8 12 34 65 50 64 99 100 100 100 94 0 5 0 42 100 100 100 100 100 100 100 93 6 2 4
96 62 50 21 27 1 2 0 4 42 4 0 1 29 0 4 3 24 83 11 1 69 99 92 29 59 44 12 3 6 5 5 51 100 100 100 100 100 65 5 5 4 9
71 16 5 5 5 3 1 7 10 49 98 12 19 5 5 5 5 50 100 100 85 16 12 5 24 76 55 74 64 56 18 46 75 100 100 100 100 94 6 5 3 24 72
69 19 5 4 5 2 63 49 35 95 100 96 92 100 45 100 56 98 80 15 0 0 0 0 2 5 46 41 94 68 55 65 24 19 100 100 100 100 6 14 35 2 54
68 5 5 5 8 53 5 41 58 78 97 58 50 75 99 22 27 13 4 0 0 0 0 0 0 0 3 7 22 53 66 83 94 68 36 9 4 1 6 12 12 3 0
7 4 5 5 58 36 26 98 100 58 23 21 39 75 79 61 45 18 7 4 0 0 0 0 0 0 0 0 1 5 5 5 5 5 6 6 3 0 0 0 0 0 4
8 75 73 74 100 54 42 99 89 18 9 29 72 58 100 94 99 90 100 47 5 4 0 0 0 0 0 0 0 0 1 2 0 0 1 0 0 0 2 4 5 30 81
5 5 5 22 5 12 21 31 13 7 88 86 67 98 67 100 61 9 5 3 5 0 0 0 0 0 0 0 0 0 0 0 0 0 2 4 5 5 5 5 5 5 5
0 0 0 0 3 0 2 5 9 51 25 24 61 58 23 5 5 5 5 4 1 0 0 0 0 0 0 0 0 0 0 1 0 0 0 0 0 4 5 5 5 15 5
0 0 0 0 0 1 5 5 3 5 5 5 5 5 5 5 5 5 2 0 0 0 0 0 0 0 4 2 0 0 0 1 4 5 6 4 5 19 14 9 9 35 28
0 0 0 0 0 5 5 1 0 0 1 92 14 4 2 0 0 0 0 0 0 4 5 5 5 1 0 0 0 0 0 0 0 0 1 24 99 100 100 100 100 100 94
0 0 0 0 0 5 0 0 35 90 50 5 5 5 5 0 0 0 0 5 5 5 5 5 3 0 0 0 0 0 0 0 0 0 0 0 0 0 4 4 5 4 5
0 0 0 0 5 5 3 71 74 5 3 0 0 0 0 0 0 1 5 5 5 5 5 5 5 3 1 0 0 0 0 0 0 0 0 0 0 0 0 0 0 0 0

GFSSE_prec_cloud_006.txt.gz
Cloud_Cover
9 42 98 35 96 30 5 0 5 12 1 0 0 0 0 0 0 0 1 5 0 0 0 82 58 78 63 67 21 6 0 3 0 0 0 0 5 2 0 71 23 0 0
4 44 41 49 40 6 5 5 13 70 4 1 0 3 2 99 18 0 0 0 0 0 0 0 0 1 70 10 0 0 4 0 0 0 0 3 5 0 0 65 0 0 35
23 23 100 99 5 5 21 21 22 5 1 0 0 0 0 81 84 0 0 0 0 0 0 0 0 0 0 0 0 0 0 0 0 0 0 0 3 3 15 21 0 0 1
22 5 77 75 5 78 68 100 98 52 2 0 0 0 0 9 58 100 97 44 0 0 0 0 0 0 0 0 0 0 0 0 0 0 0 3 5 3 100 100 88 3 5
96 17 10 82 89 100 100 100 100 100 5 5 5 0 12 57 54 96 100 91 0 0 0 0 0 0 0 0 0 0 0 0 0 0 0 5 8 93 100 84 63 7 2
100 100 59 82 100 100 100 100 82 41 72 56 7 0 0 43 6 95 99 3 0 0 0 0 0 0 0 0 0 0 0 0 0 0 0 63 100 100 100 7 20 45 98
100 100 100 100 100 100 100 100 100 48 12 5 5 0 0 0 24 88 85 92 0 0 0 0 0 0 2 13 3 88 6 0 0 3 0 5 100 100 100 5 100 100 100
100 100 100 100 100 100 100 100 100 100 100 71 5 0 0 0 0 0 33 0 0 0 0 2 2 0 5 4 0 15 0 1 0 0 0 3 58 100 71 93 98 100 100
79 76 60 72 90 100 100 84 67 98 56 82 18 4 4 0 0 0 0 0 0 0 0 1 3 1 16 2 5 3 2 5 0 7 0 3 87 100 98 85 100 100 100
100 100 100 100 100 100 100 100 59 100 89 5 4 2 4 0 4 2 0 0 0 0 0 0 0 0 0 0 2 5 3 2 5 3 1 29 100 100 100 100 100 100 100
100 100 93 100 100 100 96 92 81 75 31 5 3 4 1 0 0 0 3 4 3 1 0 0 0 0 0 0 0 0 45 52 40 5 9 87 100 100 100 100 100 100 100
100 33 24 97 97 100 82 83 20 5 4 5 4 0 0 0 0 1 0 5 0 0 2 0 0 1 2 2 13 3 66 84 13 99 59 11 100 100 100 100 100 100 100
98 100 76 46 99 63 53 12 21 13 14 7 4 5 0 0 0 0 0 0 5 4 1 4 5 36 89 55 18 32 1 0 4 5 0 5 63 99 94 100 100 100 100
100 100 100 78 5 16 50 23 66 29 8 9 5 3 4 4 6 7 5 94 99 68 95 100 100 49 49 100 100 39 28 7 3 0 5 5 29 100 100 100 100 100 100
92 80 98 51 11 52 37 5 5 5 5 4 2 4 3 4 3 21 67 71 50 65 84 70 6 0 1 5 25 100 100 90 18 5 5 5 5 5 81 99 100 100 100
84 94 86 100 100 100 5 26 14 13 82 67 5 5 5 5 16 67 96 100 92 4 4 3 5 22 66 28 10 7 26 51 85 100 75 53 50 21 11 5 99 100 100
76 100 49 100 98 88 28 75 14 100 100 100 98 100 82 100 100 100 100 87 11 10 0 0 4 6 4 0 0 0 2 5 5 5 5 5 45 68 5 17 83 63 50
100 100 28 28 54 69 15 65 51 100 100 100 100 100 100 100 90 100 39 36 13 6 5 5 0 0 0 0 0 0 0 0 1 5 5 4 5 5 5 21 78 88 85
100 100 81 7 5 27 14 95 100 100 100 100 98 78 76 84 10 15 23 45 28 42 5 5 5 2 0 0 0 0 0 0 0 0 0 0 1 1 0 0 3 1 1
100 100 87 62 5 54 38 100 100 100 99 57 32 5 78 80 38 62 27 5 8 45 45 14 24 20 23 1 0 0 0 0 0 0 0 0 0 0 0 0 0 0 0
100 100 100 79 91 83 72 100 100 100 41 16 23 16 5 5 21 92 85 13 5 5 18 13 20 4 0 0 0 0 0 0 0 0 0 0 0 0 0 0 1 0 1
66 65 56 37 10 4 28 55 74 20 27 5 5 4 5 5 5 5 5 1 0 0 0 0 0 0 0 0 0 5 30 19 5 0 0 0 0 0 0 0 0 3 3
0 3 5 0 0 16 48 58 65 5 5 1 0 0 3 0 0 0 0 0 0 0 0 0 0 0 2 0 0 0 0 0 0 2 0 0 0 0 0 3 2 4 4
5 5 0 1 28 9 0 0 0 5 0 0 4 5 0 0 0 0 0 0 0 0 0 0 0 0 0 0 0 0 0 0 0 0 0 0 0 0 0 0 0 2 1
4 1 0 4 1 0 0 0 0 0 0 5 2 0 0 0 0 0 0 0 0 0 0 0 0 0 0 0 0 0 0 0 0 0 0 0 0 0 0 0 0 2 5
3 0 1 2 0 0 0 0 0 1 5 5 5 5 0 0 0 1 0 0 0 0 0 0 0 0 0 0 0 0 0 0 0 0 0 0 0 0 0 0 2 1 1

GFSSE_prec_cloud_009.txt.gz
Cloud_Cover
0 0 3 58 100 22 54 85 22 4 1 0 10 47 12 2 0 0 0 0 0 0 0 38 34 15 48 68 14 3 0 0 0 0 0 0 0 5 1 0 50 3 0
0 1 0 0 0 15 64 21 6 5 0 5 0 20 95 57 0 0 0 0 0 0 0 0 0 0 5 27 10 0 3 13 0 0 0 0 0 0 0 99 0 5 17
0 18 0 0 89 30 100 88 5 5 5 0 4 5 38 88 94 0 0 0 0 0 0 0 0 0 0 0 0 0 3 2 0 0 0 0 0 0 0 60 4 0 0
12 23 0 0 0 3 28 100 18 5 78 50 31 7 3 21 48 95 95 0 0 0 0 0 0 0 0 0 0 0 0 0 0 0 0 0 0 0 0 78 73 10 1
100 30 4 0 0 7 19 100 91 99 100 15 5 76 93 100 100 100 95 0 0 0 0 0 0 0 0 0 0 0 0 0 0 0 0 0 0 0 48 100 100 80 63
100 100 61 5 5 5 5 26 100 100 100 5 7 91 10 80 91 99 100 0 0 0 0 0 0 0 0 0 0 5 0 1 0 0 0 0 0 0 5 5 100 92 100
100 100 100 91 5 5 5 89 100 100 99 100 100 100 100 91 95 96 88 3 0 0 0 0 0 0 0 0 2 12 60 88 29 0 0 2 0 0 5 0 96 100 100
100 100 100 100 95 76 88 100 99 93 100 100 100 100 41 6 4 4 25 0 0 0 0 0 0 0 0 4 0 2 5 4 2 0 0 5 23 5 5 0 5 100 100
100 100 100 100 42 76 100 100 100 86 100 100 100 100 20 5 7 3 5 4 0 0 0 0 0 0 0 0 0 3 5 5 3 9 5 5 5 96 26 27 6 80 98
99 100 100 100 100 62 40 26 42 97 100 100 100 100 39 4 3 0 0 0 1 0 2 0 0 0 0 0 0 0 0 0 6 5 8 52 84 93 6 7 13 6 75
100 100 94 87 100 100 100 100 100 100 100 100 100 84 5 0 1 0 0 0 0 1 4 3 5 5 1 20 76 36 43 98 100 7 12 6 45 53 29 5 13 80 100
97 61 80 54 88 98 96 92 63 46 28 79 89 69 6 7 5 5 0 0 3 0 5 4 4 1 29 2 14 8 13 4 1 3 0 1 54 8 5 5 6 97 100
67 9 61 89 99 61 63 71 49 23 73 15 9 5 5 45 16 1 0 0 0 0 36 18 15 62 1 1 5 29 74 99 98 66 42 2 0 13 5 5 4 90 100
100 90 100 99 36 79 85 64 75 65 21 19 5 18 5 5 5 6 10 92 100 56 14 12 18 2 0 4 5 5 5 83 100 100 97 29 5 5 1 5 4 11 78
50 56 100 53 5 20 7 23 69 14 12 5 5 6 76 23 8 0 94 100 69 100 64 27 3 4 3 5 1 0 0 34 5 100 97 100 100 100 66 17 7 5 5
98 100 100 98 50 28 13 57 18 5 21 51 7 10 66 99 50 68 99 100 75 22 4 0 4 4 5 0 5 0 3 5 5 5 20 14 75 89 100 100 100 96 100
98 100 100 100 99 8 24 24 64 70 96 100 100 99 100 100 100 100 99 96 26 4 5 5 5 5 5 5 5 0 0 0 0 0 0 0 1 4 5 5 5 33 99
4 100 100 99 100 100 100 100 100 100 100 100 100 100 100 100 100 100 100 22 5 5 8 9 5 5 7 6 5 5 5 5 5 0 0 0 0 0 0 0 0 3 4
0 3 92 98 93 100 95 100 100 100 100 100 100 100 83 100 99 75 62 33 5 84 90 69 81 58 5 5 5 4 2 0 1 0 0 0 0 0 0 0 0 0 0
0 0 8 19 63 96 100 100 100 100 100 100 100 100 57 36 6 5 10 7 5 5 9 8 5 5 1 0 0 0 0 0 0 0 0 1 4 5 12 20 35 5 5
0 0 31 17 19 25 79 100 100 100 100 100 100 86 94 9 5 3 4 5 1 0 3 4 0 0 0 0 0 0 0 4 5 4 0 1 0 0 0 0 0 0 2
0 3 11 1 46 60 96 100 100 100 100 96 55 40 82 14 1 0 0 0 0 0 0 0 0 0 0 0 0 0 0 0 0 0 0 0 0 0 0 0 0 0 0
0 6 4 26 75 80 77 88 82 100 89 19 5 6 10 1 0 0 0 0 0 0 0 0 0 0 0 0 0 0 0 0 0 0 0 0 0 0 0 0 0 0 0
0 0 0 50 56 26 23 85 98 19 6 5 5 41 8 0 0 0 0 0 0 0 0 0 0 0 0 0 0 0 0 0 0 0 1 5 2 0 3 4 4 5 4
0 0 1 59 31 24 19 24 17 1 0 5 5 5 5 5 0 0 0 0 0 0 0 0 0 0 0 0 0 0 0 0 0 0 0 0 0 5 5 5 5 4 0
0 0 7 20 40 21 4 2 0 0 3 5 5 5 5 5 1 0 0 0 0 0 0 0 0 0 0 0 0 0 0 0 0 0 0 0 0 0 0 0 4 4 2

GFSSE_prec_cloud_012.txt.gz
Cloud_Cover
0 0 38 18 50 4 21 5 4 5 45 21 5 1 29 0 13 15 11 2 0 0 0 14 49 12 70 62 74 8 0 0 0 0 0 0 0 0 8 33 3 26 0
0 0 0 47 26 0 8 7 1 5 66 5 5 0 27 23 99 85 8 0 0 0 0 0 0 0 24 100 6 0 6 6 0 0 0 0 0 0 1 95 27 3 0
0 0 0 2 51 1 22 18 0 0 24 64 5 96 100 100 48 3 6 0 0 0 0 0 0 0 0 0 0 0 1 7 0 0 0 0 0 0 0 4 90 0 0
21 13 2 0 0 8 17 12 0 0 4 91 23 1 100 67 62 91 16 0 0 0 0 0 0 0 0 0 0 0 0 0 2 0 0 0 0 0 0 37 100 57 27
100 29 4 4 6 8 22 4 0 0 0 12 43 5 100 51 99 47 4 0 0 0 0 0 0 0 0 0 0 0 0 0 0 0 0 0 0 0 0 91 100 100 84
100 100 11 5 5 2 1 0 0 0 0 5 4 5 100 100 100 100 58 57 11 0 0 0 0 0 0 0 0 3 0 1 0 0 0 0 0 0 0 5 5 99 99
100 100 100 99 12 9 5 5 5 3 2 0 0 5 88 100 100 100 100 100 5 0 0 0 0 0 4 1 1 0 2 39 17 0 2 5 3 2 0 5 4 69 94
100 100 100 100 100 54 25 8 8 5 6 5 4 5 76 100 100 100 100 98 26 5 1 0 1 1 5 1 1 1 0 0 0 3 12 18 5 5 22 56 9 78 7
100 100 100 100 100 100 100 100 93 8 80 7 35 93 100 100 100 100 100 100 93 12 2 0 0 0 0 0 0 0 0 6 8 11 35 25 95 12 71 100 100 100 7
100 100 100 100 100 100 100 100 100 100 100 52 40 99 100 100 100 100 100 100 97 2 0 0 0 0 0 0 0 2 1 100 100 13 3 16 7 52 100 70 99 89 100
100 100 100 98 92 99 100 100 100 100 100 100 100 100 100 96 32 63 18 6 6 4 0 0 0 13 0 0 0 0 0 2 0 1 8 2 0 2 12 24 100 50 32
100 100 100 100 100 94 100 100 100 100 100 99 97 100 99 51 9 5 5 58 31 4 5 0 0 1 0 5 0 0 0 0 0 2 5 2 5 5 4 1 3 100 100
100 100 100 100 94 48 83 91 100 99 71 44 47 86 82 71 79 39 5 5 8 0 4 5 0 0 0 0 0 0 1 0 0 5 5 5 8 74 98 9 34 8 100
100 100 100 100 96 77 81 86 93 68 61 39 9 63 60 55 8 7 41 90 100 99 90 32 0 0 0 0 0 2 0 0 0 0 0 0 72 5 26 100 100 100 95
7 7 70 95 73 80 95 100 72 21 26 44 12 42 80 10 10 18 65 100 100 40 4 2 3 0 0 0 0 7 5 5 5 3 0 0 0 0 6 4 8 74 79
0 0 4 98 100 100 96 38 73 50 9 31 16 44 35 98 86 98 100 92 84 58 10 5 3 0 2 0 0 5 5 5 8 5 5 5 2 0 0 0 0 0 4
0 0 0 1 45 100 100 95 30 92 98 100 100 100 100 100 100 100 100 100 79 10 5 16 5 5 5 5 0 0 1 0 0 0 0 0 0 0 0 0 0 0 0
0 0 0 0 6 16 43 86 100 100 100 100 100 100 100 100 100 100 100 64 55 5 5 5 0 4 3 4 0 0 0 0 0 0 0 0 0 0 0 0 0 0 0
0 0 1 6 25 27 33 90 99 100 100 100 100 100 100 100 94 100 48 24 40 13 5 1 5 2 0 0 0 0 0 0 0 0 0 0 0 0 3 5 5 26 40
0 0 32 43 54 18 26 100 100 100 100 100 100 100 100 100 100 42 14 36 28 31 3 5 0 0 0 0 0 0 0 0 0 0 1 4 0 2 1 1 0 0 0
0 41 94 100 46 0 57 100 100 100 100 100 100 100 100 100 92 24 18 61 5 5 5 0 0 0 0 0 0 0 0 0 0 0 0 0 0 0 0 0 0 0 0
0 47 100 36 42 37 92 100 100 100 100 100 100 100 100 41 6 54 38 2 1 5 2 0 0 0 0 0 0 0 0 0 0 0 0 0 0 0 0 0 0 0 0
0 66 64 31 85 99 100 98 71 98 96 100 100 94 10 5 5 12 5 4 5 0 0 0 0 0 0 0 0 0 0 1 0 0 0 0 0 0 0 0 0 0 0
0 8 6 20 88 100 100 76 1 0 65 100 51 48 5 0 5 5 5 5 5 4 0 0 0 0 0 0 0 0 0 0 0 0 0 2 0 2 3 2 2 2 1
24 0 0 3 65 100 100 43 6 61 71 25 3 1 0 2 5 5 5 56 85 5 0 0 0 0 0 0 0 0 0 0 0 0 4 0 0 2 5 5 5 4 5
14 0 0 8 63 100 81 99 30 52 35 3 0 0 4 70 99 45 15 83 20 0 0 0 0 0 0 0 0 0 0 0 0 0 0 0 0 0 0 0 0 0 0

GFSSE_prec_cloud_015.txt.gz
Cloud_Cover
5 0 0 31 0 0 0 0 0 4 0 4 1 3 5 10 15 12 10 0 4 0 0 0 33 91 77 5 82 34 0 0 0 0 0 0 0 0 0 85 1 27 0
0 0 0 0 0 2 5 0 0 0 0 5 5 5 4 13 50 84 32 4 5 0 0 0 0 30 100 95 34 14 12 5 0 0 0 0 0 0 0 95 92 30 0
4 2 0 4 0 0 21 0 0 0 0 0 2 45 17 78 98 97 69 35 5 0 0 0 0 0 0 4 0 0 0 0 0 0 0 0 0 0 1 0 87 0 0
33 5 3 5 5 1 11 8 0 0 0 0 24 100 96 80 53 45 69 19 8 4 0 1 0 0 0 0 0 0 0 0 0 0 0 0 0 0 0 90 2 48 12
94 73 31 13 26 22 21 6 0 0 0 0 0 0 0 40 2 5 26 100 73 5 5 5 5 5 1 0 0 0 0 0 0 0 0 0 0 0 0 0 0 0 42
100 100 100 100 59 39 42 5 1 0 0 0 0 0 99 98 100 10 0 5 100 99 100 100 77 5 1 1 0 18 63 43 21 0 0 0 1 0 0 2 0 1 4
100 100 100 100 100 100 67 55 17 5 1 0 0 0 52 100 79 96 0 5 92 90 94 100 26 45 12 5 5 0 0 0 0 0 0 0 0 0 21 20 5 5 43
100 100 100 100 100 100 100 100 100 40 5 5 0 1 0 14 2 21 3 5 5 9 100 100 94 21 5 5 3 0 0 0 0 0 0 1 4 0 53 100 100 6 5
98 100 100 100 100 100 100 100 100 100 99 62 6 5 5 5 8 0 5 85 100 100 82 97 100 5 5 5 5 3 0 0 5 0 0 0 0 1 93 100 100 30 20
100 100 100 100 100 100 100 100 100 100 100 100 96 97 56 23 48 66 100 100 85 75 58 5 4 5 5 5 0 0 0 0 0 0 0 0 0 0 2 9 5 2 34
72 49 100 100 100 100 100 100 100 100 100 100 100 100 100 100 100 100 100 100 99 51 5 5 9 5 5 5 1 0 0 2 1 0 0 0 0 0 2 5 47 11 2
5 68 77 100 100 100 100 100 100 100 100 100 100 100 100 97 67 58 58 34 39 83 18 41 10 8 24 5 5 0 0 0 4 0 0 0 0 1 3 0 7 75 70
4 70 97 100 100 96 100 44 99 100 100 100 100 100 100 100 30 44 77 49 52 67 86 69 7 29 5 4 1 0 0 0 0 0 2 0 0 0 0 3 4 5 9
15 95 100 93 100 99 73 93 52 81 98 60 38 38 44 97 85 46 35 78 73 100 69 5 6 5 19 5 3 4 2 0 0 0 0 4 3 3 0 0 0 0 3
0 6 71 84 100 100 100 85 64 17 64 56 6 5 18 52 84 84 89 88 100 61 5 5 5 5 5 5 5 0 0 0 0 0 2 4 0 0 0 0 0 0 0
0 0 0 10 97 100 75 86 71 14 67 29 22 5 11 94 91 100 100 100 64 100 8 5 18 6 10 6 2 0 0 0 0 0 0 0 0 0 0 0 0 0 0
0 0 0 0 22 68 61 41 8 6 39 33 74 86 100 100 100 100 100 58 95 92 87 13 5 5 5 5 5 5 0 0 0 0 0 0 0 0 0 0 0 0 0
1 0 0 0 9 54 55 39 18 29 97 100 100 100 100 100 100 100 100 99 100 100 82 34 85 5 5 5 5 3 0 0 0 0 0 0 0 0 0 0 2 0 1
0 5 0 0 14 71 44 36 33 100 100 100 100 100 100 100 100 100 100 100 100 100 100 100 98 17 8 5 5 0 0 0 0 0 0 0 0 0 0 0 0 0 0
0 0 0 10 79 86 40 63 88 100 100 100 100 100 100 100 100 100 100 100 100 100 100 100 94 62 36 5 0 0 0 0 0 0 0 0 0 0 0 0 0 0 0
0 0 24 100 100 47 89 100 94 100 100 100 100 100 100 100 100 100 100 100 100 100 100 83 99 99 5 3 0 0 0 0 0 0 0 0 0 0 0 0 0 0 0
0 29 100 100 96 44 87 59 42 100 100 100 100 100 100 100 98 100 100 100 100 100 98 40 5 5 5 0 0 0 0 0 0 0 0 0 0 0 0 0 0 0 0
0 85 100 100 78 78 100 58 100 100 100 100 100 100 100 82 100 100 100 100 100 89 70 5 23 58 38 0 0 0 0 0 0 0 0 0 0 0 0 0 0 0 0
0 82 100 83 69 69 100 100 98 100 25 60 100 100 96 8 81 66 98 13 38 94 5 5 92 80 5 0 0 0 0 0 0 5 0 0 0 0 0 0 0 0 0
4 42 99 87 99 97 100 69 100 100 62 70 100 99 0 16 8 5 5 5 65 93 7 5 16 77 4 0 0 0 0 0 0 0 2 0 4 5 5 5 5 5 5
5 4 31 82 100 81 100 86 100 100 52 84 100 7 0 5 34 5 0 31 88 71 55 25 63 1 0 0 0 0 0 0 0 0 0 0 0 0 1 3 0 5 4

GFSSE_prec_cloud_018.txt.gz
Cloud_Cover
1 4 4 1 0 4 0 0 0 0 0 0 0 1 4 18 0 0 0 0 0 0 2 3 0 71 47 17 98 22 0 0 0 0 0 0 0 0 0 0 3 0 0
0 0 34 19 4 3 0 0 0 0 0 0 0 0 18 99 80 2 59 0 0 0 5 5 6 100 100 93 86 13 12 0 0 0 0 0 0 0 0 0 0 0 0
5 5 6 18 0 0 0 0 0 0 0 0 4 0 0 46 80 100 14 5 2 5 5 5 4 2 47 42 2 0 0 0 0 0 0 0 0 0 0 0 0 0 0
9 13 10 45 5 3 11 0 2 0 0 0 39 33 7 0 0 0 0 0 0 3 7 100 25 5 1 4 5 4 3 0 0 0 0 0 0 0 0 0 0 5 0
50 14 5 26 18 6 22 5 5 4 4 4 1 9 0 0 0 0 0 0 0 0 1 10 25 94 100 75 16 1 3 5 2 2 4 0 0 0 0 0 12 3 60
97 65 91 99 41 8 6 11 38 5 5 5 3 5 2 0 6 0 0 0 0 0 0 0 0 5 5 5 15 99 73 63 0 1 0 3 2 0 0 0 0 0 2
98 100 66 53 99 94 38 32 100 68 58 7 5 4 8 71 8 96 0 0 5 0 3 5 10 10 29 99 50 48 5 2 0 8 20 23 35 0 39 100 36 0 5
18 92 100 100 100 100 100 100 100 100 100 60 10 5 0 3 5 4 1 0 4 35 85 11 61 98 5 32 50 5 5 5 40 80 68 54 14 0 66 24 65 34 6
5 5 35 100 100 100 100 100 100 100 100 100 93 25 5 5 5 12 8 5 7 8 13 45 100 100 25 40 5 2 5 5 5 18 2 31 44 0 20 91 4 19 29
5 4 5 80 100 100 100 100 100 100 100 100 100 100 100 83 28 23 16 64 100 100 100 100 100 100 65 26 17 5 5 5 5 3 0 0 0 0 0 12 0 0 15
0 5 96 82 92 79 100 100 100 100 100 100 100 100 100 100 100 100 82 100 100 100 96 84 83 7 19 5 5 5 14 6 5 5 0 0 0 0 0 0 0 0 6
0 2 19 46 87 89 55 86 96 100 100 100 100 100 80 92 96 100 100 100 100 100 100 12 5 28 8 6 8 35 11 5 5 5 4 0 0 0 0 1 0 0 0
0 0 5 81 87 67 89 99 99 100 100 100 100 100 100 100 100 100 100 100 100 100 100 98 100 13 39 31 8 16 12 8 5 5 4 0 0 0 1 3 0 0 2
0 0 0 17 79 42 94 91 100 100 100 88 82 97 91 69 98 100 100 73 14 26 98 100 100 97 14 45 39 6 47 5 5 4 0 0 0 0 0 0 5 0 0
0 0 0 5 22 57 79 100 87 95 99 78 58 14 35 62 75 73 71 38 20 61 90 80 92 64 57 47 6 16 7 5 5 5 3 0 0 0 3 0 0 0 0
0 0 0 4 5 98 53 71 44 38 36 82 82 6 7 30 58 5 24 32 91 33 21 67 62 84 69 9 57 32 50 5 5 5 5 3 0 0 0 0 0 0 0
0 0 0 0 5 88 20 59 43 32 52 100 87 61 33 5 8 26 100 100 80 73 52 84 93 61 69 47 100 47 65 33 7 5 5 0 0 0 0 0 0 0 0
0 0 2 0 0 0 0 93 80 62 66 89 70 46 14 80 100 100 100 100 24 92 100 100 100 100 100 100 100 100 100 100 5 5 5 0 0 0 0 0 0 0 0
0 0 0 0 0 0 0 88 99 88 74 29 99 100 100 100 100 100 100 96 55 100 100 100 100 100 100 100 100 100 100 63 54 6 4 0 0 0 0 0 0 0 0
0 0 0 0 0 0 35 100 100 96 44 66 100 100 100 100 100 100 17 5 10 82 100 100 100 100 100 100 100 100 65 73 15 0 0 0 0 0 0 0 0 0 0
0 0 0 0 0 0 100 100 56 61 99 80 100 100 100 100 100 85 5 90 79 28 96 31 79 100 100 100 100 68 56 15 2 0 0 0 0 0 0 0 0 0 0
0 0 0 0 0 0 9 96 51 100 100 66 100 100 100 100 100 59 5 70 65 71 76 74 100 100 100 69 8 16 5 5 3 0 0 0 0 0 0 0 0 0 0
0 0 0 0 24 13 86 100 100 100 83 100 100 100 100 100 100 10 48 90 98 96 99 95 70 99 100 92 6 5 5 14 2 0 0 0 0 0 0 0 0 0 0
0 0 0 42 12 92 98 100 73 8 42 84 94 100 100 100 100 0 42 100 85 91 100 100 30 55 85 46 5 5 5 5 0 1 0 0 0 0 0 0 0 0 0
0 0 1 97 40 69 64 100 81 18 98 100 100 100 100 100 25 0 1 5 22 66 87 63 7 68 67 13 5 11 5 0 0 0 0 0 0 0 0 1 5 0 0
0 0 50 19 35 13 78 100 27 39 81 100 100 100 100 91 0 0 0 0 2 5 5 5 5 5 5 5 5 3 0 0 0 0 0 0 0 2 3 0 0 0 0

GFSSE_prec_cloud_021.txt.gz
Cloud_Cover
5 4 9 5 0 0 1 0 0 0 0 0 0 2 16 19 9 0 0 0 0 0 0 0 4 72 5 36 100 32 1 4 0 0 0 0 0 0 0 0 0 22 0
2 7 0 0 5 1 7 0 0 0 0 0 0 0 0 6 8 0 29 0 0 0 0 0 0 100 96 97 99 87 11 0 0 0 2 0 0 0 0 0 0 13 0
4 9 0 0 0 0 20 0 0 0 0 0 0 0 14 22 0 75 2 0 0 0 0 0 1 96 92 60 86 5 5 10 6 5 4 1 4 0 0 0 0 0 0
5 5 17 0 0 0 25 0 0 0 0 1 33 0 0 0 0 0 0 0 0 0 0 0 0 0 0 3 4 3 92 46 4 2 56 11 0 0 0 0 1 8 10
5 5 10 2 5 5 16 4 3 5 3 7 9 0 0 0 0 0 0 0 0 0 0 0 0 0 0 0 0 0 0 1 0 60 20 14 5 10 0 0 0 1 0
5 37 27 47 18 5 5 0 5 5 5 5 5 4 2 4 0 0 0 0 0 0 0 0 0 0 0 0 0 0 0 5 5 50 22 23 24 0 0 20 0 0 0
21 8 6 97 99 74 44 51 66 6 85 8 11 5 5 29 6 11 5 5 0 0 0 0 0 0 5 4 8 8 98 56 20 52 34 57 100 0 10 53 0 0 0
56 76 26 44 81 100 100 100 100 91 96 98 41 74 72 84 50 89 30 5 5 3 0 3 8 9 10 28 16 100 100 100 87 20 100 73 98 0 8 6 5 0 12
5 5 10 45 64 14 95 100 100 100 100 100 100 99 89 100 100 96 95 8 5 5 10 97 61 5 47 99 100 100 100 100 9 59 6 33 23 5 4 88 14 0 8
5 5 5 14 74 84 33 95 100 100 100 100 100 100 100 100 100 100 100 100 100 44 85 96 90 11 100 59 52 98 5 5 5 5 5 5 5 5 3 1 0 0 16
5 5 5 3 28 92 61 22 17 96 100 100 100 100 100 99 100 100 100 100 100 82 98 100 18 100 100 100 100 100 64 8 9 5 5 5 5 5 5 0 0 0 5
1 4 2 0 16 62 100 51 15 14 45 97 100 100 100 100 100 100 100 100 100 100 100 100 100 100 100 100 100 100 95 85 42 8 5 6 5 5 5 0 0 20 0
0 0 0 2 4 18 43 100 86 16 100 34 68 100 100 100 98 100 100 100 100 100 100 100 100 100 100 96 16 50 61 93 45 17 94 9 41 5 52 0 1 0 0
0 0 0 2 10 27 67 90 78 39 52 46 86 48 61 58 80 100 100 100 100 100 72 82 73 77 81 99 41 7 84 83 66 96 7 72 6 5 5 5 1 0 0
0 0 0 0 1 6 42 55 60 78 35 88 100 64 53 28 88 99 100 100 100 99 55 14 42 50 63 46 12 5 6 62 22 94 14 79 55 5 8 5 5 1 0
0 0 0 0 0 3 6 100 73 34 21 69 100 97 5 17 48 66 53 57 27 13 13 15 39 83 33 27 28 34 52 6 5 19 99 100 98 69 5 84 7 0 0
0 0 0 0 0 0 1 13 99 70 91 82 100 100 35 91 100 5 5 5 17 6 5 4 5 5 6 5 16 62 81 88 63 100 100 100 100 93 38 87 6 0 0
0 0 0 0 0 0 4 11 63 99 28 100 100 100 100 76 4 5 4 13 62 5 5 5 4 6 61 100 93 87 99 100 100 100 100 100 100 100 84 20 5 0 0
0 0 0 0 0 0 0 0 35 100 100 100 100 100 60 11 79 36 47 100 25 5 5 5 5 17 57 96 100 100 100 100 100 95 95 100 73 75 71 5 0 0 0
0 0 0 0 0 0 0 1 4 100 100 100 100 5 22 99 86 99 100 72 7 5 5 5 10 5 5 5 27 58 52 61 78 27 86 17 58 15 19 0 0 0 0
0 0 0 0 0 0 0 0 7 86 100 100 40 4 100 100 100 100 99 0 3 5 12 90 98 94 57 6 5 28 5 33 31 26 58 53 10 4 0 0 0 0 0
0 0 0 0 0 0 0 36 31 98 100 76 100 7 100 100 100 100 94 0 0 5 56 89 100 98 80 90 23 5 30 53 66 5 4 5 2 0 0 0 0 0 0
0 0 0 0 0 0 1 46 100 100 70 100 100 37 16 100 100 100 99 0 0 0 10 67 73 81 79 97 64 5 5 5 26 39 6 5 4 0 0 2 0 0 0
5 0 0 0 0 0 4 40 28 0 41 100 99 54 53 100 100 100 100 0 0 0 1 5 18 26 5 15 92 27 2 4 5 47 51 4 0 0 0 0 0 0 0
38 7 2 0 0 0 20 30 39 66 95 100 100 98 100 100 100 100 87 0 0 0 0 0 1 5 5 1 5 1 0 4 5 1 2 0 0 0 0 0 0 0 0
5 14 56 5 5 18 71 4 36 100 89 92 61 89 100 100 97 100 26 5 4 0 0 2 5 4 5 5 0 0 1 4 5 1 0 0 0 0 0 0 0 0 0

GFSSE_prec_cloud_024.txt.gz
Cloud_Cover
14 70 5 5 5 5 5 1 0 0 0 0 2 6 16 4 0 0 0 0 0 0 0 0 57 8 6 95 100 30 15 2 0 0 0 0 0 0 0 0 0 90 48
2 6 5 1 2 6 5 5 0 0 0 0 0 0 5 4 0 1 0 0 0 0 0 0 0 34 63 99 100 99 8 0 5 5 3 5 5 5 0 4 1 0 0
0 1 3 3 0 0 0 0 0 0 0 0 0 10 67 4 68 0 0 0 0 0 0 0 0 93 13 62 74 65 0 0 0 0 0 2 0 0 0 7 0 0 0
4 1 0 0 0 0 0 0 0 0 0 0 0 0 3 0 0 0 0 0 0 0 0 0 0 0 0 0 0 0 0 0 0 0 0 0 0 0 0 0 4 60 71
5 5 5 0 0 0 0 5 4 0 0 0 2 1 1 2 0 0 0 0 0 0 0 0 0 0 0 0 0 0 3 0 0 0 34 1 12 51 5 5 0 0 0
0 0 4 5 4 3 0 4 5 5 1 2 5 5 5 5 5 5 0 0 0 2 5 0 7 0 0 0 0 0 0 0 0 17 33 100 100 100 51 99 0 0 0
1 5 5 5 5 5 0 4 5 15 8 5 25 6 5 7 8 8 28 5 30 14 14 5 8 12 0 1 2 0 0 0 0 63 100 100 100 72 47 82 1 2 19
5 5 5 5 5 5 2 0 9 85 84 87 88 78 28 52 67 78 72 30 5 52 93 70 5 18 5 5 0 25 61 15 78 100 100 9 79 4 5 70 15 21 18
5 9 15 5 5 5 1 4 0 9 100 100 100 100 99 100 100 96 99 100 100 84 86 100 96 81 87 9 26 55 83 32 100 100 100 53 6 5 5 7 5 11 6
0 0 0 3 23 5 0 5 5 0 0 4 82 100 100 100 100 100 100 100 100 100 99 100 100 100 100 99 7 5 49 100 100 100 100 100 100 100 100 23 6 5 24
0 0 0 5 5 19 0 4 5 4 5 1 0 2 97 100 100 100 100 100 100 100 100 100 100 100 100 100 100 100 100 100 100 100 100 100 98 7 98 19 24 31 12
0 2 1 0 0 75 8 1 5 5 5 5 5 0 5 37 50 99 100 100 100 100 100 100 100 100 100 100 100 100 100 100 100 100 100 47 26 9 35 100 65 9 5
0 1 0 27 2 0 100 89 5 5 22 5 5 5 1 2 1 4 84 100 100 100 100 100 100 100 100 100 100 100 100 100 100 87 8 28 10 44 7 19 5 62 7
0 0 0 0 63 81 42 94 100 2 22 5 18 5 25 5 5 0 5 4 14 17 86 89 100 100 88 100 100 100 100 99 5 21 13 5 5 18 6 13 85 48 51
0 0 0 0 3 86 63 83 100 6 73 21 66 5 5 5 5 5 77 23 6 48 7 5 12 98 100 98 100 100 81 11 6 23 59 5 10 13 11 100 100 100 100
0 0 0 0 0 3 43 100 100 64 97 100 94 93 32 22 80 36 29 3 0 5 8 9 5 9 96 100 85 66 35 18 5 16 54 5 27 72 97 100 100 100 100
0 0 0 0 0 0 0 80 100 100 44 97 88 100 100 18 36 65 5 5 5 0 0 2 0 1 4 5 5 5 5 5 5 16 88 100 98 100 100 100 100 100 100
0 0 0 0 0 0 0 10 73 84 0 100 99 90 100 95 89 5 3 5 5 0 5 5 4 4 5 5 5 5 5 2 5 83 76 100 100 100 100 100 100 100 100
0 0 0 0 0 0 0 0 10 1 93 84 68 81 100 100 90 0 0 2 70 13 5 5 5 5 5 5 16 54 50 6 5 5 18 44 22 56 67 86 61 80 23
0 0 0 0 0 0 0 0 5 95 100 100 100 22 78 92 99 100 20 89 100 15 5 5 0 5 5 5 55 100 100 97 92 19 27 20 94 24 28 40 31 7 11
3 0 0 0 0 0 0 0 0 0 60 100 100 100 99 46 95 100 2 100 55 0 0 0 0 5 5 5 64 77 100 100 85 5 5 69 35 46 5 5 5 5 0
100 24 3 0 0 0 0 0 0 1 0 9 99 100 100 72 20 87 100 100 12 0 0 0 0 0 4 5 5 47 68 86 96 93 41 5 5 4 4 5 5 0 0
76 100 97 14 2 0 0 0 1 7 23 34 95 100 95 28 9 94 100 100 36 0 0 0 0 0 0 3 5 5 5 5 5 25 83 6 2 0 0 0 0 0 0
8 100 100 98 8 0 2 0 0 1 8 0 57 100 99 85 62 55 100 100 100 4 5 0 0 0 0 0 1 0 0 0 0 5 4 1 0 0 1 0 0 0 0
3 9 100 100 100 30 6 0 2 0 18 1 98 78 100 100 100 32 18 100 100 5 5 3 0 0 0 0 0 3 0 0 0 0 2 0 0 0 0 0 0 0 0
0 0 29 100 100 100 80 17 20 5 0 20 61 94 100 100 100 100 64 84 100 5 5 4 5 5 5 5 5 5 5 4 1 0 0 0 0 0 0 0 0 0 0

GFSSE_prec_cloud_027.txt.gz
Cloud_Cover
54 95 10 5 5 5 5 4 5 5 5 5 5 14 17 7 4 0 0 0 0 0 0 99 100 28 71 100 96 2 0 0 0 0 0 0 0 0 0 0 0 12 54
11 5 5 5 3 5 5 5 4 3 5 5 0 0 6 2 0 0 0 0 0 0 0 40 76 88 100 96 75 7 0 0 0 0 0 0 0 0 0 0 0 0 0
11 5 0 1 5 5 0 0 0 0 0 1 0 0 4 0 0 0 0 0 0 0 0 4 1 8 1 42 0 0 0 0 0 0 0 0 0 0 0 0 0 0 5
5 13 8 0 0 1 0 0 0 0 0 0 0 40 12 1 0 0 0 0 0 0 0 0 0 0 0 0 0 0 0 0 0 0 0 0 0 0 0 0 5 94 47
5 14 5 0 0 0 0 0 0 0 0 0 0 0 0 2 0 1 5 4 0 0 2 0 0 0 0 1 0 0 0 0 0 0 0 28 0 0 0 0 90 41 16
0 5 1 0 5 5 0 0 0 0 0 0 0 0 5 5 0 5 5 26 6 7 5 5 5 5 5 4 5 5 0 0 0 63 75 98 83 13 3 100 99 8 5
0 0 0 5 5 5 5 0 0 0 3 0 0 3 5 5 5 3 5 5 18 52 5 9 9 9 5 5 5 5 11 5 5 5 94 87 64 66 100 100 49 12 7
0 4 6 5 5 5 5 0 0 0 7 0 0 0 0 5 17 7 41 51 32 70 68 37 67 18 62 48 32 35 5 32 59 82 76 47 100 72 100 100 88 81 42
0 11 37 20 2 5 0 0 0 0 0 0 0 0 5 5 61 90 83 85 85 65 88 97 100 100 100 100 89 100 100 79 61 64 12 46 99 100 81 100 100 100 100
0 5 42 47 12 0 2 1 0 0 0 0 0 0 0 0 4 90 97 100 100 100 100 100 100 100 100 93 99 100 100 100 100 84 34 100 100 100 100 100 100 100 100
0 18 24 49 21 0 4 0 0 3 5 0 0 5 1 0 0 0 5 75 99 84 100 100 100 100 100 100 100 100 100 100 98 25 100 100 100 94 99 100 100 100 84
0 0 5 19 4 1 0 0 0 0 3 5 5 1 5 0 0 0 0 5 22 19 40 85 91 100 98 100 96 100 100 99 100 100 96 98 72 100 100 81 15 50 31
0 0 0 0 2 0 0 4 0 0 0 1 5 5 5 5 5 0 10 2 2 1 4 5 5 22 100 100 71 100 98 100 100 99 40 100 100 100 99 52 5 11 6
0 0 0 0 0 0 0 0 0 0 0 0 5 5 5 5 5 5 12 5 1 0 0 0 4 6 5 5 88 98 8 53 33 96 100 100 93 90 98 26 5 5 5
0 0 0 0 0 0 0 0 0 7 0 0 0 4 1 5 5 5 5 5 0 0 0 0 0 0 4 15 5 3 5 2 3 5 4 66 64 23 30 87 92 90 100
0 0 0 0 0 0 0 27 13 6 0 0 0 48 10 1 4 6 5 2 12 0 3 0 0 0 0 0 0 0 0 0 2 5 2 0 5 5 5 47 92 100 97
0 0 0 0 0 0 0 6 25 100 0 13 99 100 51 4 4 95 5 5 0 0 5 4 0 0 0 0 0 0 0 3 2 0 5 2 0 0 5 62 100 97 70
0 0 0 0 0 0 0 0 0 59 4 1 95 100 100 8 5 2 5 3 0 0 0 0 0 0 5 0 0 0 5 5 5 9 60 9 5 5 10 100 98 21 59
0 0 0 0 0 0 0 0 0 0 15 0 33 99 100 42 37 18 28 1 0 0 0 0 0 0 5 0 0 0 4 5 5 30 64 84 79 78 64 7 63 59 48
0 0 0 0 0 0 0 0 0 0 0 1 70 100 70 13 90 37 67 2 0 29 0 0 0 0 0 0 0 0 2 5 5 15 29 69 34 50 58 87 96 51 58
2 0 0 0 0 0 0 0 4 1 2 94 100 100 94 37 26 41 100 9 0 97 0 0 0 0 0 0 0 0 0 5 5 37 5 12 64 100 85 92 51 72 28
5 9 2 0 0 1 4 5 0 14 19 8 9 56 98 100 98 100 82 0 56 99 0 0 0 0 0 0 0 0 0 0 5 5 5 5 5 5 5 20 70 28 5
16 5 5 5 0 5 2 3 8 5 0 70 52 4 48 100 97 100 100 99 94 100 16 0 0 0 5 4 0 0 0 0 0 4 5 5 4 2 2 3 5 5 5
5 5 5 5 0 0 1 4 6 99 37 4 33 82 10 97 100 100 40 35 94 63 88 1 5 1 0 5 5 5 0 0 0 0 4 5 5 2 0 0 1 0 0
5 5 5 5 0 0 0 0 2 5 21 5 1 5 8 39 100 100 32 49 90 93 100 52 1 5 5 5 5 5 5 5 5 1 0 3 3 3 2 0 0 0 0
3 0 0 0 0 0 3 5 5 5 43 5 22 30 20 26 100 100 100 81 18 38 100 100 0 0 5 5 9 36 37 5 5 5 8 7 5 5 0 0 0 0 0

GFSSE_prec_cloud_030.txt.gz
Cloud_Cover
38 5 5 100 74 73 85 6 28 8 11 13 20 97 8 2 0 0 0 0 0 0 0 90 38 15 82 90 61 0 0 0 0 0 0 0 0 0 0 0 0 14 15
16 5 1 9 16 8 13 5 6 1 3 9 16 95 77 6 1 0 0 0 0 0 91 100 92 99 92 100 9 0 0 0 0 0 0 0 0 0 0 0 0 0 0
25 5 20 1 0 2 0 5 5 5 0 0 0 4 45 4 0 0 0 0 0 0 94 77 57 21 16 0 0 0 0 0 0 0 0 0 0 0 0 0 0 8 16
5 5 5 4 0 0 0 5 2 0 0 0 0 6 3 0 0 0 0 0 0 0 13 0 0 1 0 0 0 0 3 0 0 0 0 0 0 0 0 0 0 0 4
6 5 5 5 0 0 0 0 0 0 0 0 0 35 2 0 0 0 0 4 1 0 0 1 3 1 2 1 0 0 0 0 0 0 2 21 2 1 0 0 0 0 0
13 3 5 5 0 0 5 1 0 0 0 14 2 0 0 0 0 0 0 0 0 4 5 0 5 5 5 2 5 5 5 4 0 13 14 85 97 83 0 0 1 3 8
12 1 5 0 4 5 5 0 1 0 0 0 0 0 0 0 2 0 0 0 3 3 5 6 4 3 5 17 9 9 5 5 10 39 23 87 22 5 11 18 6 7 18
10 22 13 0 0 3 5 5 0 0 0 0 0 0 0 0 0 17 0 0 0 0 11 23 5 5 10 8 39 41 75 86 14 33 98 77 35 38 5 31 9 16 98
5 46 41 27 0 4 5 5 0 0 0 0 0 0 0 0 0 9 5 0 0 0 11 12 21 12 5 100 70 99 100 100 70 48 29 44 65 100 100 88 76 88 100
52 48 50 43 16 5 5 1 0 0 0 0 1 0 0 0 0 0 0 0 0 3 12 22 6 6 10 35 60 75 77 18 33 83 82 98 100 68 39 57 80 96 100
90 79 99 88 35 5 1 0 5 0 0 0 3 0 0 0 0 0 0 0 0 1 0 5 0 5 87 100 100 100 100 100 99 78 75 98 98 56 76 85 99 64 41
100 100 100 100 51 4 0 5 5 0 0 0 2 0 5 3 1 1 0 0 0 0 0 2 5 74 42 44 19 42 44 72 100 73 44 53 99 85 97 100 74 94 42
43 100 100 98 41 4 0 6 22 11 7 1 0 4 2 5 5 15 18 12 4 0 0 0 4 5 5 9 6 79 59 98 100 96 11 97 100 94 100 42 8 2 7
3 18 55 60 37 8 1 6 4 2 2 1 0 0 9 4 8 15 25 19 12 0 1 0 0 0 0 0 2 5 5 5 5 6 73 16 5 37 8 0 0 0 0
4 2 15 37 28 21 3 1 2 0 0 0 0 0 0 3 3 0 6 17 8 3 0 0 0 0 0 0 0 0 1 4 4 2 0 5 2 0 5 5 0 2 3
0 0 0 0 0 7 1 0 0 1 0 0 0 0 0 0 0 5 5 6 5 4 0 0 0 0 0 0 0 0 0 0 0 0 0 3 0 5 5 5 0 0 3
0 0 0 0 0 0 0 0 0 0 0 0 0 0 0 0 0 0 5 4 3 0 5 3 0 0 0 0 0 0 0 0 0 0 5 5 5 5 5 5 5 1 5
1 7 20 3 3 2 2 0 0 0 0 1 0 0 1 0 0 0 0 0 0 7 0 0 0 0 0 0 0 0 0 0 0 0 5 5 5 65 50 8 5 9 21
0 0 2 3 4 5 0 2 2 0 0 0 0 1 2 32 30 0 0 0 10 61 13 0 0 0 0 0 0 0 0 0 0 0 5 5 5 66 20 5 24 49 7
4 3 2 2 5 3 8 56 5 5 5 4 5 5 11 76 91 100 59 78 99 87 6 0 0 0 0 0 0 0 0 0 0 0 0 5 46 78 78 80 74 44 9
5 5 5 5 0 0 0 11 5 5 65 5 5 5 94 100 100 100 48 13 100 26 15 6 0 0 0 0 0 0 0 0 0 0 0 0 5 5 26 34 43 27 5
5 5 5 5 5 5 4 4 2 22 57 92 65 15 6 92 96 100 93 67 100 3 30 73 2 0 0 0 0 2 2 0 1 1 5 3 0 1 5 5 5 5 5
100 70 5 5 5 58 22 35 34 7 63 95 100 99 5 32 85 100 100 100 100 100 100 100 28 0 0 0 0 0 2 2 17 60 5 4 4 1 0 2 5 5 5
74 32 34 33 5 5 5 11 6 9 13 4 5 5 18 24 100 100 100 99 100 100 100 100 14 12 0 0 0 0 2 4 5 3 5 8 26 7 5 4 0 1 0
5 6 24 5 5 5 5 5 5 5 5 6 1 3 5 6 64 100 100 100 100 100 70 10 15 55 21 0 0 0 0 3 5 5 61 98 100 61 100 100 80 24 27
5 4 5 5 5 3 0 4 5 5 5 5 5 4 3 5 9 82 100 100 100 100 100 76 18 41 100 0 0 0 0 5 5 1 3 5 5 32 42 55 61 30 64

GFSSE_prec_cloud_033.txt.gz
Cloud_Cover
52 14 61 70 100 98 12 66 66 16 5 77 99 46 12 5 5 5 5 5 0 1 4 0 1 0 4 11 6 0 0 0 0 0 0 0 0 0 0 0 0 1 0
11 56 14 100 100 100 6 8 5 5 5 10 34 100 83 5 5 5 5 5 0 2 100 65 64 38 83 12 7 0 0 0 0 0 0 0 0 0 0 0 0 0 0
13 5 8 25 88 99 11 13 5 3 12 15 11 97 81 4 5 0 1 2 0 75 100 100 100 99 46 4 0 0 0 0 0 0 0 0 0 0 0 0 0 75 13
5 5 5 16 8 17 17 8 7 3 3 11 11 3 7 2 0 0 0 0 0 93 100 83 76 20 0 0 0 0 0 0 0 0 0 0 0 3 0 0 0 0 1
10 5 2 5 5 4 5 5 0 1 0 0 0 10 10 0 0 0 0 0 2 8 0 0 0 0 0 0 2 0 2 0 0 2 5 2 0 0 0 3 5 1 0
36 5 32 5 5 0 5 4 4 0 0 0 26 8 0 0 0 0 0 0 0 0 0 0 0 0 0 3 0 1 4 0 5 5 0 5 68 99 38 20 50 7 61
51 6 5 3 1 3 0 1 1 1 2 20 98 2 0 0 0 0 0 0 0 1 0 2 0 0 0 0 0 0 0 3 5 5 5 16 30 6 5 12 12 15 95
51 26 5 0 5 5 0 5 4 24 14 15 0 4 2 0 0 1 0 0 0 9 10 41 8 7 3 0 0 0 0 0 5 5 30 14 23 51 73 92 75 49 85
39 43 32 5 4 5 0 5 5 24 0 0 0 0 0 0 0 8 0 0 0 8 0 1 10 14 0 0 0 0 1 4 4 20 32 22 16 41 78 54 74 16 17
42 44 41 24 5 5 5 5 5 4 0 0 2 4 0 0 0 3 0 0 0 6 3 0 0 14 0 0 0 1 2 2 22 86 84 99 93 21 74 82 100 100 99
90 78 53 62 38 77 29 46 5 5 5 4 0 1 4 0 1 2 0 0 0 4 0 0 2 0 0 0 0 0 0 10 44 19 91 69 91 98 60 61 98 97 94
100 100 100 100 84 23 13 40 5 5 5 3 3 0 1 5 5 5 5 3 0 0 0 0 0 0 0 0 2 5 5 33 20 4 4 5 54 92 93 100 100 98 35
100 100 100 100 100 26 5 15 26 16 16 10 3 0 4 12 12 14 21 12 7 5 0 0 0 0 0 0 0 5 8 2 0 0 5 0 2 31 98 63 76 21 11
100 100 100 100 100 38 5 7 5 6 85 27 11 3 9 21 34 31 34 23 22 8 5 0 0 0 0 0 0 0 0 0 0 0 0 0 2 10 4 1 0 3 4
100 100 100 100 100 66 10 9 4 53 57 5 2 2 11 7 28 30 22 25 21 4 5 5 4 0 0 0 0 0 0 0 0 0 0 0 0 0 0 0 0 0 5
6 44 92 100 100 70 36 16 2 11 28 3 1 0 0 0 2 23 21 20 16 5 5 5 0 0 1 0 0 0 0 0 0 0 0 0 0 0 0 0 0 3 5
5 5 8 76 95 72 45 28 0 0 4 1 0 0 0 0 0 0 9 19 1 5 5 0 0 0 0 0 0 0 0 0 0 0 0 0 0 0 5 5 5 5 5
5 11 5 5 53 45 49 47 14 0 0 5 1 0 0 0 0 0 0 2 2 3 1 0 0 0 0 0 0 0 0 0 0 0 0 0 0 0 5 5 94 97 98
5 10 73 7 5 20 31 22 4 0 1 5 18 4 0 0 0 0 0 0 0 0 22 49 10 0 0 0 0 0 0 0 0 0 0 0 0 0 0 5 10 5 21
83 5 5 8 5 5 5 44 38 6 5 11 8 22 5 5 10 5 64 52 2 72 100 100 48 0 0 0 0 0 0 0 0 0 0 0 0 0 0 0 0 0 0
92 8 5 5 41 100 76 74 91 25 9 2 3 4 5 5 5 5 15 100 94 100 100 100 30 3 0 0 0 0 0 0 0 0 0 2 5 5 2 0 0 4 2
100 78 8 5 5 5 9 5 6 17 21 5 2 3 100 99 9 5 100 100 100 89 100 62 56 53 6 0 0 0 0 0 0 0 0 0 0 0 5 37 44 10 4
100 100 100 80 31 58 45 86 62 55 67 50 65 76 68 58 21 30 94 100 100 100 100 100 100 100 45 4 0 0 0 0 0 0 0 0 0 0 4 38 20 43 96
100 94 100 100 100 82 67 71 96 85 12 8 5 7 100 94 52 82 99 100 100 100 100 100 100 80 11 5 5 0 0 0 0 0 0 0 0 0 0 0 1 14 78
98 81 43 53 55 20 5 5 5 5 5 5 26 5 5 28 10 5 93 100 100 100 100 94 100 100 78 5 7 17 3 0 0 0 0 2 4 5 5 2 0 0 0
44 5 20 50 30 9 5 5 5 5 5 26 33 23 5 3 5 5 13 92 93 57 95 100 100 100 97 77 21 74 25 5 4 0 5 5 5 5 5 5 2 0 0

GFSSE_prec_cloud_036.txt.gz
Cloud_Cover
5 8 18 5 9 11 18 5 9 48 70 100 100 69 5 5 8 50 35 5 5 5 7 5 5 52 6 35 36 0 0 0 0 0 0 0 0 0 0 0 0 0 0
7 5 99 63 55 81 5 5 5 21 7 100 100 26 5 5 5 5 5 5 5 19 60 8 47 89 32 38 11 0 0 0 0 0 0 0 0 0 0 0 0 0 0
5 5 37 97 100 78 9 4 0 14 6 3 7 100 16 5 5 5 5 5 5 100 100 95 84 100 9 0 0 0 0 0 0 0 0 0 0 0 0 0 0 88 0
2 5 48 67 14 30 8 6 0 81 21 17 66 94 8 3 3 4 0 0 32 97 97 56 20 0 0 0 0 0 0 0 0 0 0 0 0 3 0 0 0 0 0
4 5 8 91 93 23 16 21 12 9 80 8 0 5 11 0 0 0 0 0 9 45 2 0 0 0 0 0 0 0 0 0 0 0 0 0 0 21 2 7 0 4 0
35 2 4 9 29 17 78 5 5 5 5 0 71 27 0 0 0 0 0 0 13 0 0 0 0 0 0 0 0 0 0 0 0 0 0 0 26 56 0 2 9 11 45
38 6 40 39 5 4 5 67 6 5 33 1 82 7 0 0 0 0 0 0 0 0 0 0 0 1 8 8 10 0 0 0 0 0 0 0 0 0 0 0 6 40 60
60 7 11 7 5 5 5 5 5 2 4 33 98 6 19 7 0 0 0 0 1 12 16 10 8 5 10 8 0 0 0 0 0 0 0 0 0 2 5 5 7 46 97
59 36 8 2 5 4 4 3 4 9 22 80 18 2 3 0 3 6 0 0 0 8 1 0 0 13 8 0 0 0 0 0 0 0 5 4 0 0 5 61 19 42 52
62 40 32 21 5 2 5 5 4 75 5 5 5 0 5 1 0 0 0 0 0 4 0 0 0 0 0 0 0 0 0 0 0 0 0 0 0 4 19 13 52 29 5
96 79 62 45 26 17 5 6 55 8 4 5 5 5 0 4 4 65 5 5 2 0 5 6 14 0 0 0 0 0 0 0 0 0 5 3 4 23 26 35 65 22 5
100 96 94 82 63 27 77 75 48 80 5 3 5 5 5 2 4 5 1 5 5 4 0 3 3 0 0 0 0 0 0 0 0 0 0 4 4 23 8 86 62 8 1
100 100 100 36 52 43 22 69 62 85 22 63 87 26 5 21 34 22 18 15 6 5 6 5 0 0 0 0 0 0 0 0 0 5 0 0 1 12 0 56 5 0 2
100 100 100 100 100 77 13 16 69 61 27 94 100 43 67 39 40 32 36 27 23 22 5 0 5 3 0 0 0 0 0 0 0 0 0 0 0 1 0 0 0 0 0
100 100 100 100 100 100 62 12 9 37 7 90 91 55 6 25 42 34 34 34 28 12 4 0 5 5 0 0 0 0 0 0 0 0 0 0 0 0 0 0 0 0 0
59 98 100 100 100 100 100 30 2 0 1 6 24 21 13 6 27 34 38 33 29 12 0 0 5 4 0 0 0 0 0 0 0 0 0 0 0 0 0 0 0 0 0
100 73 91 100 100 100 100 66 10 4 0 0 5 5 7 3 0 18 29 33 24 12 2 0 5 0 0 0 0 0 0 0 0 0 0 0 0 0 0 0 0 0 0
13 5 23 79 100 100 100 100 50 5 1 4 4 3 0 0 0 8 27 19 10 1 5 5 3 0 0 0 0 0 0 0 0 0 0 0 0 0 0 0 0 0 0
33 50 24 10 62 96 100 100 86 42 7 5 5 5 4 4 5 4 3 8 0 0 2 1 65 18 0 0 0 0 0 0 0 0 0 0 0 0 0 0 0 0 0
100 100 100 92 30 50 77 100 100 95 50 9 3 5 4 3 1 2 0 0 2 0 0 90 100 100 27 6 26 5 5 0 0 2 0 0 0 0 0 0 0 0 0
100 100 100 100 100 100 100 100 100 100 100 59 27 5 6 5 5 0 0 2 4 6 83 34 100 100 67 18 49 5 5 5 5 0 0 0 0 0 0 0 0 0 0
100 100 100 100 100 100 100 100 100 100 100 100 52 14 5 5 4 5 5 12 65 97 100 86 69 97 36 6 25 96 79 29 5 5 3 1 0 0 0 0 0 0 0
89 100 100 100 85 41 71 100 100 100 100 100 94 52 26 5 5 4 5 5 98 100 100 100 93 100 94 41 98 52 96 93 41 6 5 5 0 0 0 0 0 0 0
100 100 100 100 100 100 99 100 100 100 100 100 100 100 81 64 5 5 7 18 96 60 100 100 100 100 100 71 92 100 100 100 100 8 5 5 2 0 3 0 0 0 0
73 100 100 100 100 100 100 100 82 46 100 100 100 100 100 98 89 8 15 91 100 100 91 85 100 100 100 100 100 78 38 68 100 88 74 13 6 4 5 5 0 0 0
24 96 100 100 100 100 100 93 44 23 44 74 98 96 96 63 16 82 100 86 95 100 100 100 100 100 100 100 100 100 95 85 100 100 100 96 13 24 5 5 5 5 5

GFSSE_prec_cloud_039.txt.gz
Cloud_Cover
0 2 64 5 94 5 5 5 11 13 26 100 100 83 5 7 5 5 5 2 0 0 1 5 81 0 44 99 16 3 73 25 0 0 0 0 0 0 0 0 0 0 0
0 3 0 48 100 5 11 2 4 5 7 100 100 100 24 4 5 5 5 1 5 2 0 14 58 34 26 60 0 0 0 0 0 0 0 0 0 0 0 0 0 0 1
4 6 0 33 2 1 38 2 0 0 5 98 90 84 20 5 4 3 4 5 3 72 4 60 92 44 31 0 0 0 0 0 0 0 0 0 0 0 0 0 0 0 0
1 2 3 99 100 8 0 3 3 3 2 0 65 34 2 0 0 0 0 0 0 68 93 100 100 63 0 0 0 0 0 0 0 0 0 0 3 4 0 0 0 0 0
4 3 3 100 100 72 11 14 0 7 12 3 16 0 9 0 0 0 0 1 91 23 68 19 1 0 0 0 0 0 0 0 0 0 0 0 0 38 28 23 0 0 0
5 5 5 100 100 10 0 16 5 1 6 3 2 0 0 2 0 0 2 0 0 0 0 0 0 0 0 0 7 0 0 0 0 0 0 0 39 18 0 2 10 44 8
39 5 38 100 28 5 4 0 3 3 4 39 12 6 5 4 1 0 1 4 0 0 0 0 0 0 0 3 9 0 0 0 0 0 0 0 0 0 0 4 73 100 18
19 34 73 98 1 5 5 5 4 4 2 2 100 2 15 6 5 5 3 4 6 3 1 1 0 2 1 1 0 0 0 0 0 0 0 0 0 0 2 8 29 92 97
91 30 20 26 5 5 5 5 5 2 0 100 94 27 7 5 5 5 0 2 14 32 34 0 5 11 0 0 0 0 0 0 0 0 0 0 0 2 6 22 47 38 26
71 23 12 20 12 12 5 4 3 3 46 97 100 85 1 0 0 0 1 5 9 4 2 0 15 0 0 0 0 0 0 0 0 0 0 0 0 56 45 24 30 48 4
99 66 50 35 24 5 5 5 5 14 14 9 80 15 0 0 1 11 0 0 2 2 1 0 17 0 0 0 0 0 0 0 0 0 0 0 7 8 64 65 87 14 0
100 100 89 80 70 61 72 6 5 49 10 30 3 4 5 2 0 0 6 2 3 5 30 6 1 0 0 0 0 0 0 0 0 0 0 6 9 12 17 0 88 1 0
100 100 100 100 100 100 25 7 61 93 91 80 36 68 17 5 2 2 48 29 7 13 0 5 4 2 3 0 0 0 0 0 0 0 0 35 3 10 1 0 19 0 0
100 100 100 100 87 65 56 12 16 98 98 100 85 82 94 6 31 53 53 39 26 26 1 0 5 0 5 5 0 0 0 0 0 0 0 0 0 0 0 0 0 0 0
100 100 100 100 100 86 65 70 10 21 80 100 100 64 66 73 50 67 62 46 37 24 0 0 2 3 2 1 0 0 0 0 0 0 2 0 0 0 0 0 0 0 0
59 74 100 100 100 100 100 84 42 1 9 40 34 67 5 6 75 44 59 50 42 9 0 0 0 0 0 1 0 0 0 0 0 0 0 0 0 0 0 0 0 0 0
6 5 5 65 100 100 100 100 92 38 4 0 5 12 5 5 13 5 28 52 23 0 0 0 2 0 0 0 0 0 0 0 0 0 0 0 0 0 0 0 0 0 0
4 5 5 3 44 100 100 93 100 78 22 5 5 16 14 5 4 5 20 31 14 0 0 0 0 4 0 0 0 0 0 0 4 1 0 0 0 0 0 0 0 0 0
3 5 5 5 9 80 100 100 98 100 73 14 90 69 5 6 5 5 8 5 14 0 0 0 0 1 0 5 0 0 0 0 0 3 0 0 0 0 0 0 0 0 0
91 90 93 44 5 36 73 100 100 100 100 87 40 98 100 100 100 67 10 5 7 3 2 0 4 6 2 27 6 5 5 4 0 0 2 5 5 4 2 0 0 0 0
100 100 100 100 100 100 100 100 100 100 100 100 92 60 71 75 100 99 64 9 5 30 5 5 4 6 68 97 34 5 16 7 5 5 5 5 5 5 5 5 4 0 0
100 100 100 100 100 100 100 40 51 73 100 100 100 96 41 71 59 81 98 78 44 8 7 11 12 32 91 100 100 47 98 64 51 8 5 10 10 7 18 5 5 5 5
93 100 100 100 100 100 100 100 100 100 100 100 100 100 100 59 88 74 42 66 83 82 98 100 100 100 100 100 100 100 100 99 89 87 94 90 100 100 88 54 70 9 5
69 100 100 100 100 100 100 100 100 100 100 100 100 100 100 100 94 31 81 97 100 100 100 100 99 100 97 100 100 100 100 100 100 100 80 74 60 69 98 94 69 40 5
47 55 100 100 100 100 100 100 100 100 100 100 100 100 100 100 100 100 44 100 100 100 100 100 100 100 100 100 100 100 100 100 100 100 100 76 76 94 69 60 36 7 5
92 44 46 71 100 100 100 100 100 100 100 100 100 100 100 100 100 100 100 100 100 100 74 94 100 100 98 100 100 100 100 100 100 100 100 100 100 100 100 78 85 99 7

GFSSE_prec_cloud_042.txt.gz
Cloud_Cover
5 5 5 5 5 5 5 0 2 2 6 100 100 97 50 50 90 45 5 55 64 6 38 2 4 15 21 72 5 0 0 0 0 0 0 0 0 0 0 0 0 0 0
3 1 0 55 11 1 5 5 2 0 47 100 100 100 30 5 5 5 5 7 22 0 5 36 15 6 3 0 0 0 0 0 0 0 0 0 0 0 0 0 0 0 0
0 6 5 97 0 0 1 1 0 3 50 77 98 93 21 5 4 0 0 8 2 3 3 78 19 15 0 0 0 0 0 0 0 0 0 0 0 0 0 0 0 0 0
0 4 8 38 0 0 14 3 0 0 0 0 48 33 0 0 0 2 3 17 8 81 57 85 84 17 0 0 0 0 0 0 0 0 0 0 0 0 2 0 0 0 0
0 0 4 65 6 27 0 0 0 1 0 74 2 3 4 4 4 0 1 23 19 96 100 72 7 0 0 0 0 0 0 0 0 0 0 42 84 43 30 1 15 0 0
0 1 1 100 98 5 4 6 34 17 62 91 0 0 0 0 0 2 5 5 5 50 6 5 0 1 4 1 5 0 0 0 0 0 11 4 99 0 0 10 6 68 9
5 5 9 100 100 26 2 5 46 2 97 2 0 0 3 1 0 0 0 2 3 5 5 3 5 3 2 8 1 0 0 0 0 0 7 14 66 0 0 23 3 19 64
12 5 22 100 100 62 5 5 1 1 5 22 4 3 0 0 0 0 0 0 2 4 5 5 5 4 11 0 0 0 0 0 5 8 1 19 1 1 41 22 29 94 83
86 45 13 61 21 5 53 5 5 3 5 11 94 5 0 0 0 0 0 2 0 8 44 1 15 1 0 0 0 0 0 0 0 0 0 0 0 43 43 25 63 76 43
100 100 100 76 25 64 54 5 5 4 5 97 100 92 7 0 0 0 0 3 4 79 0 13 8 0 0 0 0 0 0 0 0 0 0 0 73 77 30 30 44 78 15
29 9 13 10 5 12 5 8 5 4 12 83 100 100 6 2 0 10 0 0 4 63 3 17 1 0 0 0 0 0 0 0 0 0 0 37 4 16 43 75 82 74 19
100 30 60 73 30 7 5 5 5 5 9 77 79 48 5 2 0 0 0 5 1 0 18 24 0 0 0 0 0 0 0 0 0 0 2 0 3 23 24 0 0 4 0
100 100 42 12 5 5 5 42 97 100 100 100 22 16 6 5 22 47 82 6 0 13 67 20 0 0 0 4 3 0 0 0 0 0 2 0 5 19 2 3 0 0 0
100 100 100 95 74 34 40 24 59 73 74 86 41 51 26 5 25 17 41 95 9 0 15 7 0 0 0 0 0 0 0 0 0 0 8 0 0 0 0 0 0 0 0
77 100 100 100 100 95 24 16 16 25 18 77 10 82 5 9 5 10 33 100 26 7 0 0 2 0 0 2 0 2 0 0 0 0 0 0 0 0 0 0 0 0 0
86 15 98 100 100 100 100 98 20 20 5 5 61 53 64 15 5 7 43 100 75 26 5 2 0 0 0 0 0 0 0 0 0 0 0 9 0 0 0 0 0 0 0
84 84 10 18 30 61 100 100 100 68 37 5 14 19 74 7 62 6 5 63 52 41 10 5 0 1 2 5 0 0 0 0 0 0 0 0 0 0 0 0 0 0 0
5 18 100 100 90 88 94 100 100 100 98 30 12 13 8 24 79 5 10 5 15 33 26 5 5 5 5 5 0 2 0 0 2 5 0 0 0 0 0 0 0 0 4
27 13 36 22 12 5 5 93 100 83 100 47 54 18 5 18 10 91 99 100 76 43 19 5 5 5 5 20 5 5 3 5 1 0 0 0 0 0 0 0 0 0 0
50 79 4 5 0 1 4 67 100 100 100 89 51 61 74 30 24 90 99 100 100 69 52 55 25 36 5 20 46 26 54 5 9 49 5 13 5 5 0 0 0 0 0
16 5 5 94 100 10 51 100 100 100 100 100 100 98 90 100 63 33 20 19 80 100 97 100 100 100 100 31 24 12 42 100 100 100 100 66 98 91 55 5 5 5 1
100 100 89 98 100 100 84 54 12 58 100 100 100 100 100 100 97 38 66 91 100 84 68 93 70 85 99 100 100 100 100 100 100 100 100 100 100 100 56 18 12 12 13
96 100 100 95 100 100 100 100 100 74 100 91 100 100 96 90 76 62 92 98 100 100 87 97 88 87 83 100 100 100 100 96 97 97 85 100 100 100 100 100 66 23 24
64 10 95 100 100 100 100 100 100 100 100 98 92 98 90 100 100 100 100 100 100 100 100 100 99 98 44 100 100 100 100 100 100 100 99 100 100 100 100 100 85 92 100
5 5 6 59 100 100 100 100 100 100 100 100 100 100 100 100 100 100 100 100 100 100 100 100 100 100 100 100 97 100 100 100 100 100 100 100 100 100 100 100 100 100 100
7 5 5 8 84 98 100 100 100 100 100 100 100 100 100 100 100 100 100 100 100 100 100 100 100 100 100 100 100 100 100 100 100 100 100 100 100 100 100 100 100 100 100

GFSSE_prec_cloud_045.txt.gz
Cloud_Cover
4 4 0 0 44 4 2 4 5 5 48 41 27 73 34 5 5 5 5 5 5 39 56 73 46 5 4 2 0 4 0 31 15 0 0 0 0 0 0 0 1 9 0
0 0 0 0 0 0 1 1 2 0 6 100 100 72 12 5 5 5 5 5 6 23 9 35 3 9 0 0 0 0 0 0 0 0 0 0 0 0 0 0 0 0 0
0 5 0 0 0 0 0 0 0 0 56 89 100 100 22 5 5 3 5 5 5 2 15 76 17 3 0 0 0 0 0 0 0 0 0 0 0 0 0 0 0 0 0
2 6 4 2 0 0 0 0 0 0 23 0 0 18 0 0 0 0 14 32 35 33 32 22 0 0 0 0 0 0 0 0 0 0 13 15 30 5 2 0 0 0 0
5 2 6 43 2 42 8 0 0 0 0 25 0 0 0 0 0 0 27 23 36 26 100 77 1 0 0 0 3 5 0 0 0 3 34 58 85 5 1 7 5 0 0
0 0 1 30 0 16 0 0 19 15 72 68 0 0 0 0 4 2 26 0 0 49 0 0 0 0 0 0 0 4 0 0 0 17 33 8 83 0 4 12 1 3 4
0 0 3 9 6 22 4 0 64 95 100 0 0 0 0 3 8 12 4 0 0 0 0 0 0 0 3 15 3 2 0 0 20 20 15 90 34 0 5 16 6 71 97
0 13 22 99 67 94 70 5 41 96 100 65 0 2 3 3 0 1 0 2 0 2 2 2 2 6 5 3 5 0 0 0 36 15 16 16 0 11 18 0 5 78 29
0 0 19 66 100 100 33 42 5 6 33 97 38 8 5 5 2 5 2 0 0 1 1 9 4 0 0 0 4 0 0 0 12 4 0 4 0 29 26 0 62 83 30
6 0 2 8 47 43 12 5 5 5 5 5 96 87 1 4 3 1 0 0 0 0 0 20 0 0 0 0 0 0 0 0 0 0 0 0 0 99 26 15 16 100 32
10 10 33 100 100 100 100 97 75 53 5 30 100 100 0 0 0 0 0 0 0 55 30 13 0 0 4 2 0 0 0 0 0 0 0 0 15 30 19 0 1 97 23
9 8 7 5 5 9 24 26 9 5 5 99 100 100 6 17 16 8 5 5 1 4 5 9 4 13 2 0 0 0 0 0 0 0 0 0 0 17 6 0 0 5 0
72 21 6 12 13 26 32 13 5 5 5 24 75 96 15 54 68 10 11 5 4 13 22 16 30 5 0 0 0 0 0 0 0 0 0 0 8 21 4 0 0 0 0
54 95 8 6 9 16 7 5 5 6 48 22 7 43 9 8 14 11 52 40 5 5 18 15 7 2 1 0 0 0 0 0 0 0 0 0 0 0 0 0 0 0 0
5 22 82 25 33 18 14 17 8 14 41 62 59 62 5 6 16 17 28 39 40 26 9 20 11 0 0 0 0 0 0 0 0 0 0 0 0 0 0 0 0 0 0
5 13 21 91 100 76 21 21 31 36 43 62 35 5 5 30 7 8 18 32 97 36 20 5 0 0 0 0 3 5 5 5 5 5 0 0 5 3 2 2 0 0 0
46 40 8 5 12 67 100 96 49 18 93 33 46 36 5 5 66 5 63 8 90 39 39 25 5 4 0 3 5 5 11 5 5 3 5 5 5 4 5 0 0 0 0
100 98 82 80 74 36 16 100 100 100 72 71 60 73 58 12 5 5 8 7 56 41 20 51 73 48 5 5 19 36 5 8 5 5 5 5 5 0 1 0 0 0 1
82 84 85 100 100 100 99 96 92 100 100 74 64 37 23 79 41 6 6 44 14 7 59 59 8 5 99 99 100 100 100 93 82 76 14 9 5 26 18 5 5 6 62
24 99 100 100 100 99 97 81 29 39 100 100 68 40 36 17 37 51 5 6 5 60 99 19 30 28 89 43 28 100 100 100 100 99 70 100 100 100 67 85 100 100 96
5 11 28 93 54 36 8 5 5 9 36 100 99 5 97 87 62 45 64 7 33 29 100 94 59 82 52 11 60 23 8 94 100 100 100 100 100 100 100 100 61 90 27
96 100 100 99 69 100 78 81 5 95 80 96 100 100 81 7 93 68 96 100 100 100 100 100 99 19 87 49 52 75 96 81 92 88 100 100 100 100 100 94 62 98 100
98 71 100 99 47 15 14 25 8 11 3 6 14 100 100 97 45 98 91 71 43 80 90 100 85 94 96 72 96 100 100 100 100 100 100 100 100 100 100 100 100 100 100
100 100 100 100 100 79 78 21 18 5 15 93 98 76 46 22 99 13 100 100 100 96 99 100 99 92 45 90 59 93 70 99 100 100 100 100 100 100 100 100 100 100 100
100 99 100 100 98 99 99 100 77 34 54 99 100 100 100 100 82 99 98 100 100 100 100 100 100 100 100 100 100 100 100 100 100 100 100 100 100 100 100 100 100 100 100
99 100 82 96 100 100 100 63 5 21 57 65 100 100 100 100 100 100 100 100 100 100 100 100 100 100 100 100 100 100 100 100 100 100 100 100 100 100 100 100 100 100 100

GFSSE_prec_cloud_048.txt.gz
Cloud_Cover
0 0 0 0 1 5 5 5 7 5 5 56 5 14 19 0 0 2 5 6 5 6 47 8 13 9 10 5 0 0 0 37 12 0 0 0 0 0 0 0 0 0 3
0 0 0 0 31 5 6 5 4 4 95 100 100 66 25 3 0 1 4 5 5 5 8 4 5 4 0 0 0 0 0 0 0 0 0 0 0 0 0 0 0 0 0
0 0 0 0 0 0 0 0 0 4 97 99 100 100 0 0 0 0 0 0 0 0 60 19 3 0 0 0 0 0 0 0 0 0 0 2 0 0 0 0 0 0 0
0 0 0 2 0 0 0 0 0 59 26 72 4 2 0 0 0 5 29 13 9 5 17 0 0 0 0 0 0 0 0 0 0 21 100 100 0 9 12 1 0 0 1
0 4 0 0 0 0 0 0 0 39 2 0 0 0 0 0 0 61 73 24 100 97 99 0 0 0 0 0 0 0 0 0 4 77 0 34 0 8 7 20 3 3 0
0 0 0 0 0 0 0 0 0 29 65 0 0 0 0 0 0 13 21 24 6 0 1 0 0 0 0 0 0 0 0 0 0 100 97 28 0 1 14 19 28 55 49
0 0 0 0 4 0 0 0 0 43 100 17 0 0 0 1 1 12 8 5 5 0 0 0 0 0 2 0 0 0 0 0 0 72 0 1 0 0 84 62 2 65 76
0 0 0 14 11 60 0 0 10 97 99 82 2 1 5 4 5 6 5 5 5 0 0 0 2 0 0 0 0 0 0 0 43 0 0 0 0 20 21 0 0 0 40
0 0 0 7 100 100 2 4 54 80 100 97 10 5 5 5 5 5 5 2 0 0 4 9 1 0 0 0 0 2 0 0 5 4 0 0 0 38 54 0 0 82 37
0 0 0 4 68 72 5 5 1 3 5 88 89 63 99 93 30 5 5 5 5 0 0 2 0 0 0 0 0 0 0 2 0 0 0 0 1 59 93 0 0 85 33
0 1 0 0 0 0 0 0 0 74 100 100 100 100 100 99 40 5 4 2 0 0 0 2 1 4 5 0 4 0 0 2 4 0 0 0 10 33 45 0 0 12 14
11 2 0 0 0 0 0 1 2 39 39 37 79 86 65 6 5 3 0 4 5 2 0 0 0 0 0 3 5 4 0 0 0 0 0 0 3 17 0 0 0 0 0
5 40 0 0 0 0 2 0 1 5 5 4 5 47 63 6 5 5 0 1 1 22 1 0 5 4 5 5 5 0 0 0 0 0 5 5 4 23 0 0 0 0 0
100 86 52 46 32 12 4 4 4 5 5 9 5 4 5 5 5 3 4 5 5 5 5 5 4 5 5 3 0 0 0 0 0 2 0 0 0 0 0 0 4 1 4
100 100 100 100 100 86 34 40 62 38 54 8 6 6 5 7 5 5 5 5 5 5 5 5 5 4 0 0 0 0 0 1 2 0 0 0 0 5 0 0 5 5 2
100 100 100 100 100 100 100 91 92 82 48 8 8 46 5 47 44 5 35 38 5 5 5 5 17 1 0 0 0 2 4 5 4 5 5 1 5 5 3 0 5 5 4
96 100 100 100 100 100 87 8 10 48 100 27 5 59 40 15 23 11 34 6 5 5 5 5 5 5 5 6 12 5 63 13 29 6 74 33 5 26 60 15 83 5 5
5 83 100 90 100 100 100 100 61 67 100 82 99 80 28 5 24 5 5 5 4 2 5 34 11 5 5 8 97 97 35 19 77 99 94 100 100 100 100 81 6 12 6
100 100 100 100 100 100 100 78 46 72 87 95 100 100 94 28 5 0 0 1 2 5 4 7 5 19 6 24 100 100 100 100 55 82 54 16 79 54 58 77 38 93 49
100 100 100 100 100 100 100 100 100 100 100 78 86 97 48 59 4 5 4 1 0 0 2 5 5 30 75 54 100 100 100 100 100 98 45 72 8 52 99 100 100 100 100
100 100 100 100 100 100 100 100 100 100 100 98 100 18 5 27 67 5 5 5 5 2 5 5 5 80 23 5 28 100 33 29 100 100 100 37 90 92 100 100 100 100 100
97 95 99 74 72 93 83 68 32 33 100 100 8 5 4 0 42 95 13 4 5 5 7 25 64 87 62 34 32 81 85 86 100 100 95 58 100 100 100 100 100 100 100
75 77 16 54 87 94 49 5 45 15 3 22 30 5 0 1 3 17 94 100 36 5 24 58 86 100 99 100 91 74 44 67 95 100 100 100 100 100 100 100 100 100 100
100 100 100 100 100 100 59 24 10 19 65 12 7 4 2 5 1 0 0 13 100 97 56 86 83 94 100 100 100 100 100 100 100 100 100 100 100 100 100 100 100 100 100
100 100 100 100 100 100 98 98 75 80 20 6 12 7 5 6 5 16 12 5 60 100 100 100 11 86 48 10 66 91 97 99 100 100 100 100 100 100 100 100 100 100 100
100 100 100 100 100 100 96 100 100 97 79 98 7 5 5 5 5 19 47 5 74 100 100 100 100 100 100 97 100 100 100 100 100 100 100 100 100 100 100 100 100 100 100

GFSSE_prec_cloud_051.txt.gz
Cloud_Cover
4 0 0 0 0 5 5 5 5 2 5 3 4 17 28 10 0 0 0 0 4 54 4 15 14 0 2 2 0 2 0 0 0 0 0 0 0 5 2 1 0 3 14
1 0 0 0 2 5 0 5 0 5 95 8 90 91 33 2 0 4 0 0 0 18 0 0 0 0 0 0 0 0 0 0 0 0 0 0 0 0 0 0 0 0 10
0 0 0 28 0 0 0 0 5 46 92 100 100 57 0 0 0 0 0 0 2 45 12 3 2 0 0 0 0 0 0 0 0 0 0 0 0 1 0 0 0 0 0
0 0 4 0 0 0 0 0 54 55 66 69 0 0 0 0 15 57 21 0 6 24 1 0 0 0 0 0 0 0 0 0 0 64 2 0 0 14 18 2 6 9 1
0 0 0 3 0 0 0 0 94 5 26 0 0 0 0 0 100 100 51 99 100 10 0 4 0 0 0 0 0 0 0 0 0 0 13 0 0 67 22 10 14 3 56
0 0 0 0 0 0 0 0 0 0 0 0 0 0 0 0 73 73 64 99 81 0 0 0 0 0 0 0 0 0 0 0 8 1 0 0 0 10 29 91 99 96 73
0 0 0 0 0 0 0 0 0 0 0 0 0 0 0 0 2 32 2 0 0 0 5 0 0 0 0 0 0 0 0 0 0 0 0 0 0 10 90 89 10 93 53
0 0 0 0 26 0 0 0 0 0 0 0 0 0 2 0 4 13 0 2 5 0 0 0 0 0 0 1 0 0 0 0 0 0 0 0 0 62 42 0 0 3 58
0 0 0 0 75 90 0 0 0 0 0 0 0 0 0 0 5 6 5 5 5 5 2 2 0 3 3 2 5 0 0 0 0 0 0 0 0 78 88 0 0 19 100
0 0 0 0 99 100 0 18 0 1 6 0 2 0 1 18 100 99 100 64 7 13 9 5 4 0 0 0 0 0 0 0 0 0 0 0 1 55 94 0 5 5 2
0 0 0 0 26 55 1 0 0 0 1 0 1 0 4 48 100 100 75 7 5 5 5 2 0 1 0 0 0 0 0 1 0 0 0 0 5 25 4 0 1 0 0
0 0 5 1 0 3 0 1 2 4 4 5 5 5 2 5 5 5 4 5 3 5 5 4 3 0 0 0 0 0 5 3 0 0 0 0 0 5 5 5 3 0 0
3 0 2 1 2 4 5 3 0 6 21 15 5 5 4 5 5 5 5 5 5 16 15 5 3 5 4 4 5 5 5 0 0 0 0 0 0 0 0 0 0 0 0
5 0 0 0 0 2 1 0 0 0 8 12 10 5 5 5 6 5 5 5 5 5 8 9 5 5 5 5 5 5 0 0 0 3 0 5 5 5 5 0 3 0 2
0 0 0 0 0 5 23 24 43 98 100 85 68 28 5 33 18 5 5 5 5 5 5 23 6 5 5 4 2 0 0 0 2 5 5 5 5 39 5 16 5 5 5
4 2 5 5 5 90 100 100 100 100 100 100 100 100 96 29 5 20 7 5 5 5 12 5 5 5 5 5 5 5 4 5 5 5 5 5 8 58 46 36 20 100 100
0 4 5 5 7 78 100 100 100 100 100 100 100 100 8 14 13 9 70 84 95 51 5 12 5 5 5 48 20 5 5 5 6 47 58 88 26 56 100 100 7 5 96
5 5 3 5 7 50 81 88 96 100 100 100 96 100 89 66 7 6 92 100 92 28 4 0 1 2 6 75 84 88 10 5 5 65 100 83 96 100 31 89 5 5 55
5 8 5 5 8 35 36 11 36 98 100 100 100 100 96 85 99 96 71 19 5 5 5 3 3 3 3 11 70 62 67 11 36 62 100 100 100 39 78 91 28 90 91
21 5 19 66 67 6 72 100 100 100 100 100 100 100 100 100 100 6 5 6 16 5 8 5 4 5 5 5 5 5 5 13 10 55 79 100 100 100 100 75 100 100 99
100 100 70 100 100 100 100 64 96 100 100 100 100 100 100 100 99 28 70 91 27 8 5 5 5 3 5 5 22 36 61 100 88 100 70 56 100 100 100 100 100 97 97
100 100 95 99 100 100 100 100 100 100 100 100 100 86 38 54 32 5 53 99 90 3 0 1 1 5 100 89 56 20 48 71 100 100 100 100 100 100 100 100 100 100 100
100 100 100 100 100 100 100 100 100 100 100 100 100 70 5 2 0 5 7 5 9 24 18 17 1 3 50 85 76 13 5 3 4 31 98 100 100 100 100 100 100 100 100
100 100 100 100 100 100 100 100 86 34 46 5 62 98 100 94 26 3 2 0 1 0 0 0 70 58 5 34 25 98 70 62 84 50 31 36 93 74 100 100 100 100 100
100 100 100 100 97 91 17 64 99 90 27 5 5 5 59 44 5 5 0 0 4 20 2 5 5 99 94 31 71 90 100 100 77 99 100 100 100 93 100 100 100 100 100
100 100 100 100 100 100 99 40 10 5 37 90 60 5 5 5 5 7 3 5 4 8 13 8 6 33 64 61 100 100 93 27 80 98 52 73 100 100 100 95 100 100 100

GFSSE_prec_cloud_054.txt.gz
Cloud_Cover
55 13 0 0 5 0 2 5 13 5 5 5 4 18 22 5 0 0 0 0 3 6 16 1 7 5 0 0 0 0 0 0 0 0 0 0 0 0 0 0 7 35 52
24 21 0 0 0 0 5 100 31 5 5 5 51 97 52 0 0 1 0 8 36 0 0 0 0 0 0 0 0 0 0 0 0 0 0 0 0 0 0 0 0 10 2
1 1 4 0 0 0 5 5 5 5 0 12 3 47 3 0 2 0 7 11 42 4 0 0 0 0 0 0 0 0 0 0 0 0 0 0 0 0 0 0 0 0 0
0 13 4 0 0 5 5 5 5 0 0 0 0 0 0 6 79 0 0 3 36 18 0 0 0 0 0 0 0 0 0 0 0 0 0 0 1 20 0 16 3 19 2
0 0 74 24 2 4 5 1 0 0 0 0 0 0 0 100 98 82 0 6 25 0 0 0 0 0 0 0 0 0 0 0 0 0 0 0 0 44 16 15 9 58 3
3 3 75 42 2 5 1 0 0 0 0 0 0 0 6 22 50 6 68 100 64 0 0 0 0 0 0 0 0 0 0 0 0 0 0 0 2 37 58 41 39 77 31
13 18 21 33 1 0 0 0 0 0 0 0 0 0 2 52 94 100 14 23 0 0 0 0 0 0 0 0 0 0 0 0 0 0 0 0 0 7 32 23 49 73 88
1 34 37 2 0 0 0 0 0 0 0 0 0 0 6 20 90 24 3 0 0 0 0 2 5 5 5 1 0 0 0 0 0 0 0 0 0 98 31 10 0 0 67
0 22 49 8 29 0 0 0 0 5 0 0 0 0 0 61 19 26 0 0 0 3 28 39 5 5 5 0 5 0 0 0 0 0 0 0 2 100 42 9 0 0 74
0 15 33 1 60 52 0 0 7 82 0 0 0 0 0 0 0 3 0 0 0 4 32 17 5 5 4 0 0 0 0 0 0 0 0 3 5 15 82 0 0 0 12
0 0 0 0 26 99 5 14 0 0 0 3 5 0 0 0 0 0 0 0 0 0 15 5 5 5 0 2 5 5 1 0 2 4 5 0 12 24 0 0 2 0 2
0 0 0 0 0 3 0 6 7 0 0 1 2 0 0 0 4 5 4 5 3 4 5 1 5 4 5 3 2 4 0 2 5 8 5 3 11 5 0 0 1 4 2
3 0 0 0 0 0 0 29 35 34 30 14 2 4 0 0 4 5 5 5 5 15 20 5 5 5 3 5 4 0 3 5 5 9 0 4 4 4 2 2 5 5 5
5 2 0 0 0 0 4 5 13 28 35 39 9 5 3 5 5 10 90 92 11 17 28 21 9 5 5 5 5 5 5 4 5 5 0 4 1 0 1 5 5 5 5
4 5 5 4 1 4 5 5 5 5 6 5 7 5 10 84 100 100 100 94 52 18 23 29 22 5 5 5 5 5 5 5 4 7 5 0 0 1 5 20 5 5 10
5 3 5 5 5 5 5 5 5 5 0 0 5 81 100 100 100 100 100 100 72 6 41 92 98 44 48 68 28 6 70 50 5 5 5 0 0 5 5 100 82 32 86
5 5 5 5 5 5 5 5 5 0 0 0 17 83 96 99 100 100 100 100 95 100 99 100 100 65 5 5 21 7 84 56 71 71 5 5 5 5 41 81 100 100 100
5 5 5 5 5 2 2 4 3 2 5 5 5 6 41 88 100 99 99 90 50 100 100 100 89 5 5 5 5 5 5 5 5 19 6 5 5 5 5 5 91 100 100
5 5 5 5 5 0 0 1 4 5 5 5 3 53 100 88 72 92 100 100 100 100 100 100 27 24 11 5 5 4 4 0 4 5 8 12 23 45 10 5 7 75 100
5 36 5 5 5 5 3 5 5 5 5 14 100 100 100 100 100 100 100 100 100 100 73 6 10 10 5 6 5 5 5 5 5 6 76 82 37 67 98 99 98 95 100
6 5 5 5 4 5 6 30 40 31 29 100 100 100 100 100 100 100 100 62 33 5 5 50 17 53 17 5 3 8 18 42 48 46 3 12 78 44 5 6 100 100 100
94 23 5 29 36 5 5 20 59 76 92 100 100 100 100 100 100 100 100 100 100 79 84 83 8 5 5 4 5 9 74 28 99 11 29 5 5 8 70 99 100 100 100
100 100 70 29 54 93 100 95 91 84 64 30 57 82 94 87 61 91 89 84 70 39 14 5 4 0 4 9 4 22 59 24 10 5 26 5 26 24 100 100 100 100 100
100 100 100 100 100 100 100 100 100 100 100 100 100 100 99 52 15 5 5 10 5 4 5 4 2 5 6 6 7 48 47 27 28 1 4 5 9 65 35 100 100 100 100
100 100 100 100 100 100 100 100 100 100 100 100 100 97 100 100 46 45 97 39 23 22 5 5 5 25 5 43 47 28 80 96 81 86 66 5 22 13 97 99 100 100 100
100 100 64 96 100 100 100 100 100 98 90 73 70 90 100 100 81 100 44 33 19 11 23 19 17 27 32 35 72 59 85 84 98 100 94 21 95 96 84 95 91 100 100

GFSSE_prec_cloud_057.txt.gz
Cloud_Cover
54 18 0 0 0 0 0 5 5 6 87 100 27 6 5 5 5 0 0 2 94 7 22 93 70 46 0 0 0 0 0 0 0 0 0 0 0 0 0 10 5 19 49
22 14 0 0 0 0 0 4 5 64 85 5 6 6 5 5 0 0 8 13 4 0 0 0 0 8 0 0 0 0 0 0 0 0 0 0 0 0 0 0 4 22 9
41 8 0 0 0 0 19 0 5 5 5 5 45 5 3 3 4 0 10 39 0 6 0 0 0 0 0 0 0 0 0 0 0 0 0 0 0 0 0 0 0 0 0
19 8 5 0 0 0 0 0 85 5 4 24 8 2 0 1 4 8 8 44 48 6 0 0 0 0 0 0 0 0 0 0 0 0 0 10 20 0 20 13 34 2 3
32 18 4 0 0 0 0 11 0 0 0 5 5 0 62 77 0 2 7 31 2 0 0 0 0 0 0 0 0 0 0 0 0 0 0 0 10 38 19 3 4 22 8
27 6 23 0 0 0 0 0 0 0 1 3 0 0 89 28 1 0 6 0 0 0 0 0 0 0 0 0 0 0 0 0 0 0 0 0 25 99 64 33 15 19 36
20 11 100 41 4 0 0 5 0 0 0 2 0 0 77 6 19 7 42 36 0 0 0 0 0 0 0 5 5 5 5 1 0 0 0 0 2 16 11 38 49 36 87
21 9 100 48 5 5 3 5 3 5 0 0 0 3 47 99 100 93 11 22 0 0 0 0 0 0 0 4 5 5 5 2 0 0 0 0 1 5 14 5 0 0 1
34 34 33 22 5 5 5 5 5 5 1 0 0 1 51 99 100 100 27 28 2 0 0 0 0 0 0 0 0 0 0 0 0 0 0 2 40 93 79 6 0 0 1
44 74 97 39 8 5 5 5 5 1 0 0 0 0 0 0 2 25 0 0 3 0 0 0 0 0 0 0 0 0 0 0 0 0 0 5 4 16 17 1 0 0 15
65 100 66 26 5 5 6 5 1 0 0 0 0 0 0 0 0 0 0 0 0 0 0 0 1 0 0 0 0 2 2 0 5 2 5 5 3 24 0 0 0 0 0
21 38 26 6 5 5 0 4 2 0 0 0 0 0 0 0 0 0 3 5 0 0 2 3 5 5 5 5 5 5 5 5 4 5 5 5 6 31 10 0 0 0 1
5 1 2 0 0 0 3 34 34 32 20 9 0 0 0 0 2 2 5 5 4 5 9 5 5 12 12 5 5 5 14 21 7 16 5 2 2 18 8 3 0 4 5
5 5 5 5 0 0 16 32 34 34 33 26 9 0 5 10 6 4 15 6 13 12 23 28 70 10 17 66 33 74 60 43 15 21 6 4 5 5 2 5 3 5 5
5 5 5 5 3 2 2 24 33 46 46 22 20 2 2 4 3 0 0 5 17 14 30 58 31 51 41 27 34 58 68 82 61 71 78 47 5 5 5 5 5 5 5
18 5 5 5 5 5 5 5 5 8 16 35 36 12 0 0 3 0 0 2 13 16 19 39 30 24 12 47 5 7 5 5 5 5 12 5 5 5 5 5 5 5 5
14 24 5 5 5 5 5 5 5 5 5 4 5 8 0 0 4 4 0 0 5 7 77 34 21 56 99 63 5 5 5 25 37 5 5 7 5 5 5 5 5 5 6
5 30 5 5 5 5 5 5 5 26 5 5 5 5 5 5 3 0 1 38 20 86 44 39 70 99 33 25 5 5 5 5 5 5 5 11 8 5 19 85 41 5 9
11 5 5 5 5 5 5 5 5 8 5 6 5 5 5 5 4 4 63 94 52 43 96 96 100 13 6 5 5 5 7 5 5 5 5 5 5 10 98 76 17 5 5
12 73 38 72 20 5 5 15 87 33 5 5 11 5 5 5 5 13 100 100 94 99 100 61 18 25 95 5 5 10 5 8 18 6 5 5 7 60 87 98 96 85 87
38 6 46 71 41 6 5 10 47 32 5 6 11 5 5 5 5 68 100 100 100 100 50 55 48 40 6 36 38 29 56 8 5 4 5 5 78 60 100 100 98 100 100
100 25 5 5 5 5 7 6 6 12 12 16 5 8 41 91 89 100 100 100 100 100 100 97 7 43 59 88 65 61 77 10 5 5 4 5 5 5 16 95 100 83 87
100 100 83 13 11 8 5 7 28 49 82 73 46 83 100 100 100 100 100 100 100 100 100 100 94 81 77 100 23 81 100 44 8 5 5 5 4 3 4 5 49 98 98
100 100 100 100 100 98 77 25 9 72 94 100 100 98 76 96 100 100 100 100 100 94 100 46 11 38 97 63 39 28 64 85 98 91 8 69 1 0 4 5 5 91 78
74 100 100 100 100 100 100 100 100 100 97 100 100 100 100 92 9 5 6 31 43 40 31 23 32 99 19 19 58 91 100 100 100 100 100 96 50 83 4 70 95 13 86
63 54 91 100 100 100 100 100 100 100 100 100 100 100 100 99 85 99 100 100 98 96 73 33 39 26 52 38 70 92 100 100 99 99 100 85 99 37 89 60 26 96 26

GFSSE_prec_cloud_060.txt.gz
Cloud_Cover
20 14 0 0 0 5 5 26 73 30 29 44 99 100 80 49 36 5 4 28 3 3 100 100 99 39 0 0 0 0 0 0 0 0 0 0 0 23 35 10 0 89 11
3 20 0 0 0 0 0 3 2 0 0 12 5 8 100 11 5 5 10 6 0 0 0 4 36 0 0 0 0 0 0 0 0 0 0 0 0 0 0 0 3 3 1
17 13 0 0 0 0 0 9 23 67 15 14 7 5 5 5 5 6 16 0 7 1 0 0 0 0 1 0 0 0 0 0 0 0 0 0 0 0 2 0 5 1 0
43 6 0 0 0 0 0 0 10 4 0 0 2 5 6 5 16 17 16 0 15 0 0 1 0 0 0 0 0 0 0 0 0 0 0 0 0 20 6 85 26 10 0
45 14 0 0 0 0 0 0 0 0 0 0 0 3 19 5 18 9 15 0 2 0 0 0 0 0 0 0 0 0 0 0 5 0 0 3 14 49 5 7 14 16 8
68 16 0 4 0 0 0 0 0 0 0 0 0 2 100 24 9 22 23 0 0 0 0 0 0 0 0 0 0 0 0 0 0 0 0 1 48 38 68 8 50 52 51
43 4 2 0 0 0 0 0 0 0 0 0 0 90 100 5 0 22 94 20 0 0 0 0 0 0 0 0 0 0 0 0 0 0 0 0 22 34 83 43 7 21 77
24 6 97 14 0 0 0 0 0 1 5 5 3 26 37 40 63 11 19 0 0 0 0 0 0 0 0 0 0 0 0 0 0 0 0 0 5 5 27 6 0 0 0
72 40 100 18 0 0 0 1 2 4 5 5 5 3 12 51 100 100 42 10 20 0 0 0 0 0 0 0 0 0 0 0 0 0 5 2 41 22 4 3 0 0 0
53 25 32 40 28 21 2 5 5 5 5 5 5 5 5 5 0 4 0 0 0 0 0 0 0 0 0 0 0 0 3 5 4 5 6 46 5 24 5 0 0 0 0
95 54 92 71 34 21 17 5 5 5 5 5 5 5 5 0 0 0 0 0 0 0 0 0 0 0 0 2 1 1 6 5 5 48 21 5 5 5 5 0 3 0 0
100 100 100 47 17 21 5 22 8 5 5 5 5 5 0 0 0 0 0 0 0 0 0 2 0 4 3 4 5 6 5 5 5 8 8 5 5 5 5 5 0 0 1
58 98 79 30 5 11 5 37 36 30 16 7 5 0 0 0 7 10 10 2 2 5 7 2 0 2 4 4 5 5 5 14 8 5 5 5 5 7 19 5 1 0 0
42 15 14 5 10 7 22 35 34 39 26 25 7 0 3 11 8 13 20 0 10 11 12 20 26 3 0 0 2 5 5 10 5 5 6 5 5 5 11 5 5 2 0
100 100 38 5 5 9 10 39 43 38 36 16 13 4 8 4 2 0 4 3 12 11 21 26 42 22 4 3 3 5 5 5 5 5 16 5 2 5 5 5 5 2 0
100 74 68 8 14 29 10 14 33 39 35 36 29 14 5 6 4 4 1 4 0 15 11 21 26 30 22 5 5 5 17 34 5 5 7 3 5 5 5 5 8 11 21
94 100 90 28 6 10 5 5 14 18 20 48 45 34 7 5 5 5 5 6 5 6 1 13 21 20 31 10 12 28 42 5 5 5 5 6 5 5 5 5 5 8 23
67 5 5 5 5 15 5 5 5 5 5 5 10 22 29 11 8 6 8 7 5 6 6 9 6 53 52 23 53 18 5 5 30 5 5 5 9 5 5 5 5 5 5
66 5 5 5 5 5 6 25 6 5 5 5 5 5 5 5 5 5 5 5 5 7 14 7 8 10 99 77 53 46 5 18 5 5 14 13 9 5 13 5 5 5 5
26 10 6 5 5 5 5 12 28 71 56 29 5 5 5 5 5 22 5 5 7 12 13 19 10 98 100 55 41 22 5 5 5 29 9 16 47 15 14 5 5 5 5
100 100 97 39 7 5 5 31 55 56 96 96 84 58 39 29 5 5 5 43 10 5 19 62 100 99 100 74 8 22 25 13 32 44 39 5 5 5 9 5 5 5 5
100 100 100 100 100 79 32 8 69 100 100 100 100 80 63 59 20 13 7 5 6 5 45 100 100 99 98 28 60 93 100 100 96 87 5 5 5 5 3 9 5 5 5
100 100 100 100 100 100 100 100 98 100 98 81 57 70 51 33 41 52 43 65 65 99 100 98 62 99 68 100 100 100 100 100 92 89 68 5 5 5 42 5 56 37 32
100 100 100 100 100 100 100 100 100 100 77 62 44 60 79 43 61 99 100 100 100 100 100 100 100 100 100 100 100 100 94 100 100 100 98 93 100 42 5 51 99 32 72
96 100 100 100 100 100 100 100 100 100 100 100 100 100 100 100 100 100 100 100 100 100 100 100 100 100 100 100 100 100 100 95 87 99 100 100 100 78 59 5 99 93 58
71 73 100 96 100 100 100 100 100 100 100 100 100 100 100 100 99 100 100 100 100 100 100 100 100 100 98 72 81 98 92 100 100 100 100 100 100 82 64 11 46 34 8

GFSSE_prec_cloud_063.txt.gz
Cloud_Cover
0 2 1 0 0 0 2 100 100 97 97 69 0 13 93 100 100 84 55 93 32 100 91 37 100 25 0 0 0 0 0 0 0 0 0 0 30 56 12 0 1 33 11
0 29 0 0 0 0 0 16 0 0 1 22 1 0 6 67 100 100 99 95 5 5 18 100 19 10 3 0 0 0 0 0 0 0 0 0 0 0 0 0 0 5 4
9 31 0 0 0 0 0 0 0 0 1 0 0 0 5 5 2 21 3 3 5 4 0 0 12 0 6 0 0 0 0 0 0 0 0 0 18 15 23 0 2 3 4
28 29 0 10 0 0 0 3 0 2 5 0 0 0 1 11 10 24 1 48 4 4 0 0 2 6 1 0 0 0 0 0 0 0 12 0 36 12 72 96 7 5 6
37 14 0 0 0 0 0 0 0 0 0 0 0 0 0 16 11 19 17 10 1 5 0 0 0 0 0 0 0 0 0 0 0 1 27 44 42 11 69 27 67 67 10
48 16 2 0 38 0 0 0 0 0 0 0 0 75 0 6 7 41 12 0 0 0 0 0 0 0 0 0 0 0 0 0 0 0 7 11 57 16 20 9 6 6 10
70 35 11 38 0 0 0 0 0 0 0 0 0 100 0 1 30 90 91 5 0 0 0 0 0 0 0 0 0 0 0 0 0 0 0 0 37 7 89 19 5 1 0
54 35 20 22 5 0 0 0 0 0 0 0 0 96 100 49 69 97 79 5 3 5 2 10 0 0 0 0 0 0 0 0 0 0 0 0 3 11 9 5 2 1 0
53 46 47 5 5 0 0 0 0 0 0 0 0 5 11 84 100 100 26 5 5 5 0 4 0 0 0 0 0 0 0 0 0 0 0 0 1 5 5 5 5 0 5
61 92 100 43 7 5 0 0 0 0 0 0 0 5 5 5 47 88 19 5 5 4 0 0 0 0 0 0 0 0 0 0 0 0 0 0 5 44 5 0 0 2 5
42 92 88 55 15 5 4 2 0 0 1 0 5 5 16 13 45 7 5 5 5 0 0 0 0 0 0 0 0 0 0 4 3 3 0 0 5 5 5 0 5 5 5
96 62 80 88 34 36 14 2 0 0 0 5 5 5 6 42 24 5 4 0 0 0 1 1 0 0 0 0 0 0 2 5 0 2 5 5 5 5 5 3 5 5 3
100 100 100 98 51 43 33 33 23 0 0 3 5 5 5 5 5 5 5 0 0 0 9 10 3 0 0 0 2 5 0 0 0 5 5 5 5 6 16 5 5 5 5
100 100 100 98 49 41 29 26 28 22 0 1 0 5 5 5 5 5 5 0 0 0 0 0 0 1 4 1 5 1 3 0 5 5 6 5 5 5 5 6 5 5 5
100 100 100 100 100 83 29 27 34 27 3 0 0 0 0 0 0 4 0 0 0 0 0 2 5 3 5 5 5 5 0 0 5 5 36 5 5 5 5 5 23 7 10
100 100 76 33 48 99 94 52 13 22 16 13 1 0 0 0 0 0 0 0 0 1 5 5 5 3 0 0 1 0 2 5 48 47 53 18 5 5 5 5 5 22 45
100 100 100 98 100 100 88 27 6 8 35 39 30 12 0 0 0 0 0 0 3 5 5 5 2 4 4 2 2 5 5 96 98 100 100 46 31 18 5 5 5 20 71
100 100 100 100 100 100 100 72 5 5 5 5 9 30 22 2 0 1 4 5 5 5 4 5 5 5 4 5 5 7 66 100 100 100 40 63 66 10 13 5 5 5 5
100 100 100 100 100 100 100 100 86 82 11 5 5 5 5 5 5 5 5 5 5 5 5 5 5 5 5 5 5 74 77 100 98 37 45 55 46 78 70 6 5 5 5
100 100 100 100 100 100 84 100 98 73 18 7 35 5 15 11 5 8 7 5 5 5 5 37 20 5 5 5 9 100 98 100 26 87 72 41 96 100 24 5 5 5 32
100 100 100 100 99 100 100 99 61 47 44 38 60 84 39 7 75 41 39 48 48 37 31 12 17 26 23 25 89 100 100 100 100 68 57 97 100 85 5 5 5 1 0
100 100 100 100 100 100 100 98 100 100 100 99 76 72 98 78 92 100 100 100 100 71 100 36 35 25 21 96 100 100 100 100 98 98 100 100 84 14 43 57 5 3 3
100 100 100 100 100 100 100 100 100 100 100 100 100 100 100 100 100 100 100 100 100 100 100 84 55 61 74 100 100 100 85 99 100 100 100 98 91 100 98 12 5 10 51
100 100 100 100 100 100 69 85 100 100 100 100 100 100 100 100 100 100 100 90 100 97 100 100 100 100 100 100 100 88 100 100 100 100 100 100 100 100 100 98 66 64 36
100 92 100 100 100 100 100 100 100 100 100 100 100 100 100 100 100 98 96 99 100 100 100 100 100 100 100 100 100 100 100 100 100 100 100 100 100 92 78 90 5 5 12
100 85 82 100 100 100 100 95 100 100 100 100 100 100 100 100 100 100 100 100 100 100 100 100 100 100 100 100 100 100 99 96 100 93 100 88 99 71 98 35 16 5 5

GFSSE_prec_cloud_066.txt.gz
Cloud_Cover
4 12 0 0 0 0 2 6 26 97 100 11 16 4 4 5 26 88 100 100 73 26 30 100 99 13 0 0 0 0 0 0 0 0 0 0 47 38 5 5 21 9 2
4 2 0 0 0 0 0 0 0 1 43 27 1 0 0 10 4 23 100 100 100 61 84 100 93 27 0 0 0 0 0 2 0 0 0 0 0 0 0 0 5 4 5
0 1 2 2 4 0 0 2 0 2 1 1 0 0 0 13 34 3 10 5 5 5 6 87 38 1 0 0 0 0 0 0 0 0 0 46 64 79 3 0 0 6 7
5 3 2 0 0 35 0 7 3 13 4 0 0 0 10 12 8 3 80 3 5 5 5 5 49 4 0 0 0 0 0 0 0 0 29 30 97 16 54 9 19 7 30
5 4 0 9 0 0 0 4 0 0 0 0 0 0 11 4 20 6 12 0 1 1 7 2 3 5 0 0 0 0 0 0 0 0 31 85 99 97 44 86 87 19 5
5 1 2 0 14 4 0 0 0 0 0 0 0 0 2 10 84 34 5 0 3 0 0 2 0 0 0 0 0 0 0 0 0 0 1 35 96 8 5 12 5 5 5
6 10 10 7 90 0 0 0 0 0 0 0 56 64 0 29 30 46 9 0 1 0 0 5 3 0 0 0 0 0 0 0 0 0 0 5 2 0 1 5 5 5 5
5 80 41 45 30 4 0 0 0 0 0 0 84 47 0 52 85 29 88 4 5 5 5 5 5 4 0 0 0 0 0 0 0 0 0 3 0 3 5 5 5 5 0
12 100 92 68 7 5 0 0 0 0 0 0 0 59 97 100 99 82 9 5 5 5 5 5 5 5 0 0 0 0 0 0 0 0 0 2 0 5 5 5 5 4 0
99 99 100 98 53 60 24 0 0 0 0 0 0 0 0 0 12 68 7 5 5 5 5 5 5 5 0 0 0 0 0 0 0 2 5 5 4 5 5 5 5 5 5
99 94 100 99 100 100 97 25 5 0 0 0 0 0 0 0 0 5 13 5 23 5 5 5 5 0 0 0 0 0 0 0 3 5 4 5 3 5 5 5 5 5 5
90 97 100 97 100 100 100 49 40 8 1 0 1 0 0 0 0 3 10 5 11 54 9 5 3 0 0 0 0 0 3 3 2 0 2 0 3 6 11 5 5 5 5
90 88 73 68 91 100 99 100 45 24 6 0 2 0 0 0 4 5 5 5 5 9 5 5 5 0 0 0 0 5 0 0 0 0 0 0 5 5 24 5 5 40 5
100 100 100 68 99 76 98 72 71 32 20 5 5 3 0 0 0 5 5 5 5 5 5 1 0 0 0 0 0 0 2 3 0 5 1 5 5 44 99 99 39 58 39
100 81 72 74 64 86 67 89 35 34 8 10 5 4 0 0 0 3 5 4 4 5 2 5 0 0 0 1 5 1 5 5 5 5 5 5 28 87 100 100 83 98 95
100 100 58 73 99 96 100 100 58 20 12 9 5 5 5 1 0 0 0 0 0 0 0 0 0 1 4 5 5 5 5 5 5 5 5 5 64 100 100 94 100 100 100
100 100 100 100 100 100 100 100 100 46 5 5 5 5 5 5 5 2 0 0 0 4 1 4 5 5 5 5 5 5 5 5 5 5 5 94 100 81 42 72 100 100 99
100 100 100 100 100 100 100 100 100 100 68 7 7 9 5 5 5 5 5 2 1 6 4 9 16 22 20 12 5 20 20 6 5 60 100 100 100 85 100 64 100 100 19
100 100 100 100 100 100 100 100 100 86 44 5 5 5 10 68 72 39 7 5 5 20 26 29 35 30 33 59 51 29 20 11 32 70 91 100 99 95 100 100 59 16 5
100 100 100 100 100 100 100 100 100 100 93 72 66 70 31 30 37 81 55 92 61 80 57 39 46 54 48 35 66 99 46 45 52 94 100 78 100 100 93 20 6 5 5
100 100 100 100 100 100 100 100 100 100 100 100 100 100 78 68 71 81 58 42 86 99 69 61 69 73 100 92 100 90 72 89 100 91 98 100 100 87 5 5 5 5 5
100 100 100 100 100 100 100 100 94 100 100 100 95 88 100 100 100 100 100 100 100 100 94 86 100 100 99 97 79 98 100 100 100 100 100 100 80 64 48 5 5 5 5
100 100 100 100 100 100 100 100 100 100 75 100 100 98 100 100 100 100 100 100 100 100 100 100 100 100 100 100 100 100 100 100 100 100 100 100 83 85 31 15 12 60 36
100 100 100 100 100 100 100 100 100 100 100 100 100 79 100 100 100 100 100 100 100 100 100 100 100 100 99 100 100 100 100 100 100 100 100 100 100 100 100 100 36 60 51
100 100 100 100 100 100 100 100 100 100 100 100 100 100 100 100 100 100 100 100 100 100 100 100 100 100 100 100 100 100 100 100 100 100 100 100 100 100 100 100 81 72 100
100 100 100 100 100 100 88 100 100 100 100 100 100 100 100 100 100 100 100 100 100 100 100 100 100 100 100 100 100 100 100 100 100 100 100 100 100 100 100 27 89 100 100

GFSSE_prec_cloud_069.txt.gz
Cloud_Cover
0 18 0 0 1 0 0 0 0 67 97 16 5 5 5 0 5 7 7 8 88 100 100 100 94 64 0 0 0 0 0 0 0 0 0 0 0 0 6 0 0 3 1
0 10 2 3 5 0 0 4 0 4 38 16 5 4 0 4 16 0 0 2 11 100 100 100 100 66 0 0 0 2 2 0 0 0 8 1 0 0 5 4 1 16 14
0 10 3 4 5 0 0 0 0 10 5 3 0 0 26 17 0 7 0 0 4 54 100 100 48 0 0 0 0 0 0 0 0 0 96 98 11 5 0 5 6 12 6
0 2 19 0 0 0 0 5 9 2 0 0 0 2 11 3 1 92 0 0 0 22 100 91 2 0 0 0 0 0 0 0 0 0 39 61 66 98 69 95 77 18 5
2 0 1 0 0 0 1 1 0 0 0 0 0 10 17 19 51 13 0 0 1 1 27 9 4 0 0 0 0 0 0 0 0 1 96 90 77 24 15 16 12 12 8
5 0 11 4 36 0 0 0 0 0 0 0 0 0 0 25 35 10 0 0 0 2 0 4 0 0 0 0 0 0 0 0 0 21 32 8 1 36 0 5 5 5 5
5 27 2 30 6 0 0 0 0 0 0 0 0 0 8 3 41 0 0 0 0 5 2 1 5 5 1 5 5 4 0 0 0 0 0 4 0 0 5 5 5 5 5
19 38 11 75 57 1 0 0 0 0 0 0 4 0 49 63 95 3 3 0 0 0 5 4 5 5 5 5 5 5 3 0 0 0 2 0 0 0 5 5 5 5 5
24 39 92 51 62 5 0 0 0 0 0 0 54 0 9 99 99 0 0 0 0 5 5 5 5 5 5 5 5 5 3 0 0 0 0 3 0 5 5 5 5 5 5
52 100 100 72 47 21 5 2 14 5 0 0 0 0 0 0 81 11 0 0 0 3 5 5 31 5 6 5 5 5 5 3 0 0 0 1 4 5 5 5 5 5 5
75 100 100 99 100 100 99 39 71 7 0 0 0 0 0 4 3 5 15 0 0 0 0 5 24 5 51 36 5 5 4 1 0 0 0 2 2 5 5 5 5 5 5
99 100 100 100 100 100 100 100 96 7 5 0 0 0 0 0 0 6 0 0 0 0 0 3 5 5 14 16 5 5 5 0 0 0 0 0 4 5 9 5 5 5 54
100 91 99 100 100 100 100 55 51 12 33 37 2 0 0 0 0 0 0 0 0 2 0 0 5 5 5 5 5 0 0 0 0 0 0 2 5 5 9 16 5 42 62
99 98 95 100 100 100 100 100 18 48 97 100 22 5 5 5 0 0 0 0 0 0 0 5 5 5 2 1 0 0 0 0 0 0 0 0 5 5 5 8 59 82 27
100 86 42 20 77 100 100 100 74 32 5 38 52 27 5 5 5 4 0 0 0 0 0 0 4 5 7 8 0 0 0 0 0 0 0 1 0 0 4 97 100 98 83
79 96 85 87 98 100 100 100 60 35 53 18 22 13 5 5 5 14 7 4 0 0 0 0 0 18 16 28 24 26 13 3 1 1 3 3 5 5 33 75 100 100 94
100 99 100 100 100 100 100 100 74 74 38 24 87 12 10 11 32 68 82 37 5 5 5 4 1 4 6 12 11 15 32 21 4 5 5 5 5 20 31 97 24 10 30
100 100 100 100 100 100 100 100 100 100 100 100 29 22 24 10 5 5 58 68 26 62 84 68 38 26 25 12 11 21 25 17 12 24 6 5 5 5 49 72 32 5 12
100 100 100 100 93 81 100 100 100 100 100 100 99 90 100 96 86 9 27 25 45 87 86 82 83 80 97 100 100 100 100 86 31 38 61 22 25 24 52 64 27 5 52
100 100 100 100 100 87 100 100 100 100 100 100 100 100 67 29 50 49 33 67 99 100 100 100 100 100 100 91 50 98 76 58 90 100 82 46 76 45 82 50 25 100 6
100 100 100 100 100 100 100 100 100 100 100 100 100 100 100 100 100 100 100 100 100 100 100 100 100 100 100 100 100 100 100 100 100 100 100 100 85 45 80 100 88 5 5
100 100 100 100 100 100 100 100 100 100 100 100 96 100 100 100 100 100 100 100 100 100 100 100 100 100 100 100 100 100 100 100 100 100 100 100 100 97 70 47 5 5 5
100 99 100 100 100 100 100 100 100 100 100 100 100 100 100 85 88 100 100 100 100 100 100 100 100 100 100 100 100 100 99 100 100 100 100 100 100 62 38 5 5 5 5
100 99 100 100 100 100 100 100 100 100 100 100 100 100 100 100 100 100 100 100 100 100 100 100 100 100 100 100 100 100 100 100 100 100 100 100 100 100 32 24 5 5 5
100 100 100 100 100 100 100 100 100 100 100 100 100 100 100 100 100 100 100 100 100 100 100 100 100 100 100 100 100 100 100 100 100 100 100 100 100 100 100 100 7 62 37
100 100 100 100 100 100 97 98 100 100 100 100 100 100 100 100 100 100 100 100 100 100 100 100 100 100 100 100 100 100 100 100 100 100 100 100 100 100 100 57 51 51 97

GFSSE_prec_cloud_072.txt.gz
Cloud_Cover
12 4 0 0 0 1 2 0 1 79 85 9 0 0 0 10 2 4 0 5 20 54 100 100 100 100 100 74 0 0 0 0 0 0 0 0 0 0 0 0 0 2 0
5 1 0 4 0 0 5 1 0 0 1 0 0 0 8 8 5 4 5 0 10 81 85 100 100 13 10 0 0 1 0 0 0 0 0 0 0 0 0 0 0 23 1
5 5 5 0 0 3 0 0 0 0 0 0 0 15 22 4 3 0 0 5 24 85 95 100 13 0 0 0 0 0 0 0 0 95 38 0 1 29 24 0 6 0 4
39 6 3 0 0 0 0 1 0 0 0 0 4 28 4 3 0 0 0 0 74 100 100 54 5 3 0 0 0 0 0 0 0 21 0 0 88 73 51 33 88 11 12
47 6 2 1 0 0 0 0 0 0 0 0 5 5 5 7 9 0 0 1 14 100 92 17 0 0 0 0 0 0 0 19 5 4 0 0 0 34 3 0 0 2 8
5 3 5 0 0 0 0 0 0 0 1 0 0 4 0 15 7 0 0 0 0 2 0 0 5 0 0 0 1 5 4 5 5 9 5 0 0 0 0 0 0 1 0
5 5 5 7 26 0 0 1 0 0 0 0 0 6 23 4 0 0 0 0 0 0 0 2 5 5 0 2 0 5 5 5 5 5 5 0 0 0 0 0 0 0 4
5 14 5 5 5 1 0 2 1 0 0 0 0 0 2 1 0 0 0 0 0 0 0 0 0 0 4 5 5 5 5 5 5 5 4 0 0 0 0 0 0 1 5
10 5 5 12 57 8 3 1 2 0 0 0 0 3 0 1 0 0 0 0 0 0 0 0 0 5 1 5 5 5 5 5 5 5 0 0 0 0 0 0 0 2 1
22 45 7 7 15 22 5 5 5 0 2 27 0 0 0 0 0 0 0 0 0 0 0 0 0 0 0 5 5 5 5 5 5 4 0 0 0 0 0 0 0 0 0
96 96 39 22 35 74 6 5 5 5 5 4 5 5 0 0 0 0 0 0 0 0 0 0 0 0 0 0 4 5 5 0 0 2 0 0 0 0 0 0 0 0 0
63 19 69 100 100 92 36 12 5 5 5 5 5 17 5 0 0 0 0 0 0 0 0 0 0 0 0 0 0 0 0 0 0 0 0 0 0 0 1 0 0 3 1
100 100 100 100 100 94 67 10 5 5 5 48 67 64 5 5 5 0 3 0 0 2 0 0 0 0 0 0 0 0 0 0 0 0 0 0 0 0 0 11 0 2 5
100 100 98 98 96 100 100 38 48 5 5 5 5 14 28 16 5 5 2 0 0 0 0 0 0 0 0 0 0 0 0 0 0 0 0 0 0 0 0 0 27 5 5
100 100 80 56 10 97 100 60 72 100 10 9 5 5 6 29 5 5 59 5 5 4 5 5 3 0 0 0 0 0 0 0 0 0 0 0 0 0 0 5 5 14 15
100 100 100 76 66 96 100 100 55 47 81 11 53 5 5 5 6 5 5 5 5 5 5 5 5 5 5 5 6 5 4 4 4 5 5 4 5 5 5 5 5 5 35
100 100 100 79 71 100 100 100 99 100 75 76 29 5 27 46 86 52 5 6 5 7 5 5 5 5 5 52 26 5 22 7 36 49 82 42 5 5 5 5 5 24 88
100 100 100 100 100 100 100 100 100 100 100 95 82 78 86 98 100 40 66 39 14 6 10 15 31 10 6 42 46 40 81 88 100 77 84 100 77 58 32 17 45 89 100
100 100 100 100 100 100 100 100 100 100 100 100 100 100 100 100 100 92 100 94 99 100 83 90 75 79 98 100 100 100 85 100 100 100 100 89 44 100 95 97 33 96 15
100 100 100 100 100 96 87 99 100 100 100 100 100 100 100 98 100 100 95 100 100 100 100 100 100 100 100 100 100 100 100 100 100 100 95 96 100 90 98 68 79 8 5
100 100 100 100 100 100 100 99 100 100 100 100 100 100 100 100 100 100 100 100 100 100 100 100 100 100 100 100 100 100 100 100 100 89 100 100 76 38 66 60 100 100 100
100 100 100 100 100 100 100 100 100 100 100 100 100 100 100 100 100 100 100 100 100 100 100 100 100 100 100 100 100 100 100 100 100 100 100 100 99 95 100 99 100 100 56
100 100 100 100 100 100 100 100 100 100 100 100 100 100 100 100 100 100 100 100 100 100 100 100 100 100 100 100 100 100 100 100 100 100 100 100 100 100 100 100 100 94 46
79 100 100 100 100 100 100 100 100 100 100 100 100 100 100 100 100 100 99 100 100 100 100 100 97 100 100 100 100 100 100 98 100 100 100 100 100 100 100 100 100 100 33
100 100 100 99 100 100 100 100 100 100 100 100 100 100 100 100 100 100 100 100 100 100 100 100 100 100 100 100 100 100 100 100 100 100 100 100 100 100 100 100 84 100 80
100 100 100 100 100 100 100 100 100 100 100 100 98 100 100 100 100 100 100 100 100 100 100 100 100 100 100 100 100 100 100 100 100 100 100 100 100 100 100 100 100 100 18

GFSSE_prec_cloud_075.txt.gz
Cloud_Cover
37 20 5 0 0 0 0 1 5 4 5 2 1 12 0 2 7 12 11 0 20 79 100 23 0 0 1 2 7 1 0 0 0 0 0 0 0 2 4 2 3 0 0
40 29 5 5 4 0 2 0 0 4 1 0 3 34 0 0 0 0 4 2 77 100 97 0 0 0 0 4 0 0 0 0 0 0 0 0 0 2 2 0 0 0 0
23 8 5 14 5 3 0 0 0 3 5 0 28 5 0 0 0 3 36 100 100 4 9 2 0 0 0 5 3 8 0 0 0 0 4 22 84 59 8 14 37 4 85
4 6 61 90 16 5 13 5 0 0 1 20 5 5 10 1 4 5 15 100 74 100 23 3 0 0 0 0 0 0 0 0 0 0 5 5 8 3 3 0 67 30 44
5 4 6 9 22 5 8 0 0 0 0 8 5 5 6 2 5 5 0 81 98 100 30 0 0 0 0 0 0 0 0 0 0 2 3 5 5 5 5 0 0 0 0
8 5 4 5 5 21 5 5 0 0 1 14 5 5 9 1 4 5 4 3 65 55 0 0 0 0 0 5 0 0 5 5 5 5 5 5 5 5 1 0 0 0 0
7 5 6 5 5 5 5 4 0 0 0 18 5 16 20 5 5 0 0 0 0 2 0 0 0 0 0 2 0 0 5 5 5 5 5 5 5 2 0 0 0 0 0
34 37 20 5 5 5 5 5 2 0 0 0 2 2 10 0 0 0 0 0 0 0 0 0 0 0 0 0 0 2 5 5 5 5 5 0 0 0 0 0 0 0 0
20 40 34 27 5 5 5 5 5 5 0 0 0 4 0 0 0 0 0 0 0 0 0 0 0 0 0 0 0 0 0 0 0 0 0 0 0 0 0 0 0 0 0
100 100 62 40 5 5 5 5 5 5 2 0 0 0 0 0 0 0 0 0 0 0 0 0 0 0 0 0 0 0 0 0 0 0 0 0 0 0 0 0 0 0 0
59 100 100 82 5 5 5 6 5 5 5 5 3 0 0 0 1 5 0 0 0 0 0 0 0 0 0 0 0 0 0 0 0 0 0 0 0 0 0 0 0 0 0
99 100 100 71 5 5 15 55 5 5 5 1 4 4 0 0 5 3 0 0 4 0 0 0 0 0 0 0 0 0 0 0 0 0 0 0 0 0 0 0 0 0 0
100 95 100 77 59 5 6 21 5 5 5 5 5 5 5 5 5 5 14 2 5 0 2 0 0 0 0 0 2 3 1 2 2 4 0 0 0 4 5 5 5 0 0
100 97 100 100 100 81 30 40 5 5 5 5 8 12 5 5 5 6 20 6 27 3 6 5 4 0 0 0 0 0 5 5 5 5 5 5 5 25 50 5 21 3 1
88 100 100 100 100 94 99 87 59 23 24 26 8 5 5 5 5 5 5 22 5 5 5 5 3 4 0 5 5 5 5 5 5 5 4 5 42 90 75 6 6 11 38
100 80 100 100 100 100 100 100 100 100 98 97 68 73 86 56 19 5 5 5 5 5 5 5 5 4 0 3 5 9 6 5 5 5 5 5 5 30 100 17 5 5 15
90 100 100 100 100 100 100 100 100 100 100 100 100 78 79 79 97 99 76 6 5 24 5 5 5 5 56 57 70 86 56 26 13 5 12 66 80 100 27 5 5 5 80
100 100 100 100 100 100 100 100 100 100 100 100 100 99 100 100 100 100 100 100 83 98 69 52 72 50 65 100 100 100 100 79 100 100 100 99 100 99 75 61 50 16 65
100 100 100 100 100 100 100 100 100 100 100 100 100 100 100 100 100 100 100 100 100 100 100 100 100 100 100 100 100 100 100 100 100 100 100 100 100 83 18 100 100 83 74
100 100 100 100 100 100 100 100 88 100 100 100 100 100 100 100 100 100 100 100 100 100 100 100 100 100 100 100 100 100 100 98 51 100 100 100 98 54 81 100 80 100 100
100 100 100 100 100 100 100 100 92 92 89 100 100 100 100 100 100 100 100 100 100 100 100 100 100 100 100 100 100 100 98 100 100 100 100 100 100 90 10 17 67 100 100
100 100 100 100 100 100 100 100 100 100 98 100 100 100 100 100 100 100 100 100 100 100 100 100 100 100 100 100 100 99 98 100 100 100 100 29 92 100 100 100 94 97 68
83 100 100 100 100 100 100 100 96 100 100 100 100 100 100 100 100 100 100 100 100 100 100 100 100 100 100 100 100 69 93 100 100 100 100 100 97 100 100 100 100 100 100
100 100 100 100 100 100 100 100 100 100 100 100 100 100 100 100 100 100 100 100 100 100 100 100 100 100 99 76 81 100 99 100 100 99 100 100 100 100 100 100 100 100 100
100 100 100 100 100 100 100 100 100 100 100 100 100 100 100 100 100 100 100 100 100 99 99 100 100 100 100 100 100 100 100 91 94 100 100 100 100 98 100 100 100 100 100
100 100 100 100 100 100 100 100 100 100 100 100 100 100 100 100 100 100 100 100 100 100 100 100 100 100 100 100 100 100 100 100 100 100 100 100 100 100 100 100 100 100 100

GFSSE_prec_cloud_078.txt.gz
Cloud_Cover
34 8 5 5 5 0 0 6 10 5 2 6 0 0 47 100 58 28 2 3 17 17 0 0 0 0 0 0 0 12 8 45 0 0 0 0 1 1 7 0 0 0 1
53 27 5 5 5 5 4 0 0 0 0 54 8 0 0 5 5 0 7 26 0 2 0 0 0 0 2 5 0 0 0 1 0 0 0 2 15 64 0 0 1 58 100
40 76 69 9 5 5 5 5 1 0 1 38 0 0 0 0 3 0 22 100 1 0 0 0 0 4 6 2 1 0 0 0 0 0 0 0 7 4 4 5 44 100 100
30 27 14 7 14 5 10 5 5 0 25 1 0 0 5 3 5 5 86 21 0 0 0 0 0 3 0 0 0 0 0 0 0 5 4 5 2 5 5 0 1 0 34
31 4 8 3 5 7 9 39 5 4 41 0 0 0 5 5 5 5 4 25 4 1 0 0 0 0 0 0 0 0 4 4 2 4 5 5 5 5 5 0 0 0 0
15 5 5 5 5 5 5 5 5 30 22 0 0 0 3 5 5 5 5 9 1 0 0 0 0 0 0 0 0 0 0 0 0 3 0 5 5 5 1 0 0 0 0
45 19 22 5 5 5 4 5 5 9 8 5 21 4 4 5 5 20 5 2 0 0 0 0 0 0 0 0 0 0 0 0 0 0 0 0 0 0 0 0 0 0 0
52 40 93 55 5 5 5 5 5 9 14 4 0 59 0 3 4 0 5 4 0 2 0 0 0 0 0 0 0 0 0 0 0 0 0 0 0 0 0 0 0 0 0
36 25 17 15 10 82 70 5 5 5 8 28 0 0 0 0 0 0 0 1 0 1 0 0 0 0 0 0 0 0 0 0 0 0 0 0 0 0 0 0 0 0 0
96 83 82 61 22 8 14 5 5 5 5 87 10 0 0 0 0 0 0 0 0 0 0 0 0 0 0 0 0 0 0 0 0 0 0 0 0 0 0 0 5 5 0
100 100 86 92 68 100 70 5 5 5 5 5 42 5 4 0 0 0 0 0 0 0 0 0 0 0 0 0 0 0 0 4 2 0 0 0 0 4 0 1 5 5 5
100 100 100 100 100 100 96 62 36 37 5 16 5 5 5 3 4 5 4 3 5 1 0 0 1 5 2 0 0 5 0 1 5 3 1 1 0 0 2 5 12 13 5
100 100 100 100 100 100 100 100 99 20 12 66 15 6 5 5 5 12 14 5 5 5 5 5 5 5 4 3 5 5 5 5 5 5 5 5 4 5 5 5 18 34 5
100 100 100 100 100 100 100 100 100 21 11 77 61 15 56 31 6 19 27 12 8 22 5 5 5 5 5 3 5 5 5 6 5 5 5 5 5 5 5 5 83 33 16
100 100 100 100 100 100 100 100 100 100 38 18 67 50 62 100 54 15 14 35 7 5 5 5 5 5 5 5 5 21 68 91 82 30 17 6 5 14 10 69 99 72 44
100 100 100 100 100 100 100 100 100 100 100 100 71 61 92 98 100 95 52 49 6 5 5 5 5 8 32 48 75 49 97 100 99 100 100 92 21 8 80 100 92 88 80
100 100 100 100 100 100 100 100 100 100 100 100 100 97 100 96 100 100 100 49 25 20 20 5 42 16 70 100 100 99 100 100 100 96 63 98 98 11 57 16 10 73 67
100 100 100 100 100 100 100 100 100 100 100 100 100 100 100 100 100 100 100 100 100 81 83 100 100 100 100 100 100 100 100 100 100 100 100 100 100 100 86 100 98 100 23
100 100 100 100 100 100 100 100 100 100 100 100 100 100 100 100 100 100 100 100 100 100 100 100 100 100 100 100 100 100 100 100 100 100 100 100 69 100 100 100 100 100 100
100 100 100 100 100 100 100 100 100 100 100 100 100 100 100 71 100 100 100 100 100 100 100 100 100 100 100 100 100 100 100 100 98 95 100 82 54 100 99 16 50 100 100
100 100 100 100 100 100 100 100 99 98 100 100 100 100 100 100 100 100 100 100 100 100 100 100 100 100 100 100 100 100 100 100 100 92 90 100 100 100 94 93 44 77 98
100 100 100 100 100 100 100 100 100 100 100 100 95 100 100 100 100 100 100 100 100 98 100 100 100 100 100 100 100 100 100 100 100 83 74 38 21 40 50 100 100 100 100
100 100 100 100 100 97 100 100 100 99 100 100 100 100 100 100 85 97 100 100 100 100 100 100 100 100 98 100 100 100 100 100 100 100 100 96 95 57 67 97 100 100 100
100 100 100 100 100 100 100 88 100 100 100 100 100 100 100 100 100 100 100 100 100 100 100 100 100 100 100 100 100 100 88 74 100 100 100 100 100 100 100 100 100 100 100
8 90 100 100 100 100 100 100 100 100 100 100 100 100 100 100 100 100 100 100 100 100 100 100 95 100 100 100 100 100 100 39 62 100 100 100 100 100 100 100 100 100 100
100 80 10 96 100 100 100 100 100 100 100 100 100 100 100 100 100 100 100 100 100 100 92 89 97 91 100 100 100 100 100 100 100 100 100 100 100 100 100 100 100 100 100

GFSSE_prec_cloud_081.txt.gz
Cloud_Cover
50 1 0 0 3 3 5 5 4 5 0 10 44 29 4 4 2 2 1 66 41 0 0 0 0 1 97 86 51 13 2 0 0 0 0 0 0 0 0 0 89 85 0
38 10 2 2 2 5 11 5 2 0 0 0 3 37 100 11 1 4 6 17 0 0 0 0 0 15 67 5 0 0 0 0 0 0 57 17 62 38 1 52 0 79 8
68 25 5 5 15 17 6 9 5 5 8 0 0 0 9 2 16 39 47 8 0 0 1 0 84 100 28 5 2 0 0 0 0 5 0 0 0 0 0 0 52 100 100
38 31 20 6 23 20 8 56 6 32 43 3 0 0 3 19 14 70 2 0 0 5 0 0 36 12 1 0 0 0 0 0 0 0 0 0 0 0 0 0 0 0 56
36 31 27 5 6 30 67 45 12 19 16 5 5 0 0 13 20 16 3 0 5 3 3 0 0 0 0 0 0 0 0 0 0 0 0 0 0 0 0 0 0 0 7
39 5 5 12 5 6 9 5 6 81 5 3 5 1 0 11 15 2 4 3 8 5 5 0 0 0 0 0 0 0 0 0 0 0 0 0 0 0 0 0 0 0 0
34 9 5 5 13 6 11 6 36 24 9 6 5 5 5 100 52 1 1 5 3 1 0 0 0 0 0 0 0 0 0 0 0 0 0 0 0 0 0 0 0 0 0
14 16 5 5 5 22 68 26 22 5 5 7 5 5 5 89 100 23 1 5 0 0 0 0 0 0 0 0 0 0 0 0 0 0 0 0 0 4 2 0 0 0 0
56 28 15 35 5 39 100 81 7 40 2 0 7 5 5 2 20 1 9 1 5 8 0 0 0 0 0 0 0 0 0 0 0 0 0 5 5 4 4 0 0 0 0
79 78 87 80 16 8 5 89 52 91 11 7 0 4 5 2 0 0 1 17 14 12 0 0 0 0 0 0 0 0 0 0 0 3 5 5 5 5 2 0 0 4 0
100 100 100 99 18 5 10 73 35 100 100 76 7 5 5 5 5 5 3 0 2 4 5 4 0 0 0 0 0 5 5 5 5 5 5 5 5 5 5 5 5 1 5
100 100 100 100 100 90 76 84 100 100 100 59 52 7 6 5 7 5 10 5 5 5 5 5 5 5 5 5 5 5 5 5 5 5 6 14 5 6 5 5 5 8 5
100 100 100 100 100 100 100 100 100 100 100 100 82 9 6 6 33 10 9 5 5 5 5 5 5 5 18 5 5 5 5 5 5 6 20 5 5 5 5 26 89 100 18
100 95 100 100 100 100 100 100 100 100 100 100 100 100 26 19 12 65 43 12 8 5 5 5 5 5 5 5 5 5 5 5 5 61 100 65 98 65 100 39 100 95 77
100 100 100 100 100 100 100 100 100 94 90 100 100 100 99 67 40 38 44 48 16 5 7 5 5 5 5 5 38 24 34 62 88 100 100 100 98 94 100 100 100 100 100
100 100 100 100 100 100 100 100 100 98 90 100 100 100 100 100 98 76 98 100 100 100 97 50 6 5 5 17 26 77 100 100 100 100 86 73 98 99 100 100 100 100 100
100 100 100 100 100 100 100 100 94 100 93 100 100 100 100 60 100 100 100 100 88 89 100 100 100 94 39 60 97 100 100 100 100 100 64 100 100 100 99 100 100 100 91
100 100 100 100 100 100 100 100 100 82 90 100 100 100 96 74 35 66 89 50 100 100 100 100 100 100 100 100 100 100 100 100 85 100 93 45 100 100 100 100 96 100 45
100 100 100 100 100 100 100 100 100 100 100 99 82 100 100 100 78 94 100 98 78 100 100 100 100 100 100 100 100 100 100 100 100 100 85 99 100 100 72 61 99 100 100
100 100 100 100 100 100 100 100 100 100 100 100 100 95 94 92 100 97 92 99 100 100 74 90 100 100 100 100 100 100 100 100 100 100 100 100 99 88 78 100 95 100 100
100 100 100 100 100 100 100 100 100 100 100 93 44 95 100 100 100 100 100 100 100 40 96 100 100 100 100 100 100 100 100 100 62 100 100 100 72 100 100 90 95 100 98
100 100 100 100 100 100 100 100 100 100 100 100 100 100 100 100 96 100 100 100 100 100 100 100 100 100 100 100 90 75 100 100 92 100 99 71 89 92 95 99 100 98 100
100 100 100 100 100 100 100 100 100 100 100 100 100 100 100 100 93 100 100 100 100 100 100 100 100 100 100 100 96 54 100 100 100 100 100 100 62 24 32 9 96 100 100
100 100 100 100 100 100 100 100 100 100 100 100 100 100 100 100 100 100 100 100 100 100 100 100 100 98 97 75 93 99 68 96 100 100 100 100 100 100 100 100 100 100 100
100 100 100 100 100 100 100 100 100 100 100 100 100 100 100 100 100 100 100 100 100 100 100 100 100 100 100 100 100 98 97 82 100 100 100 100 100 100 100 100 100 100 100
100 100 100 100 100 100 100 100 100 100 100 100 100 100 100 100 100 100 100 100 100 100 100 100 99 66 72 84 53 23 42 93 100 100 100 100 100 100 100 100 100 100 100

GFSSE_prec_cloud_084.txt.gz
Cloud_Cover
48 4 0 0 0 0 2 2 0 0 7 82 5 9 2 20 10 11 26 30 1 0 0 0 67 100 100 100 94 0 3 6 8 0 0 0 0 26 16 5 93 5 0
24 5 0 0 0 0 7 1 5 2 4 6 7 19 27 13 22 24 15 22 0 0 0 0 92 88 100 62 1 2 27 4 0 0 0 0 12 20 8 0 34 50 0
54 6 5 4 0 0 10 0 9 5 5 15 22 15 0 29 6 44 92 0 0 0 0 42 100 100 2 0 0 3 2 0 0 0 0 0 0 0 0 0 18 85 99
60 18 5 5 4 9 9 0 12 22 1 4 16 2 6 21 58 100 33 0 0 2 17 100 100 34 1 9 0 0 0 0 0 0 0 0 0 0 0 0 0 0 50
52 33 5 5 8 8 6 0 22 94 5 5 5 1 11 31 61 72 11 0 0 8 50 58 13 0 1 0 0 0 0 0 0 0 0 0 0 0 0 0 0 0 0
61 7 2 5 31 5 5 5 17 100 3 4 5 1 16 32 45 28 6 5 2 14 17 6 0 0 0 0 0 0 0 0 0 0 0 0 0 0 0 0 0 0 0
76 13 4 38 6 8 5 5 22 48 5 5 5 5 5 34 10 59 18 14 15 17 3 4 0 0 0 0 0 0 0 0 0 0 0 0 0 0 0 0 0 0 0
68 19 3 38 1 0 5 5 23 6 6 5 40 100 100 88 90 7 6 34 13 6 2 0 0 0 0 0 0 0 0 0 0 0 2 5 3 0 0 0 0 0 0
55 27 16 6 5 4 0 5 20 6 5 5 5 46 100 100 98 36 9 9 11 8 7 0 0 0 0 0 0 0 0 0 0 0 2 1 5 5 5 4 5 5 1
100 99 58 45 17 12 5 5 5 5 62 5 5 5 1 79 85 83 73 16 8 1 0 0 0 0 0 0 5 5 0 0 4 4 5 2 2 5 5 5 4 2 5
100 100 58 61 87 75 24 8 73 24 6 28 5 5 5 14 27 5 3 5 2 5 3 0 1 0 1 0 2 5 5 5 5 5 5 5 5 5 5 5 5 5 5
100 100 100 100 100 100 100 95 57 100 89 100 11 65 87 53 54 5 4 0 5 5 5 5 5 1 3 5 5 11 5 5 5 5 5 5 5 66 22 5 5 24 100
100 100 100 100 100 100 100 100 100 94 100 100 100 100 100 86 38 5 11 15 5 5 5 16 6 5 5 5 5 6 6 5 5 5 5 35 100 100 98 26 49 8 98
100 100 100 100 100 100 100 100 100 100 100 100 100 100 100 52 100 100 87 15 6 8 5 5 31 14 6 5 9 45 16 19 10 7 62 100 100 87 17 57 65 76 69
100 100 100 100 100 100 100 100 100 100 100 100 68 100 98 100 72 100 100 98 32 9 10 5 76 100 73 50 51 43 57 65 43 100 100 99 100 99 30 96 94 72 92
100 100 100 100 100 100 100 100 100 100 100 100 100 94 92 91 96 71 78 100 100 46 7 41 52 16 33 54 65 75 73 79 97 100 100 100 100 99 100 100 100 100 100
100 100 100 100 100 100 100 100 100 100 100 100 100 100 28 65 84 46 42 84 63 37 63 68 32 32 28 66 95 100 100 100 100 83 83 100 100 98 100 100 100 100 91
100 100 100 100 100 100 100 100 100 100 100 100 100 43 60 79 64 66 100 100 100 88 53 98 92 100 93 100 100 100 100 100 100 94 100 100 100 52 25 100 83 100 100
100 100 100 100 100 100 100 100 100 100 100 100 100 98 54 32 14 32 88 100 100 100 100 98 99 98 74 97 91 100 100 100 100 100 99 100 54 50 90 99 96 99 100
100 100 100 97 100 100 100 100 100 100 100 100 100 81 59 12 33 91 92 99 100 100 98 77 100 100 97 89 100 100 99 100 100 88 87 78 55 84 87 45 80 11 52
100 100 100 100 100 100 100 100 100 100 100 100 100 100 73 86 100 100 100 100 100 100 100 100 89 97 100 100 100 100 100 98 85 81 85 65 13 82 68 16 70 37 15
100 100 100 100 100 100 100 100 100 100 100 100 100 100 100 100 99 100 100 100 100 97 81 100 100 100 100 99 68 88 88 73 51 63 44 46 5 15 5 5 80 20 53
100 100 100 100 100 100 100 100 100 100 100 100 100 100 100 100 100 100 100 95 100 100 100 100 100 100 100 100 78 95 72 99 89 100 82 92 63 17 5 5 5 73 100
100 100 100 100 100 100 100 100 100 100 100 100 100 100 100 100 100 100 100 100 100 100 100 100 100 100 100 100 99 64 34 63 100 100 100 100 98 52 59 47 43 100 100
100 100 100 100 100 100 100 100 100 100 100 100 100 100 100 100 100 100 100 100 100 100 100 100 100 100 100 100 100 100 69 86 81 100 100 96 100 100 100 100 100 100 100
100 100 100 100 100 100 100 100 100 100 100 100 100 100 100 100 100 100 100 100 100 100 100 100 100 100 100 100 100 94 74 19 51 62 87 100 100 100 100 100 100 100 100

GFSSE_prec_cloud_087.txt.gz
Cloud_Cover
15 4 4 20 41 7 5 0 0 0 0 2 0 0 0 0 0 2 0 0 0 0 0 40 100 88 94 6 0 11 50 22 0 0 0 5 67 27 1 0 0 0 0
17 14 23 5 32 2 0 0 2 0 0 0 0 0 0 1 18 13 13 0 0 0 16 100 100 35 3 0 42 8 15 0 0 0 0 0 0 0 0 0 0 1 7
50 34 24 5 5 5 0 0 0 0 3 0 0 8 8 58 16 100 2 0 0 0 100 100 100 21 0 78 99 67 0 0 0 0 0 0 0 0 0 0 0 63 0
34 46 29 5 5 2 2 0 0 0 0 0 0 4 38 10 99 93 0 0 0 74 100 100 57 6 0 0 0 0 0 0 0 0 0 0 0 0 0 0 0 0 41
54 46 32 2 5 5 4 5 6 0 0 4 5 69 68 14 100 65 1 8 35 96 100 75 10 6 0 0 1 0 0 0 0 0 0 0 0 0 0 0 0 0 0
62 43 19 5 5 5 5 12 3 0 0 1 43 9 31 48 100 100 25 21 86 100 100 27 19 16 0 0 0 0 0 0 0 0 0 0 0 0 0 0 0 0 0
70 69 79 5 40 5 5 5 64 3 0 0 1 25 29 100 100 100 96 43 96 100 18 5 0 0 0 1 0 0 0 0 0 0 0 0 0 0 0 0 0 0 0
80 85 86 5 5 5 5 4 16 2 0 0 3 5 43 100 100 100 100 100 93 22 15 0 0 0 0 0 0 0 0 0 0 2 4 5 3 3 0 0 4 4 0
78 66 63 16 5 5 5 5 0 2 5 1 16 5 14 100 100 100 100 97 57 17 4 0 0 0 0 0 0 0 0 0 3 0 5 5 4 0 0 4 3 12 1
66 57 55 26 5 5 5 5 5 5 88 15 70 100 20 100 100 88 100 58 18 13 0 0 0 0 0 0 0 0 0 0 2 5 0 5 5 5 5 2 74 9 5
94 97 92 74 18 28 23 16 6 49 78 37 20 14 94 26 87 7 6 28 5 5 4 0 0 0 2 1 3 2 1 1 5 4 5 5 2 0 4 96 100 11 6
100 100 100 75 47 84 6 29 57 63 58 21 51 62 5 4 6 19 74 85 11 5 5 4 0 0 5 4 5 5 4 5 4 5 5 4 5 5 88 81 74 100 15
100 100 100 99 100 98 66 76 99 100 98 100 100 39 5 22 94 100 100 96 23 5 5 4 0 3 1 5 5 9 10 36 41 36 5 5 5 53 31 80 96 5 5
100 100 100 100 100 100 100 100 100 100 100 100 98 100 100 100 100 100 14 41 5 71 61 10 5 5 5 5 23 16 40 11 44 5 5 5 5 5 7 100 50 46 7
100 100 100 100 100 100 100 100 100 100 71 95 99 100 100 100 100 98 36 42 8 16 22 63 73 8 5 12 65 44 6 5 23 65 5 5 5 5 80 5 34 6 18
100 100 100 100 95 100 100 100 100 100 95 99 95 100 100 100 100 100 32 5 12 25 63 47 8 38 47 34 49 43 86 94 100 15 5 38 20 79 61 42 45 6 20
100 100 100 100 100 100 100 100 100 100 100 100 100 100 100 100 100 42 7 8 85 94 100 98 99 78 55 63 97 100 88 14 6 5 5 35 9 100 99 100 94 80 5
100 100 100 100 100 100 100 100 95 98 100 100 100 100 100 100 100 91 72 63 11 56 81 100 100 100 100 95 100 75 30 15 6 56 100 75 100 100 100 25 65 100 75
100 100 100 100 100 100 100 100 100 98 86 100 100 100 100 100 99 58 78 68 59 49 23 92 100 100 100 100 92 98 41 99 34 5 5 10 25 10 5 97 100 83 6
100 100 100 100 100 100 100 100 100 100 100 100 100 100 100 100 94 95 51 5 20 5 64 100 100 100 100 99 86 100 64 92 59 5 5 1 5 5 6 26 62 23 5
100 100 100 100 100 100 100 100 100 100 100 100 100 100 100 100 63 100 100 100 100 54 5 33 100 100 100 100 67 44 95 18 12 5 5 5 5 5 5 5 26 45 5
100 100 100 100 100 100 100 100 100 100 100 100 97 100 100 100 100 100 100 100 100 100 70 47 100 98 42 100 15 38 49 10 5 5 5 5 5 5 4 5 5 5 5
100 100 100 100 100 100 100 100 100 100 100 100 100 100 100 100 100 100 100 100 98 96 98 100 100 93 100 95 68 50 32 76 18 92 75 35 5 5 5 5 5 4 17
100 100 100 100 100 100 100 100 100 100 100 100 100 100 100 100 100 100 100 100 100 100 100 100 100 100 100 100 100 100 100 100 96 100 100 95 69 95 51 37 26 100 100
100 100 100 100 100 100 100 100 100 100 100 100 100 100 100 100 100 100 100 100 100 100 100 100 100 100 100 100 100 100 100 51 60 100 97 100 100 100 100 100 100 100 96
100 100 100 100 100 100 100 100 100 100 100 100 100 100 100 100 100 100 100 100 100 100 100 100 100 100 100 100 100 100 100 100 100 100 100 100 96 100 100 100 100 100 97

GFSSE_prec_cloud_090.txt.gz
Cloud_Cover
20 75 20 5 34 14 0 0 0 0 0 0 0 0 0 3 8 0 0 0 0 0 0 31 16 59 2 46 64 90 88 0 4 4 18 6 5 3 0 0 0 0 0
29 86 49 93 6 8 3 0 0 0 0 0 0 1 0 4 22 16 4 0 0 0 11 15 97 1 8 25 38 81 0 0 0 0 0 0 0 0 0 0 0 0 0
19 95 7 64 11 5 5 5 4 0 0 0 0 0 1 10 25 22 0 0 0 87 100 98 92 62 100 99 0 1 0 0 0 0 0 0 0 0 0 0 0 0 0
70 97 87 8 23 9 5 5 13 8 0 0 0 0 0 15 98 6 1 0 6 99 100 100 19 11 25 10 0 0 0 0 0 0 0 0 0 0 0 0 0 0 10
91 100 80 5 11 38 5 5 12 22 8 0 0 16 54 68 100 5 4 5 97 100 98 12 0 0 1 2 0 0 0 0 0 0 0 0 0 0 0 0 0 0 0
100 100 100 5 5 63 24 5 5 5 5 0 0 18 83 85 26 48 62 54 69 100 84 8 0 19 0 0 0 0 0 0 0 0 0 0 2 2 0 0 0 0 0
100 100 100 100 99 99 95 58 5 5 5 4 1 18 5 100 98 98 85 90 100 100 68 14 7 7 8 2 0 0 0 0 0 0 0 0 0 0 0 0 0 0 0
75 100 56 26 76 100 87 100 18 6 9 36 9 20 92 100 100 100 100 100 100 87 17 16 1 0 0 0 0 0 0 0 0 0 0 0 0 0 0 0 0 0 43
68 41 94 34 5 98 99 98 99 56 5 17 31 47 100 100 100 100 100 100 100 11 12 3 0 0 0 0 0 0 0 0 0 0 0 0 0 5 5 5 5 9 100
100 62 76 98 40 8 48 5 87 74 5 5 5 5 20 100 100 100 100 100 100 21 6 6 0 0 0 0 0 0 0 0 0 0 2 3 3 0 0 5 5 100 13
100 100 100 100 50 5 25 48 5 6 6 22 9 31 98 56 39 67 6 100 8 4 5 35 5 3 0 0 0 0 0 0 1 5 5 2 5 4 5 5 6 5 100
100 100 100 100 40 28 70 48 24 30 69 99 90 100 100 90 55 5 13 34 5 39 63 45 5 5 5 5 5 2 2 5 4 5 5 5 5 3 5 5 5 5 20
100 100 100 100 99 97 100 100 100 98 100 100 100 87 100 51 87 58 7 6 77 100 94 5 5 5 19 20 5 5 5 5 5 11 5 5 4 5 5 3 5 8 90
100 100 100 100 100 100 100 100 100 100 100 100 96 100 100 100 100 88 98 42 100 82 100 14 4 5 5 5 45 30 36 15 85 5 5 36 82 4 3 5 6 87 60
100 100 100 100 100 100 100 100 100 100 100 100 100 100 100 100 100 95 100 100 100 40 96 5 8 11 10 23 98 78 18 5 5 5 5 36 5 3 5 38 9 22 6
100 100 100 100 100 100 100 100 100 100 100 100 100 100 100 100 100 64 100 100 100 85 38 27 84 57 6 5 8 68 70 39 11 15 5 25 5 5 23 5 48 5 2
100 100 100 100 100 100 100 100 100 100 100 100 100 100 100 63 62 100 99 93 100 100 38 5 53 86 99 100 50 74 66 60 86 36 58 19 7 10 5 5 5 5 0
100 100 100 100 100 100 98 100 100 100 100 100 100 100 100 99 100 100 90 91 100 97 39 73 39 49 91 100 100 100 99 64 91 14 4 4 5 5 22 1 5 5 5
100 100 100 100 100 100 100 100 100 100 100 100 100 100 100 100 100 100 100 100 100 100 79 63 15 5 5 5 5 38 96 99 6 21 20 9 3 6 28 5 5 5 1
100 100 100 100 100 100 100 100 100 100 100 100 100 97 100 100 100 100 100 100 100 100 79 89 100 33 5 28 40 47 82 84 52 32 22 8 10 33 6 5 5 5 0
100 100 100 100 100 100 100 100 100 100 100 100 100 100 100 100 100 100 100 100 100 94 41 46 23 60 5 5 96 44 76 31 3 4 0 5 72 29 5 1 0 2 7
100 100 100 100 100 100 100 100 100 98 100 100 100 100 100 100 100 100 100 100 100 100 100 100 64 71 100 41 58 55 18 22 11 1 3 2 5 5 5 5 5 32 12
100 100 100 100 100 100 100 100 100 100 100 100 100 100 100 100 100 100 100 100 100 100 100 100 100 100 91 100 70 67 98 85 62 27 76 6 5 65 46 54 23 5 38
100 100 100 100 100 100 100 100 100 100 100 100 100 100 100 100 100 100 100 100 100 100 100 100 100 100 100 100 98 69 100 100 99 100 100 96 25 76 99 32 5 17 47
100 100 100 100 100 100 100 100 100 100 100 100 100 100 100 100 100 100 100 100 100 100 100 100 100 100 100 100 100 100 100 100 100 100 100 100 100 76 100 64 100 33 69
100 100 100 100 100 100 100 100 100 100 100 100 100 100 100 100 100 100 100 100 100 100 100 100 100 100 100 100 100 100 100 100 100 100 100 100 100 100 100 100 95 62 69

GFSSE_prec_cloud_093.txt.gz
Cloud_Cover
27 6 5 17 87 55 5 0 0 0 0 0 0 1 38 6 13 0 0 16 0 26 6 0 4 1 43 85 95 0 0 10 6 4 0 2 0 0 0 0 0 0 0
32 5 6 5 6 26 5 4 0 0 0 0 0 5 6 13 25 0 0 0 0 0 32 16 2 25 100 97 0 0 0 0 0 0 0 0 0 0 0 0 0 0 0
33 94 18 31 5 5 5 5 5 1 0 0 0 0 5 16 45 0 0 0 1 0 74 50 72 0 17 13 0 0 0 0 0 0 0 0 0 0 0 0 8 2 0
77 98 100 100 51 7 14 20 5 5 5 1 0 0 11 13 86 5 5 5 26 71 93 100 100 74 22 0 0 0 0 0 0 0 0 0 0 0 0 0 0 23 13
100 100 100 100 88 80 6 41 11 5 5 0 0 0 17 5 80 5 5 30 62 51 88 2 6 0 0 0 0 0 0 0 0 0 0 0 0 0 0 0 0 1 4
33 100 100 100 100 20 32 5 21 5 9 5 2 5 4 77 99 5 5 93 59 54 0 1 0 3 0 0 0 0 0 0 0 0 0 0 0 0 0 0 0 0 2
58 97 98 100 100 56 34 15 5 12 9 17 20 7 6 100 100 100 60 100 12 25 1 0 0 0 0 0 0 0 0 0 0 0 0 0 0 0 0 0 5 5 5
97 75 48 83 100 100 100 98 6 5 26 17 5 13 56 100 100 100 95 96 98 100 9 10 7 6 4 0 0 0 0 0 0 0 0 0 0 0 0 0 2 4 5
100 97 86 17 95 49 30 100 100 64 5 5 30 87 93 100 100 100 100 100 98 50 14 11 5 3 5 0 0 0 0 0 0 0 0 0 0 0 2 5 5 5 5
81 94 85 44 56 100 71 81 100 100 72 100 100 100 100 100 100 100 100 100 100 5 11 5 2 0 0 2 0 0 0 0 0 5 0 2 5 0 5 5 5 5 5
86 100 100 100 72 95 98 77 5 5 99 100 85 100 96 100 98 91 82 100 100 12 5 4 0 0 5 5 1 0 1 0 4 4 0 2 0 4 5 5 19 6 97
100 100 100 95 46 99 18 64 41 7 5 67 84 26 5 10 5 8 61 100 97 16 5 5 3 74 97 5 0 4 5 5 5 5 5 5 15 4 5 5 16 5 71
100 100 100 100 100 100 42 41 6 31 7 28 97 29 7 9 18 80 100 75 22 14 15 5 47 75 40 21 4 55 19 5 5 14 15 5 24 6 5 5 5 5 77
100 100 100 100 100 100 100 75 100 93 28 5 45 74 99 96 100 81 32 86 100 99 49 56 99 24 80 5 5 5 5 4 5 15 5 1 2 5 5 5 6 5 64
100 100 100 100 100 100 98 100 100 100 100 82 93 85 94 100 100 100 91 100 100 99 29 97 100 81 67 5 5 5 5 29 26 41 30 5 5 5 4 5 5 5 6
100 100 100 100 100 100 100 100 100 100 100 100 100 100 100 100 100 100 100 100 100 100 100 100 100 98 18 5 5 5 5 7 5 29 97 49 24 5 5 5 8 5 5
100 100 100 100 100 100 100 100 100 100 100 100 100 100 100 100 100 100 100 100 100 100 87 100 100 100 39 5 5 5 5 14 43 62 99 91 30 17 5 30 53 56 5
100 99 100 100 100 100 100 100 100 100 100 100 100 100 100 100 100 100 100 100 100 100 100 100 100 99 54 42 47 5 6 96 100 87 32 11 8 16 5 5 21 5 36
100 100 100 100 100 100 100 100 100 100 100 100 100 100 100 100 100 100 100 100 100 100 100 98 100 100 100 63 46 7 46 96 46 8 37 14 37 4 5 5 31 5 5
100 100 100 100 100 100 100 100 100 100 100 100 100 100 100 100 100 100 100 98 93 100 100 100 100 99 71 32 52 85 100 49 42 98 21 52 2 4 5 5 4 3 3
100 100 100 100 100 100 100 100 100 100 100 100 100 100 100 100 100 100 100 99 98 98 100 100 100 100 98 83 94 18 9 26 84 35 37 0 0 0 5 5 1 3 0
100 100 100 100 100 100 100 100 100 100 100 100 100 100 100 100 100 100 100 100 100 100 100 100 100 100 100 100 98 79 66 84 89 5 8 5 1 0 1 3 5 5 5
100 100 100 100 100 100 100 100 100 100 100 100 100 100 100 100 100 100 100 100 100 100 100 100 100 100 100 100 100 88 82 60 49 85 44 38 5 54 68 95 80 69 16
100 100 100 100 100 100 100 100 100 100 100 100 100 100 100 100 100 100 100 100 100 100 100 100 100 100 100 100 100 100 100 100 100 100 92 100 100 100 76 98 100 87 86
100 100 100 100 100 100 100 100 100 100 100 100 100 100 100 100 100 100 100 100 100 100 100 100 100 100 100 100 100 100 100 100 100 100 100 100 100 100 97 100 98 100 78
100 100 100 100 100 100 100 100 100 100 100 100 100 100 100 100 100 100 100 100 100 100 100 100 100 100 100 100 100 100 100 100 100 100 100 100 100 100 100 100 100 99 54

GFSSE_prec_cloud_096.txt.gz
Cloud_Cover
3 4 5 4 5 5 0 5 5 0 0 0 43 100 10 4 9 0 0 2 7 5 64 1 22 40 46 27 0 20 29 24 0 0 0 0 4 32 9 1 0 0 0
4 0 5 5 5 5 5 5 5 5 0 0 0 100 31 10 6 4 3 9 3 8 0 0 12 86 9 0 0 0 0 0 0 0 0 0 0 1 0 0 0 0 8
5 0 0 22 8 5 5 1 5 5 5 0 0 86 5 16 0 0 2 11 3 0 4 1 65 42 0 0 0 0 0 0 0 0 0 0 0 1 4 9 2 1 0
6 1 1 5 90 51 5 5 0 5 5 4 0 0 3 16 3 4 5 5 5 1 3 5 7 0 0 0 0 0 0 0 0 0 0 0 0 0 0 0 16 45 56
4 0 0 2 5 72 5 5 5 4 5 5 1 5 5 12 10 5 5 39 5 100 100 91 3 0 0 0 0 0 0 0 0 0 0 0 0 0 0 0 0 0 2
5 0 1 1 0 76 100 100 67 5 0 5 5 3 5 13 4 3 5 10 19 100 10 6 5 0 0 0 0 0 0 0 0 0 0 0 0 0 0 0 0 0 5
1 0 5 0 0 4 95 100 100 10 3 5 5 5 5 39 3 4 42 100 63 40 22 0 2 0 0 0 0 0 0 0 0 0 0 0 0 0 0 0 0 3 5
17 3 3 2 5 0 5 80 100 27 5 0 5 5 5 91 42 10 100 100 16 100 47 8 1 1 0 0 0 0 0 0 0 0 0 0 0 0 0 0 5 5 5
25 0 2 5 1 5 5 46 96 100 9 2 0 2 19 100 100 100 100 100 84 59 6 5 10 15 15 0 0 5 0 0 0 0 0 0 0 0 5 5 5 5 5
75 27 60 45 5 5 1 5 5 85 100 76 2 92 100 100 100 100 100 93 100 83 5 5 4 0 0 0 0 0 2 3 0 3 0 0 1 5 5 5 5 6 5
54 97 100 100 30 5 5 5 9 8 12 100 96 100 100 100 100 100 100 100 100 5 5 5 5 5 5 4 1 6 5 5 0 0 0 0 1 5 5 14 18 5 5
2 14 33 48 100 77 47 5 5 58 84 94 100 100 100 100 100 100 100 100 100 5 7 68 32 5 5 5 4 5 5 5 3 1 4 0 5 5 5 5 8 5 5
3 0 30 100 100 100 94 74 14 5 52 100 100 100 100 83 100 100 100 100 100 54 86 100 65 72 16 5 5 4 5 5 5 5 4 0 4 5 16 5 5 8 5
2 2 4 100 100 100 100 100 29 5 38 98 100 100 36 95 63 24 11 49 70 69 89 92 100 100 100 100 47 5 19 5 5 5 13 5 23 5 5 5 5 7 49
44 1 5 54 100 100 100 100 53 49 29 90 95 45 68 97 86 78 28 53 100 100 100 92 100 100 100 79 37 94 66 5 12 42 13 5 5 5 5 5 67 100 96
92 13 2 9 100 100 100 100 96 90 100 100 100 100 100 100 100 57 92 97 100 100 100 100 100 100 66 100 100 100 99 5 38 56 14 5 48 6 5 5 9 7 5
4 2 0 93 100 100 100 100 100 100 68 97 100 100 100 100 100 100 100 100 100 100 100 100 100 100 100 100 100 100 78 8 66 97 99 99 83 98 92 60 5 5 5
47 26 55 98 100 100 100 100 100 100 100 100 69 100 100 100 100 100 100 100 100 100 100 100 100 100 100 88 100 100 77 26 44 97 100 64 9 81 29 5 3 5 5
100 100 89 81 100 100 100 100 100 100 100 100 100 100 100 100 100 100 100 100 100 100 100 100 100 100 100 95 98 100 100 100 100 65 41 89 98 89 5 5 1 1 1
100 100 100 100 100 100 100 100 100 100 100 100 100 100 100 100 100 100 100 100 100 100 100 100 100 100 92 48 100 100 100 100 100 97 90 100 99 5 5 5 4 0 0
100 100 100 100 100 100 100 100 100 100 100 100 100 100 100 100 100 100 100 100 100 100 100 100 100 100 100 100 100 100 100 100 100 100 100 86 47 78 5 5 0 0 0
100 100 100 100 100 100 100 100 100 100 100 100 100 100 100 100 100 100 100 100 100 100 100 100 100 100 100 100 100 100 100 100 98 87 100 64 58 58 35 6 33 68 33
100 100 100 100 100 100 100 100 100 100 100 100 100 100 100 100 100 100 100 100 100 100 100 100 100 100 100 100 100 100 100 99 81 99 92 96 98 85 90 96 98 99 10
100 100 100 100 100 100 100 100 100 100 100 100 100 100 100 100 100 100 100 100 100 100 100 100 100 100 100 100 100 100 100 100 100 100 100 100 100 100 100 99 15 89 95
100 100 100 100 100 100 100 100 100 100 100 100 100 100 100 100 100 100 100 100 100 100 100 100 100 100 100 100 100 100 100 100 100 100 100 100 100 100 100 99 87 66 92
100 100 100 100 100 100 100 100 100 100 100 100 100 100 100 100 100 100 100 100 100 100 100 100 100 100 100 100 100 100 100 100 100 100 100 100 100 100 100 100 100 95 94

GFSSE_prec_cloud_099.txt.gz
Cloud_Cover
10 8 5 1 0 0 1 0 0 0 0 0 26 66 2 4 9 0 0 0 1 14 40 7 30 81 0 1 67 92 34 7 1 0 0 2 0 3 0 0 0 0 0
4 0 3 5 0 0 0 1 0 0 0 3 100 100 0 1 0 0 1 4 28 47 7 41 67 0 0 0 1 0 0 0 0 0 0 0 0 0 0 0 0 9 3
4 6 0 0 5 0 0 0 0 2 0 0 63 100 3 7 0 0 16 4 16 4 10 65 5 0 0 0 0 0 0 0 0 0 0 0 0 59 11 14 0 4 11
5 4 0 0 0 4 0 0 2 5 5 5 5 2 1 6 0 0 8 0 0 1 15 39 2 0 0 0 0 0 0 0 0 0 0 0 0 1 14 39 55 100 100
1 1 4 0 0 0 5 0 0 3 5 5 5 1 0 0 0 0 4 0 0 0 0 12 0 0 0 0 0 0 0 0 0 0 0 0 0 0 2 3 1 5 50
0 3 3 0 2 0 0 5 4 2 2 1 5 5 5 0 0 0 0 0 0 0 74 0 0 0 0 0 0 0 0 0 0 0 0 0 0 0 0 0 0 0 2
0 17 0 0 4 0 0 0 4 5 5 0 0 3 5 2 0 0 0 0 3 100 6 0 0 0 0 0 0 0 0 0 0 0 0 0 0 0 0 0 0 1 4
0 4 15 1 0 0 0 4 1 5 5 6 23 0 5 34 5 4 23 0 0 1 1 5 5 0 0 0 0 0 0 0 0 0 0 0 0 0 0 0 2 3 5
0 0 16 8 4 0 0 0 4 2 43 100 100 8 16 15 5 5 99 11 89 4 4 0 5 5 1 0 0 0 3 0 5 3 0 0 0 0 0 1 4 5 32
12 26 38 13 7 3 1 0 4 5 1 33 100 99 41 57 5 94 100 12 100 84 28 5 14 13 1 0 0 0 5 5 3 5 5 5 3 0 0 0 5 5 29
27 34 95 44 34 8 3 5 1 5 5 2 96 100 100 79 82 100 100 95 96 51 5 5 6 5 5 11 6 5 5 5 1 5 5 5 5 5 5 0 5 5 41
55 31 66 47 38 37 21 3 9 22 5 5 7 97 100 100 100 100 100 66 100 9 6 5 5 7 23 100 22 35 48 19 5 9 27 5 5 5 5 5 9 41 34
28 70 40 30 7 16 55 48 15 63 84 37 55 100 100 100 100 100 100 100 100 50 83 40 8 28 86 99 100 100 88 9 5 5 5 5 5 5 5 5 5 6 71
16 7 5 14 14 12 50 83 47 81 98 91 100 100 96 100 100 100 100 100 100 28 27 15 77 56 32 100 88 100 100 77 8 5 91 36 6 34 5 5 5 95 88
88 10 20 13 9 51 100 27 88 99 86 96 100 100 93 96 100 100 100 100 100 100 72 50 26 66 100 100 100 100 100 50 64 85 18 5 5 5 5 5 11 9 30
18 86 24 94 6 5 100 100 89 100 100 83 100 100 100 90 100 100 100 100 100 100 100 95 99 100 100 100 100 100 100 76 96 89 6 5 27 18 5 20 68 5 67
54 4 8 4 16 1 100 100 100 100 100 100 100 100 61 30 100 100 100 100 100 100 100 100 100 100 100 100 100 100 89 72 85 65 48 99 98 70 98 5 5 5 5
91 100 76 4 0 0 0 100 100 100 100 100 100 100 100 90 51 100 100 100 100 100 100 100 100 100 100 100 100 87 83 100 99 13 98 97 58 90 62 5 5 10 35
15 89 13 10 8 6 20 83 100 100 100 100 100 100 100 97 100 100 100 100 100 100 100 100 100 100 100 100 99 100 100 99 100 77 99 100 99 100 14 5 88 90 49
0 4 38 46 69 6 18 88 100 100 100 100 100 100 100 100 100 100 100 97 100 100 100 100 100 100 100 100 100 100 99 96 85 100 74 100 100 100 50 100 89 10 5
3 20 66 96 99 86 3 89 100 100 100 100 100 100 100 100 100 100 100 100 100 100 100 100 100 100 100 100 100 94 94 100 100 99 100 100 100 100 100 98 97 33 49
86 98 100 100 100 52 59 100 100 100 100 100 100 100 100 100 100 100 100 100 100 100 100 100 100 100 100 100 100 100 99 100 95 59 100 77 92 98 85 46 14 58 36
100 100 100 100 100 94 100 100 100 100 100 100 100 100 100 100 100 100 100 100 100 100 100 100 100 100 100 100 100 100 100 100 100 100 100 100 99 32 98 90 98 64 96
100 100 100 100 100 100 100 100 100 100 100 100 100 100 100 100 100 100 100 100 100 100 100 100 100 100 100 100 100 100 100 100 100 86 99 100 100 95 81 100 100 38 6
100 100 100 100 100 100 100 100 100 100 100 100 100 100 100 100 100 100 100 100 100 100 100 100 100 98 91 100 100 100 99 83 82 100 100 98 100 100 90 99 75 96 98
100 100 100 100 100 100 100 100 100 100 100 100 100 100 100 100 100 100 100 100 100 100 100 100 100 99 100 100 100 100 99 100 100 100 99 100 100 97 97 91 96 100 82

GFSSE_prec_cloud_102.txt.gz
Cloud_Cover
16 17 5 5 6 0 0 0 0 0 0 1 5 5 3 0 0 0 1 0 9 8 17 58 47 20 76 41 99 1 15 0 2 2 4 0 1 0 0 11 0 0 1
12 6 4 0 0 5 0 0 0 0 0 0 1 18 23 1 0 0 0 2 6 60 15 98 50 4 100 23 0 0 0 0 0 0 0 0 0 0 2 11 0 3 1
16 8 0 0 0 0 4 0 0 0 0 0 77 100 8 4 0 0 1 27 26 6 88 50 0 0 0 0 0 0 0 0 0 0 0 0 0 34 62 0 3 97 28
3 10 17 2 0 0 0 0 0 0 0 0 43 66 60 2 0 19 14 16 0 6 44 6 0 0 0 0 0 0 0 0 0 0 0 0 2 12 4 50 100 100 100
2 5 0 0 0 0 0 0 0 0 0 0 2 2 5 0 10 3 4 1 0 0 1 0 5 0 0 0 0 0 0 0 0 0 0 0 0 4 0 0 16 95 100
0 0 0 0 0 2 0 0 0 0 0 0 0 3 0 5 0 0 0 0 0 0 0 0 0 0 0 0 0 0 0 0 0 0 0 0 0 0 0 0 0 1 5
4 13 10 0 0 0 0 0 0 0 2 5 0 5 1 0 5 0 0 0 0 0 0 0 0 0 0 0 0 0 0 0 0 0 0 4 1 3 0 0 0 4 5
11 34 14 0 0 0 1 0 0 0 0 5 5 0 5 0 0 0 0 0 0 0 0 5 2 5 5 5 0 0 0 0 0 0 3 5 5 5 5 3 1 3 5
15 61 53 24 19 4 1 4 0 0 0 0 5 5 5 5 5 5 4 5 5 0 0 0 2 3 2 5 0 0 1 4 5 5 5 5 5 5 5 5 5 5 5
57 100 100 57 14 32 14 2 0 0 0 0 2 5 5 83 100 100 79 5 1 2 5 5 5 5 5 5 4 5 2 46 27 53 5 5 35 5 5 2 0 5 12
100 94 97 83 41 16 14 4 1 0 1 0 4 2 5 98 100 100 64 41 68 51 14 5 7 17 38 13 17 5 37 100 100 62 5 5 50 6 5 5 5 5 93
100 100 68 24 39 42 47 13 10 2 9 5 2 3 63 55 100 100 100 100 100 99 13 4 5 5 6 43 73 7 92 89 100 100 95 42 5 5 5 5 5 5 12
100 100 86 23 26 48 83 50 78 58 38 9 5 9 100 93 85 100 100 100 100 79 88 62 100 22 65 54 54 31 44 11 100 100 100 100 30 5 5 5 5 5 5
87 53 52 58 34 68 57 44 82 100 92 57 56 38 96 100 63 99 100 100 100 100 100 99 100 100 68 52 78 37 37 44 100 100 100 100 100 34 5 5 0 5 5
41 38 100 50 24 77 50 22 39 100 100 83 64 73 98 100 77 78 100 100 100 100 100 92 74 100 100 90 97 99 89 86 100 100 100 100 100 47 5 5 4 0 5
1 5 70 93 39 64 69 56 99 98 82 99 98 98 100 100 100 100 78 93 100 100 100 100 100 100 100 100 100 100 100 100 100 100 99 85 90 10 5 5 5 5 49
0 0 3 49 43 31 55 62 98 100 100 57 75 100 100 100 100 100 100 100 100 100 100 100 100 100 100 100 100 100 100 100 100 100 94 82 100 29 5 5 5 46 91
0 0 0 5 4 1 5 11 5 72 100 100 100 90 100 100 100 100 100 100 100 100 100 100 100 100 100 100 100 100 100 100 100 89 93 100 100 81 5 10 6 77 69
4 0 1 56 11 24 4 30 40 5 77 100 100 100 100 100 100 100 100 100 100 100 100 100 100 100 100 100 99 100 100 100 100 100 80 100 98 51 11 87 100 100 77
3 5 1 28 29 19 10 31 62 45 57 100 98 100 100 100 100 100 100 100 100 100 100 100 100 100 100 100 100 100 100 100 99 23 100 100 100 65 100 52 43 82 92
0 30 28 46 47 90 96 63 56 89 99 50 94 100 100 100 100 100 100 100 100 100 100 100 100 100 100 100 100 100 100 100 100 99 80 11 58 56 100 99 100 68 100
0 5 25 40 34 70 92 86 29 84 100 36 94 100 100 100 100 100 97 100 100 100 100 100 100 100 100 100 100 100 100 100 100 100 100 23 57 9 11 5 80 100 84
6 60 2 1 51 85 97 91 42 100 100 82 100 100 100 100 100 100 100 100 100 100 100 100 100 100 100 100 100 100 100 100 100 100 100 82 100 56 91 74 56 100 100
0 0 0 0 17 85 100 100 30 100 100 100 100 100 100 100 100 100 100 100 100 100 100 100 100 100 100 100 100 100 100 100 97 90 100 31 76 68 85 95 100 100 100
0 2 8 23 100 100 100 100 100 100 100 100 100 100 100 100 100 100 100 100 100 100 100 100 100 100 100 100 100 96 100 97 69 84 100 65 48 100 100 100 100 99 57
100 100 100 100 100 98 100 100 100 100 100 100 100 100 100 100 100 100 100 100 100 100 100 100 100 100 100 100 100 94 100 100 100 100 100 92 100 100 100 100 100 71 81

GFSSE_prec_cloud_105.txt.gz
Cloud_Cover
11 2 0 5 2 0 1 0 0 0 0 0 9 44 5 5 0 0 0 0 2 20 100 87 44 32 0 83 86 26 0 10 4 22 0 0 0 6 2 2 1 0 0
7 4 9 0 0 0 0 0 0 0 0 8 2 2 1 1 0 0 1 6 11 16 100 99 0 99 100 100 64 1 0 1 0 0 0 0 0 0 21 0 6 9 8
8 5 32 1 2 0 0 0 0 0 0 0 5 41 7 0 0 2 3 3 29 51 99 34 29 90 0 0 0 0 0 0 0 0 0 9 39 46 18 0 86 81 21
9 4 11 5 0 0 0 0 0 0 0 0 0 0 6 0 0 9 13 13 27 100 33 0 4 0 0 0 0 0 0 0 0 0 0 0 19 5 18 90 74 100 100
23 4 2 0 0 0 0 0 0 0 0 0 0 0 8 0 0 1 20 14 0 45 14 0 0 0 0 0 0 0 0 0 0 0 0 0 4 44 20 86 100 95 80
30 6 4 0 4 0 0 0 0 0 0 0 0 0 0 0 7 10 1 0 0 0 0 0 0 0 0 0 0 0 0 0 0 0 0 0 3 5 5 5 5 5 4
43 33 9 2 0 0 0 1 0 0 0 4 2 0 5 3 7 12 5 1 0 0 0 0 0 0 0 0 2 0 0 0 0 0 0 0 0 0 5 5 5 6 5
20 34 46 5 0 0 0 5 1 0 0 0 0 0 1 5 1 0 2 5 4 0 0 0 0 4 2 0 0 0 3 2 1 0 5 1 0 5 5 5 5 5 10
78 43 27 34 4 1 0 0 4 2 0 0 0 0 0 3 5 0 0 0 32 4 0 0 0 2 5 2 0 0 4 5 3 5 5 20 5 5 5 5 5 5 5
34 42 48 40 35 35 23 2 0 4 5 0 0 5 0 1 5 5 0 0 5 26 27 5 0 0 5 5 5 5 3 5 5 27 100 100 18 8 5 3 5 5 5
100 81 100 91 51 30 28 8 2 0 5 5 4 3 0 5 5 5 3 4 5 82 38 6 3 3 5 5 37 55 95 64 7 51 96 99 100 100 100 5 2 3 5
100 95 98 100 100 100 46 34 29 21 9 2 5 8 2 14 54 5 12 5 34 100 84 5 11 7 18 5 18 16 91 19 5 8 75 97 100 100 100 100 100 10 5
0 44 100 100 100 100 100 82 81 54 50 29 11 5 5 25 27 5 79 51 49 95 100 80 5 6 47 60 64 91 67 47 48 88 90 100 43 100 100 100 90 11 53
29 48 99 100 72 37 50 100 99 95 86 53 27 1 5 10 100 43 98 49 99 94 100 100 53 6 33 100 100 100 100 88 76 16 9 100 100 100 33 5 38 54 5
21 68 89 98 100 69 71 92 71 72 78 64 23 12 1 5 100 67 91 87 79 100 100 100 96 72 54 88 53 100 98 100 86 64 84 100 100 100 97 5 5 12 20
0 15 29 99 100 100 97 99 60 48 67 61 32 58 32 58 100 92 51 64 99 31 98 75 100 31 31 46 94 99 100 100 100 100 100 100 100 100 24 5 14 5 41
0 0 35 58 100 100 96 34 97 99 77 73 53 72 62 59 100 100 85 100 97 100 80 40 74 87 64 98 100 100 100 100 100 100 100 100 100 64 16 5 45 5 6
0 0 0 38 44 20 30 8 49 8 99 100 100 64 100 46 94 100 100 98 100 100 89 54 99 27 52 100 100 100 100 100 100 67 100 77 100 18 63 15 14 16 36
0 0 0 2 35 6 5 5 5 6 28 74 100 100 82 86 69 100 100 100 100 96 100 100 85 55 100 100 100 100 100 100 100 100 100 100 95 100 63 5 83 72 41
0 0 0 0 0 0 0 44 60 58 46 7 65 92 68 100 64 89 89 100 100 100 100 93 56 100 100 100 100 100 100 100 100 100 100 100 100 98 48 17 99 98 24
0 0 2 27 13 41 78 72 78 95 96 55 98 100 100 31 63 100 100 100 100 100 100 100 100 100 100 100 100 100 100 100 100 100 100 100 100 85 99 100 100 7 29
0 0 25 50 99 70 53 38 21 43 34 28 48 41 26 96 10 42 100 100 100 100 100 100 100 100 100 100 100 100 100 100 100 100 100 100 72 78 96 98 100 60 67
20 2 28 15 36 75 99 100 99 91 64 45 50 24 40 5 6 36 100 100 100 100 100 100 100 100 100 100 100 100 100 100 100 100 100 85 41 93 76 90 90 100 96
9 0 0 11 17 22 10 52 94 100 94 90 75 100 100 96 5 51 92 100 100 100 100 100 100 100 100 100 100 100 100 100 100 100 98 94 97 100 100 100 100 100 100
0 1 0 0 0 1 17 21 71 73 51 100 100 100 100 100 79 80 99 100 100 100 100 100 100 100 100 100 100 100 100 100 100 97 96 33 32 26 42 100 100 100 100
2 0 0 0 0 0 13 24 60 100 100 83 100 100 100 100 100 100 100 100 100 100 100 100 100 100 100 100 100 100 100 91 100 100 100 100 100 88 100 100 100 100 100

GFSSE_prec_cloud_108.txt.gz
Cloud_Cover
30 14 0 4 0 0 0 2 0 0 0 0 90 70 13 6 5 2 0 0 20 30 47 0 2 99 45 0 5 15 3 53 31 0 0 0 4 0 4 0 0 0 0
3 12 0 2 5 0 0 6 1 0 0 5 94 94 26 11 4 0 0 2 16 88 91 3 0 6 0 89 41 3 98 4 0 0 0 0 0 2 71 0 0 2 1
20 20 3 5 5 0 4 1 0 2 0 0 92 70 4 0 4 0 2 13 14 59 100 8 98 96 92 36 0 0 7 3 0 0 0 5 6 10 6 0 0 14 28
15 14 12 23 17 4 2 5 5 0 0 5 0 22 0 0 0 0 9 16 77 96 16 45 3 0 0 0 0 0 0 0 0 0 0 0 0 12 0 4 5 40 98
45 13 13 99 100 64 5 5 5 5 0 0 0 0 0 0 0 1 13 2 60 49 0 1 0 0 0 0 0 0 0 0 0 0 0 0 0 14 98 73 5 8 5
46 5 0 3 5 1 1 0 0 5 1 5 0 0 0 0 2 18 44 0 0 6 0 0 0 0 0 0 0 0 0 0 0 0 0 0 0 4 0 0 5 5 5
88 21 0 2 0 0 1 0 0 0 0 0 0 0 0 0 1 23 57 0 3 3 0 0 0 0 0 0 0 0 0 0 0 0 0 1 0 0 0 0 0 0 2
69 34 2 0 0 0 0 0 2 3 0 1 3 0 0 0 7 39 32 0 0 5 5 3 0 2 0 3 3 0 0 0 0 2 2 5 5 25 1 2 2 5 5
25 23 10 12 0 0 0 1 0 5 5 5 5 5 5 1 58 21 8 0 5 2 2 5 5 5 5 5 5 3 0 0 0 0 4 4 19 76 84 100 100 20 5
95 22 100 100 100 21 2 0 0 4 5 1 1 5 5 4 2 86 5 5 0 5 5 5 5 5 5 5 5 5 3 0 5 5 5 5 5 5 94 100 100 95 100
9 80 26 100 100 100 65 5 1 0 0 4 5 0 3 5 5 5 3 4 4 5 5 5 5 5 5 11 39 11 55 30 56 90 60 6 30 68 71 100 100 100 58
0 2 93 78 88 69 42 100 82 15 28 13 10 2 5 3 5 5 5 5 5 5 1 7 6 29 100 72 31 42 67 64 60 92 83 8 48 100 93 55 100 100 94
0 0 19 98 91 100 100 100 100 100 100 40 28 22 16 8 8 5 5 5 7 20 20 32 10 21 100 100 86 63 64 65 88 100 100 86 17 98 100 100 100 100 60
0 0 0 53 100 94 100 100 100 100 100 99 38 26 15 20 37 14 5 5 78 66 60 100 30 7 31 98 100 92 93 100 100 100 98 100 64 16 98 100 100 100 100
5 0 0 20 94 100 99 94 100 100 100 97 100 14 1 0 8 5 11 70 49 100 15 41 99 92 5 26 98 100 100 94 99 92 97 95 98 97 100 96 100 99 77
5 5 0 28 56 97 100 100 100 42 74 100 99 87 10 4 5 5 38 84 50 58 13 19 96 100 84 8 11 100 100 55 89 100 100 100 100 100 100 11 100 29 14
5 5 5 14 78 75 88 100 100 100 46 100 100 6 3 4 10 3 89 100 69 99 100 53 100 59 76 31 5 77 98 100 100 100 100 100 100 100 100 98 99 72 6
4 51 7 4 75 61 100 97 80 82 92 100 100 100 56 100 63 71 100 100 100 100 100 87 34 20 100 99 71 61 27 95 100 100 100 100 100 100 100 100 95 10 43
0 0 5 8 22 75 100 100 25 11 85 97 100 100 97 80 27 68 52 32 100 100 100 78 99 100 94 27 30 51 100 100 100 100 100 100 100 100 100 100 62 59 64
0 0 0 5 22 98 79 100 79 59 92 98 88 100 87 100 94 76 46 37 54 95 100 100 100 99 100 99 48 64 87 100 100 100 100 100 100 100 100 55 81 96 100
0 0 0 3 0 66 100 100 100 100 33 95 100 100 100 100 100 89 84 58 52 100 100 100 100 100 100 100 100 94 99 100 100 100 100 100 100 100 98 11 13 57 66
0 0 0 0 2 23 20 30 37 36 28 2 34 88 100 100 100 93 28 38 5 17 80 100 100 100 100 100 100 59 100 100 100 100 100 100 100 100 70 87 31 69 36
0 0 0 0 6 6 47 36 21 14 14 40 77 48 85 69 95 100 100 95 14 2 40 100 100 100 100 100 100 100 100 100 100 100 100 100 100 93 100 97 81 49 87
0 0 0 0 42 98 99 88 41 5 38 31 5 71 87 26 10 45 81 60 17 9 1 94 100 100 100 100 100 100 100 100 100 100 100 100 100 100 100 99 83 90 57
0 6 13 6 71 84 98 77 100 100 100 100 100 96 18 12 0 0 52 11 1 5 3 47 71 100 100 100 100 100 100 100 100 100 100 100 100 100 100 100 100 100 100
0 1 22 18 68 52 91 98 89 96 90 31 78 77 84 95 70 61 64 82 60 74 100 95 100 100 100 100 100 100 100 100 100 100 100 100 100 100 100 100 100 100 100

GFSSE_prec_cloud_111.txt.gz
Cloud_Cover
20 55 9 3 0 0 0 0 0 0 0 0 88 100 80 24 5 5 5 5 0 18 0 0 0 28 23 0 0 1 30 18 0 0 0 0 4 0 0 0 0 0 2
5 49 3 10 5 2 0 0 0 0 0 2 100 100 83 13 5 10 20 8 0 83 0 41 56 37 58 25 1 45 71 0 0 0 0 0 0 0 1 0 0 0 0
22 52 0 4 5 5 5 0 0 0 0 4 100 100 95 9 0 5 6 17 1 100 31 3 4 8 55 0 0 54 34 1 0 0 0 35 33 6 1 0 1 26 20
46 62 18 0 3 47 5 5 1 0 1 21 85 98 13 1 0 0 6 10 1 100 0 1 48 90 0 0 0 0 0 0 0 0 0 18 46 24 8 5 0 54 96
51 42 6 2 5 44 5 3 5 5 5 3 3 11 0 0 0 14 19 34 29 32 0 0 0 0 0 0 0 0 0 0 0 0 0 0 1 1 0 1 11 6 5
65 54 0 1 5 16 11 5 5 5 5 5 5 5 4 0 0 10 0 0 0 0 0 0 0 0 0 0 0 0 0 0 0 0 0 0 0 0 3 0 7 7 2
100 36 7 0 0 1 1 0 5 9 5 5 5 5 5 5 5 35 15 0 0 0 0 0 0 0 4 1 0 0 0 0 5 1 0 0 0 3 6 7 5 99 98
100 51 2 0 0 0 0 0 0 0 4 5 5 2 5 5 5 23 5 1 0 1 2 0 0 2 2 1 5 3 0 0 0 5 0 0 5 5 18 71 100 100 100
100 92 0 0 0 0 0 0 0 0 0 0 5 5 5 5 9 38 7 15 5 4 3 5 3 3 4 5 5 5 5 5 2 4 0 5 5 5 13 9 94 100 100
2 70 43 34 100 6 0 0 0 0 0 4 0 15 73 34 10 5 30 62 59 5 5 5 5 5 5 5 55 29 73 6 5 5 5 5 7 43 6 41 6 22 100
0 0 31 54 90 100 97 16 16 12 0 7 4 1 20 24 36 17 58 58 80 23 5 5 6 5 5 5 59 22 97 84 16 6 7 5 78 5 5 66 100 96 100
0 7 2 27 63 95 100 96 53 51 47 5 17 24 30 14 5 60 60 18 43 7 5 5 5 5 5 5 5 29 80 98 70 48 54 11 100 83 70 76 70 98 100
0 0 1 0 31 97 100 100 100 100 100 84 99 90 31 16 18 34 27 16 28 74 20 44 18 14 5 5 5 5 59 100 100 90 76 84 100 100 100 100 22 96 100
0 0 0 0 5 46 100 88 100 100 100 100 100 38 37 70 57 30 21 36 32 25 77 100 79 99 32 6 5 27 6 34 96 100 100 100 100 100 100 100 100 100 100
2 2 0 0 2 32 93 100 99 100 100 100 100 89 100 76 53 9 11 15 10 54 34 12 35 93 68 40 8 31 47 30 15 89 100 100 91 98 99 96 100 100 100
3 5 0 0 0 12 76 99 99 100 100 100 100 100 100 98 100 5 3 10 54 62 85 65 72 36 72 97 32 24 11 28 41 29 84 100 100 100 100 100 100 100 100
0 0 0 0 0 0 23 86 100 100 82 91 92 100 69 63 41 4 5 5 18 51 64 96 6 71 61 6 31 48 100 100 99 99 87 99 100 100 100 100 100 100 100
0 0 0 0 0 0 36 56 100 100 89 98 72 99 100 100 100 39 6 4 35 100 100 28 91 99 98 99 60 65 14 44 23 90 93 59 71 100 100 100 100 100 86
0 0 0 4 0 0 2 61 89 100 100 99 100 96 87 100 99 100 93 68 35 92 100 98 100 83 88 90 78 6 5 5 5 50 92 100 100 100 100 100 100 100 26
0 0 0 0 3 0 1 95 82 100 100 100 100 100 76 96 100 100 93 77 72 44 46 60 100 100 100 100 100 90 95 99 74 100 99 94 100 100 100 100 100 99 15
0 0 0 0 0 0 7 100 100 100 100 100 92 100 75 92 73 100 100 96 66 60 90 56 43 100 100 100 100 100 97 100 100 100 100 100 100 100 100 100 100 100 68
0 0 0 0 0 0 0 90 100 95 100 94 98 75 98 100 100 100 87 100 100 75 81 79 78 35 97 100 96 100 100 97 100 100 100 100 100 100 100 100 100 100 92
0 0 0 0 0 0 0 53 92 98 100 100 74 40 38 96 100 100 100 100 100 92 29 14 21 5 4 29 80 100 100 97 100 100 100 100 100 100 100 100 100 100 90
0 0 0 0 0 0 0 74 100 100 80 8 5 4 26 50 44 66 74 100 100 90 86 76 96 50 18 4 25 100 97 100 100 100 100 100 100 100 100 100 100 98 100
0 0 0 0 0 0 4 71 100 92 13 5 4 4 5 29 38 16 28 88 100 100 30 53 28 9 14 81 5 74 100 99 100 100 100 100 100 100 100 100 100 100 100
2 0 0 0 1 1 0 24 100 100 69 25 34 11 42 43 64 32 23 48 95 100 96 46 22 4 0 6 42 100 100 100 100 100 100 100 100 100 100 100 100 100 100

GFSSE_prec_cloud_114.txt.gz
Cloud_Cover
39 93 60 10 5 5 3 2 0 0 1 0 88 100 57 12 0 0 7 5 5 5 6 0 0 14 28 0 1 12 22 20 9 2 0 4 8 0 0 0 0 3 1
50 98 82 28 2 5 5 4 0 0 0 1 100 100 100 16 0 0 5 5 5 34 3 0 49 11 1 1 59 100 19 0 0 0 0 0 0 0 0 0 0 0 2
78 82 53 20 5 5 4 1 7 13 30 0 49 100 100 16 0 0 12 5 5 5 19 34 15 4 0 10 63 22 0 0 0 0 5 69 32 6 4 0 12 1 14
80 77 87 29 5 3 0 0 4 5 5 5 2 98 100 12 5 0 14 32 5 6 5 0 0 0 0 6 13 6 3 0 0 0 22 79 54 17 19 21 4 40 39
59 89 96 56 62 5 0 5 4 5 5 5 3 41 14 5 5 5 10 92 21 0 0 0 0 0 0 2 7 11 0 0 0 0 0 1 0 9 12 6 6 2 5
86 89 54 0 35 1 4 5 2 0 0 3 5 4 5 77 100 97 77 100 4 0 0 0 0 0 0 0 0 0 0 0 0 0 0 1 2 5 5 5 75 10 92
75 82 50 0 0 1 0 4 3 0 0 0 5 5 5 5 7 36 48 6 52 5 5 1 2 5 3 4 0 0 1 2 4 1 0 0 0 5 3 5 88 76 100
100 45 59 4 0 2 5 5 5 5 4 8 5 5 5 5 5 10 77 11 14 11 13 5 5 5 5 5 5 5 4 2 3 5 4 0 0 1 5 5 8 6 80
93 98 58 51 7 0 2 9 43 5 0 4 0 6 5 5 6 10 18 12 57 71 74 45 48 5 5 5 5 5 5 11 44 32 15 10 2 0 2 5 5 28 5
0 5 55 33 52 48 33 0 20 96 5 5 6 3 5 5 5 5 12 98 71 86 54 51 28 8 53 75 6 5 5 19 7 60 69 60 22 6 10 8 9 5 19
0 0 0 18 50 40 100 100 60 24 8 49 27 26 82 21 19 97 12 23 72 100 100 100 100 42 47 77 100 100 100 79 67 64 55 66 100 56 69 93 74 100 100
0 0 0 0 13 49 65 47 100 100 100 100 100 19 17 33 26 93 55 8 49 10 23 10 47 95 90 85 56 88 69 77 62 91 70 100 100 100 67 91 100 100 100
0 0 0 0 0 34 66 40 92 99 100 100 100 100 100 75 39 20 46 19 27 14 5 22 68 70 60 34 60 26 57 69 56 27 71 100 100 100 100 100 100 100 100
0 0 0 0 0 0 62 57 37 73 100 100 100 100 100 100 99 38 92 60 58 47 18 5 13 100 72 99 100 72 55 52 65 65 72 54 79 76 100 100 100 82 76
4 0 0 0 0 0 3 83 43 82 100 100 100 100 100 100 99 65 60 92 40 100 51 16 4 6 38 89 90 95 100 91 80 41 18 11 6 6 57 100 100 100 91
5 0 0 0 0 0 0 79 80 55 70 99 100 100 100 100 100 100 99 57 95 93 80 43 17 4 13 5 5 5 30 50 23 93 100 96 93 61 5 38 80 24 11
4 4 0 0 0 0 0 0 100 100 97 70 98 100 100 100 100 100 100 100 100 100 82 26 54 6 83 87 6 5 5 5 5 5 0 62 100 100 99 58 24 58 83
21 2 2 0 0 0 0 0 85 100 100 51 82 100 100 100 100 100 81 33 80 100 81 82 97 90 9 95 98 61 20 11 5 5 4 0 0 1 71 99 100 72 96
17 5 5 3 4 0 0 0 1 100 100 91 91 100 100 100 91 98 99 86 70 94 86 5 93 51 99 46 98 100 52 99 84 59 7 17 64 2 6 45 8 56 100
0 1 5 4 0 5 1 0 3 93 100 100 84 99 84 100 100 100 93 81 62 100 99 55 56 100 100 94 78 68 96 96 97 80 100 78 100 98 100 85 100 100 100
0 0 0 0 5 0 2 0 9 100 74 100 100 95 78 96 73 100 92 74 100 91 99 80 79 72 64 97 100 100 100 100 98 100 100 100 100 100 98 100 100 100 100
0 0 0 0 0 0 0 0 0 56 100 98 100 100 92 71 80 90 100 100 100 100 100 98 100 100 92 81 61 11 28 98 77 100 97 100 98 100 100 100 100 100 100
0 0 0 0 0 0 0 0 8 39 100 100 100 100 100 54 73 96 99 100 100 100 98 100 100 92 42 32 8 5 5 3 5 5 51 100 94 74 100 100 100 100 100
0 0 0 0 0 0 0 0 16 27 100 88 100 100 100 100 100 58 88 92 100 100 93 100 89 85 83 78 33 5 20 4 5 6 19 84 99 93 94 100 100 100 100
28 0 0 0 0 0 0 0 0 86 100 84 100 100 100 100 100 100 100 100 99 100 100 100 100 95 98 87 15 54 39 14 23 5 5 83 100 93 97 100 100 100 100
94 48 4 0 0 0 0 0 0 0 95 100 100 100 74 74 62 37 55 76 100 100 69 91 25 100 100 96 60 63 38 49 89 60 22 98 100 100 75 100 100 100 100

GFSSE_prec_cloud_117.txt.gz
Cloud_Cover
58 100 80 88 5 12 11 8 71 67 25 3 100 40 15 2 0 0 0 0 5 5 5 5 4 43 5 1 14 20 25 8 0 1 1 0 0 0 0 0 26 0 0
13 100 100 24 0 3 1 5 6 6 5 5 60 95 9 1 0 5 2 0 5 6 5 5 9 0 2 8 8 99 3 0 0 0 0 0 0 0 0 0 0 0 8
35 100 100 69 5 0 0 5 0 5 5 5 46 39 99 5 4 5 8 2 4 5 5 21 7 4 6 1 98 91 0 0 0 0 50 68 29 6 1 15 52 18 23
91 86 100 18 0 0 0 3 1 5 5 5 0 55 100 17 5 3 8 2 9 4 5 5 5 0 0 2 34 46 2 0 0 0 68 29 29 18 31 28 29 16 3
87 98 49 8 95 0 0 0 4 0 4 4 12 32 100 17 5 5 23 80 7 0 1 4 5 0 0 6 12 11 0 0 0 0 53 37 7 12 3 1 5 3 5
61 100 100 1 6 53 0 0 0 5 1 0 3 0 1 5 5 5 54 10 16 5 5 5 5 0 0 6 3 0 0 0 0 11 0 0 1 0 0 0 1 4 5
45 99 100 0 19 0 0 0 0 2 0 0 0 0 0 0 0 0 14 60 34 5 1 3 5 5 5 3 5 4 5 3 0 4 1 1 0 0 5 5 1 5 5
35 14 87 26 0 0 0 0 4 6 4 2 0 0 0 0 0 5 5 13 64 31 5 4 3 5 5 17 5 5 5 5 19 5 4 5 4 5 5 5 30 9 19
18 92 63 99 3 0 0 0 0 83 100 45 7 5 5 19 83 53 43 6 55 100 80 29 5 5 14 46 37 60 26 33 25 5 5 5 5 5 28 56 43 22 20
0 50 26 83 98 31 25 1 0 3 99 100 100 74 6 54 36 99 36 97 71 100 100 68 25 22 17 5 6 14 25 59 63 61 30 6 5 8 69 94 68 57 37
0 0 17 16 96 100 96 58 81 7 5 12 43 84 100 95 100 98 66 81 100 95 96 100 98 89 45 98 100 100 40 36 72 97 100 100 100 98 73 99 100 100 100
0 0 0 0 0 3 77 98 16 100 100 94 22 10 100 100 100 100 100 67 28 5 74 95 100 100 100 96 60 100 93 69 44 39 73 88 81 70 91 100 100 100 100
0 0 0 0 0 0 63 8 99 80 100 100 100 100 100 100 100 100 64 22 11 13 26 16 99 100 100 100 89 63 6 5 18 26 9 20 54 10 5 5 16 50 100
10 0 0 0 0 0 0 69 3 93 59 98 100 100 100 100 100 100 98 95 51 32 15 5 5 5 50 80 75 84 100 100 100 100 100 95 64 59 98 25 5 5 5
100 80 14 2 4 0 0 16 95 22 88 77 100 100 100 100 95 100 100 94 29 34 39 84 0 0 0 5 5 5 49 84 17 23 89 100 100 99 98 14 5 6 5
28 84 100 9 4 0 0 0 34 71 81 82 91 100 96 100 100 100 100 99 100 56 45 98 64 23 4 4 5 5 5 5 5 4 1 10 4 2 2 10 40 100 89
5 5 6 36 5 11 2 2 0 19 70 73 90 100 98 100 100 100 100 100 100 100 100 100 100 66 6 8 5 5 5 5 5 5 5 5 4 2 0 0 0 0 2
76 1 5 4 5 5 5 5 5 0 98 99 24 61 100 100 100 100 100 100 100 90 95 69 95 23 25 49 5 21 41 49 5 14 46 14 46 5 5 5 2 2 0
4 2 2 0 0 2 5 5 5 0 54 99 100 100 46 89 100 100 100 100 100 100 89 88 58 55 37 32 43 16 16 5 40 100 17 59 9 38 28 5 79 87 98
0 0 0 0 0 0 0 5 5 1 0 56 100 91 62 37 34 98 100 100 100 100 100 74 18 23 7 19 52 51 28 95 100 61 31 100 85 9 46 90 100 94 78
0 0 0 0 0 0 0 0 4 5 5 16 99 74 67 81 34 93 100 100 100 100 100 80 71 98 36 83 41 99 91 54 93 82 52 23 9 61 18 60 97 88 79
7 0 0 0 0 0 0 0 0 0 4 43 67 100 100 94 85 55 41 85 97 100 100 98 89 86 96 67 71 75 30 60 11 34 19 5 5 8 6 6 32 38 47
51 33 0 0 0 0 0 0 0 0 0 28 98 47 100 100 100 71 22 30 55 95 100 100 100 100 100 100 100 90 59 6 40 5 5 3 2 2 5 5 10 58 28
35 100 23 0 0 0 0 0 0 0 0 1 7 21 100 100 100 46 72 78 52 91 72 100 100 100 100 67 40 67 5 5 5 5 5 4 5 5 5 5 46 99 23
100 79 100 23 0 0 0 0 0 0 0 22 1 100 100 100 100 100 100 90 98 100 89 48 98 100 100 67 76 20 51 5 5 4 7 5 5 10 5 12 54 100 69
100 100 100 93 25 0 0 0 0 0 0 0 4 2 41 100 100 100 100 99 100 89 100 100 100 98 87 64 98 71 64 98 72 4 6 0 2 18 21 91 100 100 99

GFSSE_prec_cloud_120.txt.gz
Cloud_Cover
89 4 100 84 87 100 60 21 21 8 12 7 8 12 5 0 0 0 0 0 0 0 0 10 2 38 0 11 34 21 11 2 4 4 0 0 0 0 0 0 0 0 2
99 97 100 67 5 6 14 5 67 65 5 5 100 11 24 0 0 0 0 0 0 0 13 21 12 0 18 3 0 1 0 0 0 0 0 0 0 0 0 0 0 40 38
99 100 100 74 35 5 5 4 5 5 5 5 5 34 99 5 5 19 0 0 0 0 19 4 22 7 10 2 100 6 0 0 0 4 6 1 0 1 10 37 82 9 80
81 100 100 2 0 2 5 3 5 4 1 0 4 5 100 5 5 18 6 0 0 0 0 14 5 11 11 74 8 0 0 0 1 94 48 0 16 74 29 12 12 12 10
65 94 40 39 38 0 3 0 0 1 0 0 5 5 98 16 4 1 5 4 0 0 0 0 3 5 15 8 13 0 0 0 0 100 98 40 0 15 6 5 4 4 5
10 67 46 29 100 10 0 5 4 0 0 0 17 5 87 30 5 0 0 0 0 0 0 2 5 3 4 2 3 5 5 5 4 1 0 0 0 0 0 5 33 5 5
83 96 98 2 34 69 0 1 1 0 0 0 0 5 5 6 5 5 2 4 0 2 0 5 22 5 3 5 5 5 5 5 14 7 5 5 4 4 1 5 6 76 21
0 29 100 27 1 14 6 12 1 5 4 5 2 2 5 5 5 5 5 0 5 9 5 32 11 5 5 3 5 5 6 5 25 33 9 6 5 4 5 5 5 9 51
0 25 82 99 20 0 0 5 57 1 0 5 5 80 30 5 5 5 38 48 16 26 75 60 82 45 35 11 5 5 13 44 32 88 69 58 64 48 28 5 5 5 18
0 7 99 99 100 30 0 0 0 2 0 0 16 100 63 86 100 9 53 62 100 100 100 100 100 100 100 86 50 61 5 16 53 98 82 100 100 100 100 100 100 97 100
0 0 6 95 67 100 69 0 0 0 5 3 0 9 100 100 100 95 38 71 100 99 100 100 100 100 100 100 100 100 93 100 100 100 98 57 84 92 100 100 98 100 100
6 0 0 5 58 92 92 69 6 0 0 66 17 0 0 22 97 99 100 100 100 88 98 35 98 100 85 100 100 100 100 100 79 69 48 99 93 71 60 71 6 6 34
100 91 6 0 0 43 42 63 86 16 0 1 76 84 100 94 54 100 100 100 79 100 91 100 100 100 95 81 97 100 100 100 100 100 91 98 91 92 95 92 94 69 13
100 100 100 5 5 1 7 3 0 17 56 0 0 69 100 100 50 80 100 100 100 100 100 100 84 49 31 53 63 68 82 84 98 94 97 100 100 100 98 88 84 75 47
86 100 100 100 37 4 1 0 0 2 18 97 43 7 87 100 100 100 100 94 75 98 94 47 10 28 10 5 1 2 3 2 0 1 2 5 11 24 8 2 0 4 19
0 5 45 99 100 99 38 5 2 2 20 8 86 100 91 99 100 98 100 100 99 100 100 100 41 11 5 5 5 5 4 3 4 5 5 5 2 2 3 0 2 4 1
0 0 1 5 5 11 86 100 63 4 1 52 57 100 100 100 23 19 83 100 100 100 100 100 100 100 63 5 14 69 51 14 17 5 5 5 71 18 20 5 17 48 5
0 0 0 0 3 2 5 4 21 96 15 5 52 100 100 100 17 45 54 100 100 100 100 100 100 89 100 62 19 22 33 58 26 9 5 5 5 5 6 5 26 5 12
18 3 0 0 0 3 5 5 5 0 4 5 5 48 33 64 72 87 98 27 99 100 100 64 34 98 100 73 85 22 61 30 5 16 12 5 7 5 26 5 5 6 5
0 2 0 0 0 0 37 79 6 5 2 0 2 9 97 34 2 6 36 84 41 100 100 100 97 86 88 98 97 100 8 38 46 17 5 5 62 8 8 6 5 10 27
0 0 0 0 0 0 0 0 4 5 5 4 0 0 5 41 15 0 0 24 18 100 28 99 100 90 100 100 45 25 5 5 55 72 39 39 53 6 82 5 5 5 5
0 0 0 4 0 0 0 0 0 2 5 5 5 0 0 100 35 5 32 16 17 65 97 79 100 100 100 100 82 87 72 8 5 5 5 5 5 5 5 1 1 0 1
38 0 0 42 40 0 0 0 0 0 4 0 0 0 0 97 99 56 100 88 12 100 30 41 78 92 100 100 100 92 97 54 55 26 33 5 5 5 5 5 5 4 2
100 89 0 22 96 0 0 0 0 0 0 0 0 0 0 5 100 100 94 100 98 36 55 54 7 61 100 100 100 100 100 99 92 45 5 5 5 5 39 5 7 5 2
100 100 5 25 100 51 0 0 0 0 0 0 0 0 0 5 29 100 99 98 100 97 100 98 100 100 46 40 65 100 100 98 85 7 28 40 6 97 100 84 10 6 6
100 100 100 97 100 49 38 31 2 0 0 0 0 0 0 0 3 81 100 99 100 100 100 100 100 100 100 98 38 71 72 100 100 86 67 87 89 96 33 97 100 100 28